[[{"header":{"parameterUnit":"m.s-1","parameterCategory":1,"la1":30.6,"la2":28.766,"lo1":-90.7593,"lo2":-88.6598,"dx":0.0162,"dy":0.0183,"nx":116,"ny":114,"refTime":"2023-01-28T06:00:00:Z","depth":0,"parameterNumber":2,"parameterNumberName":"U-component_of_WINDS"},"data":[0.0,0.0,0.0,0.0,0.0,0.0,0.0,0.0,0.0,0.0,0.0,0.0,0.0,0.0,0.0,0.0,0.0,0.0,0.0,0.0,0.0,0.0,0.0,0.0,0.0,0.0,0.0,0.0,0.0,0.0,0.0,0.0,0.0,0.0,0.0,0.0,0.0,0.0,0.0,0.0,0.0,0.0,0.0,0.0,0.0,0.0,0.0,0.0,0.0,0.0,0.0,0.0,0.0,0.0,0.0,0.0,0.0,0.0,0.0,0.0,0.0,0.0,0.0,0.0,0.0,0.0,0.0,0.0,0.0,0.0,0.0,0.0,0.0,0.0,0.0,0.0,0.0,0.0,0.0,0.0,0.0,0.0,0.0,0.0,0.0,0.0,0.0,0.0,0.0,0.0,0.0,0.0,0.0,0.0,0.0,0.0,0.0,0.0,0.0,0.0,0.0,0.0,0.0,0.0,0.0,0.0,0.0,0.0,0.0,0.0,0.0,0.0,0.0,0.0,0.0,0.0,0.0,0.0,0.0,0.0,0.0,0.0,0.0,0.0,0.0,0.0,0.0,0.0,0.0,0.0,0.0,0.0,0.0,0.0,0.0,0.0,0.0,0.0,0.0,0.0,0.0,0.0,0.0,0.0,0.0,0.0,0.0,0.0,0.0,0.0,0.0,0.0,0.0,0.0,0.0,0.0,0.0,0.0,0.0,0.0,0.0,0.0,0.0,0.0,0.0,0.0,0.0,0.0,0.0,0.0,0.0,0.0,0.0,0.0,0.0,0.0,0.0,0.0,0.0,0.0,0.0,0.0,0.0,0.0,0.0,0.0,0.0,0.0,0.0,0.0,0.0,0.0,0.0,0.0,0.0,0.0,0.0,0.0,0.0,0.0,0.0,0.0,0.0,0.0,0.0,0.0,0.0,0.0,0.0,0.0,0.0,0.0,0.0,0.0,0.0,0.0,0.0,0.0,0.0,0.0,0.0,0.0,0.0,0.0,0.0,0.0,0.0,0.0,0.0,0.0,0.0,0.0,0.0,0.0,0.0,0.0,0.0,0.0,0.0,0.0,0.0,0.0,0.0,0.0,0.0,0.0,0.0,0.0,0.0,0.0,0.0,0.0,0.0,0.0,0.0,0.0,0.0,0.0,0.0,0.0,0.0,0.0,0.0,0.0,0.0,0.0,0.0,0.0,0.0,0.0,0.0,0.0,0.0,0.0,0.0,0.0,0.0,0.0,0.0,0.0,0.0,0.0,0.0,0.0,0.0,0.0,0.0,0.0,0.0,0.0,0.0,0.0,0.0,0.0,0.0,0.0,0.0,0.0,0.0,0.0,0.0,0.0,0.0,0.0,0.0,0.0,0.0,0.0,0.0,0.0,0.0,0.0,0.0,0.0,0.0,0.0,0.0,0.0,0.0,0.0,0.0,0.0,0.0,0.0,0.0,0.0,0.0,0.0,0.0,0.0,0.0,0.0,0.0,0.0,0.0,0.0,0.0,0.0,0.0,0.0,0.0,0.0,0.0,0.0,0.0,0.0,0.0,0.0,0.0,0.0,0.0,0.0,0.0,0.0,0.0,0.0,0.0,0.0,0.0,0.0,0.0,0.0,0.0,0.0,0.0,0.0,0.0,0.0,0.0,0.0,0.0,0.0,0.0,0.0,0.0,0.0,0.0,0.0,0.0,0.0,0.0,0.0,0.0,0.0,0.0,0.0,0.0,0.0,0.0,0.0,0.0,0.0,0.0,0.0,0.0,0.0,0.0,0.0,0.0,0.0,0.0,0.0,0.0,0.0,0.0,0.0,0.0,0.0,0.0,0.0,0.0,0.0,0.0,0.0,0.0,0.0,0.0,0.0,0.0,0.0,0.0,0.0,0.0,0.0,0.0,0.0,0.0,0.0,0.0,0.0,0.0,0.0,0.0,0.0,0.0,0.0,0.0,0.0,0.0,0.0,0.0,0.0,0.0,0.0,0.0,0.0,0.0,0.0,0.0,0.0,0.0,0.0,0.0,0.0,0.0,0.0,0.0,0.0,0.0,0.0,0.0,0.0,0.0,0.0,0.0,0.0,0.0,0.0,0.0,0.0,0.0,0.0,0.0,0.0,0.0,0.0,0.0,0.0,0.0,0.0,0.0,0.0,0.0,0.0,0.0,0.0,0.0,0.0,0.0,0.0,0.0,0.0,0.0,0.0,0.0,0.0,0.0,0.0,0.0,0.0,0.0,0.0,0.0,0.0,0.0,0.0,0.0,0.0,0.0,0.0,0.0,0.0,0.0,0.0,0.0,0.0,0.0,0.0,0.0,0.0,0.0,0.0,0.0,0.0,0.0,0.0,0.0,0.0,0.0,0.0,0.0,0.0,0.0,0.0,0.0,0.0,0.0,0.0,0.0,0.0,0.0,0.0,0.0,0.0,0.0,0.0,0.0,0.0,0.0,0.0,0.0,0.0,0.0,0.0,0.0,0.0,0.0,0.0,0.0,0.0,0.0,0.0,0.0,0.0,0.0,0.0,0.0,0.0,0.0,0.0,0.0,0.0,0.0,0.0,0.0,0.0,0.0,0.0,0.0,0.0,0.0,0.0,0.0,0.0,0.0,0.0,0.0,0.0,0.0,0.0,0.0,0.0,0.0,0.0,0.0,0.0,0.0,0.0,0.0,0.0,0.0,0.0,0.0,0.0,0.0,0.0,0.0,0.0,0.0,0.0,0.0,0.0,0.0,0.0,0.0,0.0,0.0,0.0,0.0,0.0,0.0,0.0,0.0,0.0,0.0,0.0,0.0,0.0,0.0,0.0,0.0,0.0,0.0,0.0,0.0,0.0,0.0,0.0,0.0,0.0,0.0,0.0,0.0,0.0,0.0,0.0,0.0,0.0,0.0,0.0,0.0,0.0,0.0,0.0,0.0,0.0,0.0,0.0,0.0,0.0,0.0,0.0,0.0,0.0,0.0,0.0,0.0,0.0,0.0,0.0,0.0,0.0,0.0,0.0,0.0,0.0,0.0,0.0,0.0,0.0,0.0,0.0,0.0,0.0,0.0,0.0,0.0,0.0,0.0,0.0,0.0,0.0,0.0,0.0,0.0,0.0,0.0,0.0,0.0,0.0,0.0,0.0,0.0,0.0,0.0,0.0,0.0,0.0,0.0,0.0,0.0,0.0,0.0,0.0,0.0,0.0,0.0,0.0,0.0,0.0,0.0,0.0,0.0,0.0,0.0,0.0,0.0,0.0,0.0,0.0,0.0,0.0,0.0,0.0,0.0,0.0,0.0,0.0,0.0,0.0,0.0,0.0,0.0,0.0,0.0,0.0,0.0,0.0,0.0,0.0,0.0,0.0,0.0,0.0,0.0,0.0,0.0,0.0,0.0,0.0,0.0,0.0,0.0,0.0,0.0,0.0,0.0,0.0,0.0,0.0,0.0,0.0,0.0,0.0,0.0,0.0,0.0,0.0,0.0,0.0,0.0,0.0,0.0,0.0,0.0,0.0,0.0,0.0,0.0,0.0,0.0,0.0,0.0,0.0,0.0,0.0,0.0,0.0,0.0,0.0,0.0,0.0,0.0,0.0,0.0,0.0,0.0,0.0,0.0,0.0,0.0,0.0,0.0,0.0,0.0,0.0,0.0,0.0,0.0,0.0,0.0,0.0,0.0,0.0,0.0,0.0,0.0,0.0,0.0,0.0,0.0,0.0,0.0,0.0,0.0,0.0,0.0,0.0,0.0,0.0,0.0,0.0,0.0,0.0,0.0,0.0,0.0,0.0,0.0,0.0,0.0,0.0,0.0,0.0,0.0,0.0,0.0,0.0,0.0,0.0,0.0,0.0,0.0,0.0,0.0,0.0,0.0,0.0,0.0,0.0,0.0,0.0,0.0,0.0,0.0,0.0,0.0,0.0,0.0,0.0,0.0,0.0,0.0,0.0,0.0,0.0,0.0,0.0,0.0,0.0,0.0,0.0,0.0,0.0,0.0,0.0,0.0,0.0,0.0,0.0,0.0,0.0,0.0,0.0,0.0,0.0,0.0,0.0,0.0,0.0,0.0,0.0,0.0,0.0,0.0,0.0,0.0,0.0,0.0,0.0,0.0,0.0,0.0,0.0,0.0,0.0,0.0,0.0,0.0,0.0,0.0,0.0,0.0,0.0,0.0,0.0,0.0,0.0,0.0,0.0,0.0,0.0,0.0,0.0,0.0,0.0,0.0,0.0,0.0,0.0,0.0,0.0,0.0,0.0,0.0,0.0,0.0,0.0,0.0,0.0,0.0,0.0,0.0,0.0,0.0,0.0,0.0,0.0,0.0,0.0,0.0,0.0,0.0,0.0,0.0,0.0,0.0,0.0,0.0,0.0,0.0,0.0,0.0,0.0,0.0,0.0,0.0,0.0,0.0,0.0,0.0,0.0,0.0,0.0,0.0,0.0,0.0,0.0,0.0,0.0,0.0,0.0,0.0,0.0,0.0,0.0,0.0,0.0,0.0,0.0,0.0,0.0,0.0,0.0,0.0,0.0,0.0,0.0,0.0,0.0,0.0,0.0,0.0,0.0,0.0,0.0,0.0,0.0,0.0,0.0,0.0,0.0,0.0,0.0,0.0,0.0,0.0,0.0,0.0,0.0,0.0,0.0,0.0,0.0,0.0,0.0,0.0,0.0,0.0,0.0,0.0,0.0,0.0,0.0,0.0,0.0,0.0,0.0,0.0,0.0,0.0,0.0,0.0,0.0,0.0,0.0,0.0,0.0,0.0,0.0,0.0,0.0,0.0,0.0,0.0,0.0,0.0,0.0,0.0,0.0,0.0,0.0,0.0,0.0,0.0,0.0,0.0,0.0,0.0,0.0,0.0,0.0,0.0,0.0,0.0,0.0,0.0,0.0,0.0,0.0,0.0,0.0,0.0,0.0,0.0,0.0,0.0,0.0,0.0,0.0,0.0,0.0,0.0,0.0,0.0,0.0,0.0,0.0,0.0,0.0,0.0,0.0,0.0,0.0,0.0,0.0,0.0,0.0,0.0,0.0,0.0,0.0,0.0,0.0,0.0,0.0,0.0,0.0,0.0,0.0,0.0,0.0,0.0,0.0,0.0,0.0,0.0,0.0,0.0,0.0,0.0,0.0,0.0,0.0,0.0,0.0,0.0,0.0,0.0,0.0,0.0,0.0,0.0,0.0,0.0,0.0,0.0,0.0,0.0,0.0,0.0,0.0,0.0,0.0,0.0,0.0,0.0,0.0,0.0,0.0,0.0,0.0,0.0,0.0,0.0,0.0,0.0,0.0,0.0,0.0,0.0,0.0,0.0,0.0,0.0,0.0,0.0,0.0,0.0,0.0,0.0,0.0,0.0,0.0,0.0,0.0,0.0,0.0,0.0,0.0,0.0,0.0,0.0,0.0,0.0,0.0,0.0,0.0,0.0,0.0,0.0,0.0,0.0,0.0,0.0,0.0,0.0,0.0,0.0,0.0,0.0,0.0,0.0,0.0,0.0,0.0,0.0,0.0,0.0,0.0,0.0,0.0,0.0,0.0,0.0,0.0,0.0,0.0,0.0,0.0,0.0,0.0,0.0,0.0,0.0,0.0,0.0,0.0,0.0,0.0,0.0,0.0,0.0,0.0,0.0,0.0,0.0,0.0,0.0,0.0,0.0,0.0,0.0,0.0,0.0,0.0,0.0,0.0,0.0,0.0,0.0,0.0,0.0,0.0,0.0,0.0,0.0,0.0,0.0,0.0,0.0,0.0,0.0,0.0,0.0,0.0,0.0,0.0,0.0,0.0,0.0,0.0,0.0,0.0,0.0,0.0,0.0,0.0,0.0,0.0,0.0,0.0,0.0,0.0,0.0,0.0,0.0,0.0,0.0,0.0,0.0,0.0,0.0,0.0,0.0,0.0,0.0,0.0,0.0,0.0,0.0,0.0,0.0,0.0,0.0,0.0,0.0,0.0,0.0,0.0,0.0,0.0,0.0,0.0,0.0,0.0,0.0,0.0,0.0,0.0,0.0,0.0,0.0,0.0,0.0,0.0,0.0,0.0,0.0,0.0,0.0,0.0,0.0,0.0,0.0,0.0,0.0,0.0,0.0,0.0,0.0,0.0,0.0,0.0,0.0,0.0,0.0,0.0,0.0,0.0,-1.1792,0.0,0.0,0.0,0.0,0.0,0.0,0.0,0.0,0.0,0.0,0.0,0.0,0.0,0.0,0.0,0.0,0.0,0.0,0.0,0.0,0.0,0.0,0.0,0.0,0.0,0.0,0.0,0.0,0.0,0.0,0.0,0.0,0.0,0.0,0.0,0.0,0.0,0.0,0.0,0.0,0.0,0.0,0.0,0.0,0.0,0.0,0.0,0.0,0.0,0.0,0.0,0.0,0.0,0.0,0.0,0.0,0.0,0.0,0.0,0.0,0.0,0.0,0.0,0.0,0.0,0.0,0.0,0.0,0.0,0.0,0.0,0.0,0.0,0.0,0.0,0.0,0.0,0.0,0.0,0.0,0.0,0.0,0.0,0.0,0.0,0.0,0.0,0.0,0.0,0.0,0.0,0.0,0.0,0.0,0.0,0.0,0.0,0.0,0.0,0.0,0.0,0.0,0.0,0.0,0.0,0.0,0.0,0.0,0.0,0.0,0.0,0.0,0.0,0.0,0.0,0.0,-1.1909,0.0,0.0,0.0,0.0,0.0,0.0,0.0,0.0,0.0,0.0,0.0,0.0,0.0,0.0,0.0,0.0,0.0,0.0,0.0,0.0,0.0,0.0,0.0,0.0,0.0,0.0,0.0,0.0,0.0,0.0,0.0,0.0,0.0,0.0,0.0,0.0,0.0,0.0,0.0,0.0,0.0,0.0,0.0,0.0,0.0,0.0,0.0,0.0,0.0,0.0,0.0,0.0,0.0,0.0,0.0,0.0,0.0,0.0,0.0,0.0,0.0,0.0,0.0,0.0,0.0,0.0,0.0,0.0,0.0,0.0,0.0,0.0,0.0,0.0,0.0,0.0,0.0,0.0,0.0,0.0,0.0,0.0,0.0,0.0,0.0,0.0,0.0,0.0,0.0,0.0,0.0,0.0,0.0,0.0,0.0,0.0,0.0,0.0,0.0,0.0,0.0,0.0,0.0,0.0,0.0,0.0,0.0,0.0,-0.8166,-0.8268,-0.8458,-0.8495,-0.8746,-0.9132,-1.0024,-1.0925,-1.1781,0.0,0.0,0.0,0.0,0.0,0.0,0.0,0.0,0.0,0.0,0.0,0.0,0.0,0.0,0.0,0.0,0.0,0.0,0.0,0.0,0.0,0.0,0.0,0.0,0.0,0.0,0.0,0.0,0.0,0.0,0.0,0.0,0.0,0.0,0.0,0.0,0.0,0.0,0.0,-1.1781,-1.1781,-1.1892,-1.212,-1.2489,0.0,0.0,0.0,0.0,0.0,0.0,0.0,0.0,0.0,0.0,0.0,0.0,0.0,0.0,0.0,0.0,0.0,0.0,0.0,0.0,0.0,0.0,0.0,0.0,0.0,0.0,0.0,0.0,0.0,0.0,0.0,0.0,0.0,0.0,0.0,0.0,0.0,0.0,0.0,0.0,0.0,0.0,0.0,-0.7607,-0.7039,0.0,0.0,0.0,0.0,0.0,0.0,0.0,0.0,0.0,0.0,0.0,0.0,0.0,-0.6726,-0.6476,-0.6912,-0.7179,-0.7204,-0.7204,-0.7264,-0.7405,-0.7773,-0.8047,-0.8293,-0.878,0.0,-1.1706,-1.1848,0.0,0.0,0.0,0.0,0.0,0.0,0.0,0.0,0.0,0.0,0.0,0.0,0.0,0.0,0.0,0.0,0.0,0.0,0.0,0.0,0.0,0.0,0.0,0.0,0.0,0.0,0.0,0.0,0.0,0.0,0.0,0.0,0.0,0.0,0.0,0.0,-1.1632,-1.1706,-1.1706,-1.1248,-1.1056,-1.1168,-1.1354,-1.1805,-1.2415,-1.204,0.0,0.0,0.0,0.0,0.0,0.0,0.0,0.0,0.0,0.0,0.0,0.0,0.0,0.0,0.0,0.0,0.0,0.0,0.0,0.0,0.0,0.0,0.0,0.0,0.0,0.0,0.0,0.0,0.0,0.0,0.0,0.0,0.0,0.0,0.0,0.0,0.0,0.0,0.0,-0.72,-0.6619,-0.6037,-0.5945,-0.5976,0.0,0.0,0.0,0.0,0.0,0.0,0.0,0.0,0.0,-0.5582,-0.5644,-0.5747,-0.5854,-0.6408,-0.6788,-0.6988,-0.6988,-0.7135,-0.737,-0.7555,-0.7791,-0.8102,-0.8293,-0.9458,-1.1186,-1.1186,-1.1966,-1.3193,0.0,0.0,0.0,0.0,-1.4294,-1.4294,0.0,0.0,0.0,0.0,0.0,0.0,0.0,0.0,0.0,0.0,0.0,0.0,0.0,0.0,0.0,-1.3273,0.0,0.0,0.0,0.0,0.0,0.0,0.0,0.0,0.0,0.0,0.0,-1.0844,-1.1031,-1.1031,-1.0832,-1.0228,-1.0034,-1.0121,-1.0346,-1.0832,-1.1515,-1.1105,-1.1217,0.0,0.0,0.0,0.0,0.0,0.0,0.0,0.0,0.0,0.0,0.0,0.0,0.0,0.0,0.0,0.0,0.0,0.0,0.0,0.0,0.0,0.0,0.0,0.0,0.0,0.0,0.0,0.0,0.0,0.0,0.0,0.0,0.0,0.0,0.0,0.0,0.0,0.0,-0.619,-0.5632,-0.4819,-0.472,-0.4661,0.0,0.0,0.0,0.0,0.0,0.0,-0.5521,-0.4459,-0.4272,-0.5376,-0.5105,-0.5155,-0.5633,-0.6146,-0.6516,-0.6809,-0.6809,-0.6968,-0.7263,-0.7339,-0.7558,-0.7872,-0.814,-0.9117,-1.0582,-1.0738,-1.1632,-1.29,-1.29,-1.29,-1.2936,-1.3083,-1.3119,-1.3119,0.0,0.0,0.0,0.0,0.0,0.0,0.0,0.0,0.0,0.0,0.0,0.0,0.0,0.0,-1.2298,-1.2114,-1.1335,-1.0775,0.0,0.0,0.0,0.0,0.0,0.0,0.0,0.0,0.0,-0.941,-0.941,-0.9145,-0.8566,-0.8533,-0.8727,-0.9112,-0.9873,-0.9949,-0.9485,-1.0228,-1.0228,-0.9782,0.0,0.0,0.0,0.0,0.0,0.0,0.0,0.0,0.0,0.0,0.0,0.0,0.0,0.0,0.0,0.0,0.0,0.0,0.0,0.0,0.0,0.0,0.0,0.0,0.0,0.0,0.0,0.0,0.0,0.0,0.0,0.0,0.0,0.0,0.0,0.0,0.0,0.0,0.0,-0.312,-0.2877,0.0,0.0,0.0,0.0,-0.3013,-0.2883,-0.2954,-0.3326,-0.3293,-0.3738,-0.4809,-0.5124,-0.5427,-0.5776,-0.6133,-0.6322,-0.6337,-0.6337,-0.643,-0.6637,-0.6857,-0.7058,-0.73,-0.8246,-0.915,-1.0008,-1.0545,-1.1632,-1.29,-1.29,-1.29,-1.29,-1.29,-1.2936,-1.2936,0.0,0.0,0.0,0.0,0.0,0.0,0.0,0.0,0.0,0.0,0.0,0.0,0.0,-1.1848,-1.126,-1.1037,-1.0775,-1.0588,-1.0513,0.0,0.0,0.0,0.0,0.0,0.0,0.0,-0.8803,-0.8537,-0.8537,-0.8423,-0.8194,-0.7663,-0.7521,-0.7663,-0.7961,-0.771,-0.7175,-0.8983,-0.9593,-0.941,-0.9286,-0.9626,0.0,0.0,0.0,0.0,0.0,0.0,0.0,0.0,0.0,0.0,0.0,0.0,0.0,0.0,0.0,0.0,0.0,0.0,0.0,0.0,0.0,0.0,0.0,0.0,0.0,0.0,0.0,0.0,0.0,0.0,0.0,0.0,0.0,0.0,0.0,0.0,0.0,-0.3508,-0.3004,0.0,0.0,-0.2654,-0.2519,-0.288,-0.256,-0.2725,-0.3543,-0.3467,-0.3728,-0.4441,-0.5086,-0.5503,-0.5591,-0.6054,-0.6356,-0.65,-0.65,-0.666,-0.6977,-0.6931,-0.7076,-0.7446,-0.8199,-0.9026,-0.997,-1.0694,-1.1595,-1.2526,-1.2526,-1.2526,-1.2526,-1.2673,-1.2709,-1.2716,0.0,0.0,0.0,0.0,0.0,0.0,0.0,0.0,0.0,0.0,0.0,-1.2285,-1.1669,-1.1111,-1.07,-1.0406,-1.04,-1.0368,-1.0293,0.0,0.0,0.0,-1.0024,0.0,0.0,-0.8156,-0.7736,-0.7468,-0.7468,-0.7321,-0.7075,-0.6547,-0.631,-0.6379,-0.6709,-0.6433,-0.5817,-0.774,-0.8445,-0.8285,-0.8129,-0.8548,-0.9291,0.0,0.0,0.0,0.0,0.0,0.0,0.0,0.0,0.0,0.0,0.0,0.0,0.0,0.0,0.0,0.0,0.0,0.0,0.0,0.0,0.0,0.0,0.0,0.0,0.0,0.0,0.0,0.0,0.0,0.0,0.0,0.0,0.0,0.0,0.0,-0.4059,-0.3658,-0.3318,-0.3167,-0.3269,-0.2782,-0.2554,-0.2723,-0.2283,-0.2519,-0.3642,-0.3562,-0.3937,-0.4958,-0.5444,-0.5725,-0.5885,-0.614,-0.6378,-0.6486,-0.6486,-0.6654,-0.6876,-0.683,-0.6942,-0.7249,-0.8042,-0.8799,-0.9475,-1.0619,-1.1409,-1.1929,-1.2194,-1.2305,-1.2335,-1.2452,-1.2489,-1.2526,0.0,0.0,0.0,0.0,0.0,0.0,0.0,0.0,0.0,0.0,-1.2365,-1.1892,-1.0887,-1.0775,-1.0625,-1.0218,-1.018,-1.0105,-0.9884,-0.9544,0.0,0.0,0.0,0.0,-0.7464,-0.7425,-0.7003,-0.6163,-0.6163,-0.5784,-0.5093,-0.5093,-0.5177,-0.5342,-0.6309,-0.6273,-0.5555,-0.654,-0.6708,-0.6348,-0.7155,-0.7816,-0.8438,0.0,0.0,0.0,0.0,0.0,0.0,0.0,0.0,0.0,0.0,0.0,0.0,0.0,0.0,0.0,0.0,0.0,0.0,0.0,0.0,0.0,0.0,0.0,0.0,0.0,0.0,0.0,0.0,0.0,0.0,0.0,0.0,0.0,-0.4061,-0.4331,-0.4231,-0.3364,-0.3687,-0.3851,-0.3461,-0.3149,-0.2835,-0.2474,-0.2005,-0.2261,-0.3457,-0.3536,-0.4384,-0.6217,-0.6119,-0.6194,-0.6613,-0.643,-0.6313,-0.6313,-0.631,-0.6306,-0.6306,-0.649,-0.6602,-0.6676,-0.7851,-0.8418,-0.8571,-1.0351,-1.1111,-1.1223,-1.2003,-1.2305,-1.2305,-1.2305,-1.2305,-1.2342,0.0,0.0,0.0,0.0,0.0,0.0,0.0,0.0,0.0,0.0,-1.144,-1.1223,-1.0625,-1.0588,-1.0406,-1.003,-0.9992,-0.9846,-0.9473,0.0,0.0,0.0,0.0,0.0,-0.6546,-0.5973,-0.5553,-0.5323,-0.5323,-0.5229,-0.5043,-0.5043,-0.5088,-0.5149,-0.5442,-0.5539,-0.5512,-0.5688,-0.5831,-0.5973,-0.6335,-0.6687,-0.7066,0.0,0.0,0.0,0.0,0.0,0.0,0.0,0.0,0.0,0.0,0.0,0.0,0.0,0.0,0.0,0.0,0.0,0.0,0.0,0.0,0.0,0.0,0.0,0.0,0.0,0.0,0.0,0.0,0.0,0.0,0.0,0.0,-0.4285,-0.4403,-0.4026,-0.3937,-0.4451,-0.4277,-0.4204,-0.4341,-0.3254,-0.2764,-0.331,-0.2666,-0.2692,-0.3583,-0.4325,-0.4975,-0.548,-0.6138,-0.6576,-0.6658,-0.662,-0.658,-0.658,-0.6508,-0.6536,-0.6655,-0.6464,-0.6525,-0.6865,-0.7629,-0.8385,-0.9145,-1.0233,-1.1099,-1.1781,-1.2157,-1.2305,-1.2305,-1.2305,-1.2305,-1.2305,0.0,0.0,0.0,0.0,0.0,0.0,0.0,0.0,0.0,0.0,-1.1149,-1.0962,-1.0556,-1.0513,-1.0331,-0.9922,-0.9733,-0.9549,-0.9322,0.0,0.0,0.0,0.0,-0.5931,-0.5586,-0.5049,-0.474,-0.474,-0.482,-0.4833,-0.4786,-0.4862,-0.4912,-0.4939,-0.4975,-0.5155,-0.5369,-0.5396,-0.5515,-0.5715,-0.586,-0.604,-0.6355,-0.7134,-0.7252,-0.7127,-0.8281,-0.8123,-0.745,-0.7899,0.0,0.0,0.0,0.0,0.0,0.0,0.0,0.0,0.0,0.0,0.0,0.0,0.0,0.0,0.0,0.0,0.0,0.0,0.0,0.0,0.0,0.0,0.0,0.0,-0.4834,-0.4562,-0.4858,-0.4499,-0.4436,-0.5035,-0.5009,-0.5015,-0.5231,-0.417,-0.373,-0.4303,-0.3592,-0.3517,-0.4413,-0.5017,-0.5464,-0.5834,-0.6407,-0.6702,-0.6702,-0.6702,-0.6702,-0.6698,-0.661,-0.6651,-0.6732,-0.6496,-0.6503,0.0,-0.7126,-0.7821,-0.8732,-0.9631,-1.0539,0.0,0.0,0.0,0.0,0.0,-1.2305,-1.2305,0.0,0.0,0.0,0.0,0.0,0.0,0.0,0.0,0.0,0.0,0.0,-1.0962,-1.0588,-1.0519,-1.0368,-0.996,-0.9582,-0.9322,0.0,0.0,0.0,-0.575,-0.5741,-0.5428,-0.4701,-0.4501,-0.4384,-0.4384,-0.4582,-0.4609,-0.451,-0.4701,-0.4758,-0.4731,-0.4843,-0.5022,-0.5234,-0.5406,-0.5545,-0.5602,-0.5603,-0.5762,-0.6079,-0.6307,-0.6497,-0.6683,-0.6912,-0.7094,-0.7196,-0.7196,0.0,0.0,0.0,0.0,0.0,0.0,0.0,0.0,0.0,0.0,0.0,0.0,0.0,0.0,0.0,0.0,0.0,0.0,0.0,0.0,0.0,0.0,0.0,0.0,-0.5047,-0.4965,-0.5342,-0.5409,-0.5416,-0.54,-0.5778,-0.602,-0.602,-0.5416,-0.5109,-0.5339,-0.4629,-0.4594,-0.5601,0.0,0.0,0.0,0.0,-0.6749,-0.6749,-0.6749,-0.6749,-0.6749,-0.6732,-0.6725,-0.6722,-0.6566,-0.6528,-0.6504,-0.6645,-0.7192,-0.7974,-0.896,-0.9868,-1.0738,-1.1632,-1.2114,-1.2305,-1.2305,-1.2305,-1.2305,0.0,0.0,0.0,0.0,0.0,0.0,0.0,0.0,0.0,-1.1446,-1.1223,-1.0999,-1.0775,-1.0594,-1.04,-1.0143,-0.9916,-0.9506,0.0,0.0,-0.6822,-0.6128,-0.5356,-0.4854,-0.4701,-0.4501,-0.4384,-0.4384,-0.4423,-0.453,-0.4668,-0.4707,-0.4812,-0.4947,-0.4986,-0.5098,-0.5278,-0.5364,-0.5526,-0.5662,-0.5614,-0.5631,-0.5723,-0.61,-0.6325,-0.651,-0.6864,-0.7012,-0.7041,-0.7041,-0.7061,-0.709,-0.709,0.0,0.0,0.0,0.0,0.0,0.0,0.0,0.0,0.0,0.0,0.0,0.0,0.0,0.0,0.0,0.0,0.0,0.0,0.0,0.0,-0.5641,-0.5275,-0.5172,-0.5794,-0.6016,-0.6049,-0.5888,-0.6084,-0.6255,-0.6255,-0.5595,-0.5479,-0.6187,-0.5598,-0.5584,-0.6405,-0.6561,0.0,-0.6842,-0.6953,-0.7011,-0.7011,-0.7011,-0.7011,-0.7011,0.0,0.0,-0.6836,-0.6725,-0.6586,-0.6551,-0.7189,-0.7879,-0.8585,-0.9425,-1.0438,-1.1484,-1.1855,-1.2114,-1.2305,-1.2305,-1.2305,-1.2305,0.0,0.0,0.0,0.0,0.0,0.0,0.0,0.0,0.0,0.0,-1.1372,-1.1111,-1.07,-1.055,-1.0368,-1.0067,-0.9771,0.0,0.0,-0.7476,-0.6707,-0.6202,-0.5121,-0.4543,-0.4543,-0.4268,-0.4112,-0.4112,-0.4307,-0.4462,-0.4543,-0.474,-0.4898,-0.5018,-0.5018,-0.5129,-0.5315,-0.5331,-0.549,-0.5706,-0.5607,-0.5572,-0.5606,-0.5809,-0.6011,-0.6191,-0.6481,-0.6706,-0.6861,-0.6861,-0.6918,-0.6988,-0.6988,-0.6988,-0.6988,0.0,0.0,0.0,0.0,0.0,0.0,0.0,0.0,0.0,0.0,0.0,0.0,0.0,0.0,-0.5974,0.0,0.0,-0.5429,-0.5829,-0.5672,-0.5638,-0.6094,-0.6252,-0.6272,-0.6156,-0.6252,-0.6327,-0.6399,-0.6069,-0.6087,-0.6647,-0.6389,-0.6414,-0.6873,-0.695,-0.6991,-0.6991,-0.7058,-0.7095,-0.7095,-0.7095,-0.7095,-0.7095,-0.7024,-0.6991,-0.6987,-0.6881,-0.7021,-0.7428,-0.7866,-0.8599,-0.954,-1.0338,-1.1111,-1.1855,-1.1966,-1.2114,-1.2305,-1.2305,-1.2305,-1.2305,0.0,0.0,0.0,0.0,0.0,0.0,0.0,0.0,0.0,0.0,-1.1558,-1.1223,-1.0738,-1.0625,-1.04,0.0,0.0,0.0,0.0,-0.7625,-0.6938,-0.624,-0.5234,-0.4616,-0.4462,-0.4112,-0.3919,-0.3919,-0.4229,-0.4423,-0.4462,-0.4779,-0.4976,-0.5018,-0.5018,-0.5093,-0.5243,-0.5323,-0.549,-0.5676,-0.5586,-0.5593,-0.5648,-0.5591,-0.5686,-0.5888,-0.6115,-0.6376,-0.6605,-0.6643,-0.6733,-0.6882,-0.6882,-0.6882,-0.6882,-0.6882,-0.6882,0.0,0.0,0.0,0.0,0.0,0.0,0.0,0.0,0.0,-0.6133,-0.5803,-0.5791,-0.5832,-0.5797,-0.5816,-0.5884,-0.5973,-0.6016,-0.6118,-0.6282,-0.63,-0.63,-0.63,-0.6323,-0.6385,-0.6501,-0.6566,-0.6664,-0.6866,-0.691,-0.6977,-0.7092,-0.7095,-0.7095,-0.7095,-0.7095,-0.7095,-0.7095,-0.7095,-0.7095,-0.7095,-0.7095,-0.7095,-0.7092,-0.7194,-0.759,-0.834,-0.8695,-0.9507,-1.0717,-1.1295,-1.1706,-1.2003,-1.204,-1.2157,-1.2305,-1.2305,-1.2305,-1.2305,0.0,0.0,0.0,0.0,0.0,0.0,0.0,0.0,0.0,0.0,0.0,0.0,0.0,0.0,0.0,0.0,0.0,0.0,-0.8699,-0.8546,-0.7817,-0.6279,-0.5886,-0.5389,-0.4698,-0.4462,-0.4345,-0.4345,-0.4384,-0.4501,-0.4659,-0.4701,-0.4818,-0.5018,-0.5018,-0.5018,-0.5054,-0.5404,-0.5589,-0.563,-0.5735,-0.5757,-0.5745,-0.5501,-0.5521,-0.5683,-0.6079,-0.6226,-0.6279,-0.6382,-0.6465,-0.6477,-0.6477,-0.6477,-0.6477,-0.6477,0.0,-0.6477,-0.6477,-0.6291,-0.6139,-0.6222,-0.6247,-0.6083,0.0,0.0,-0.6139,-0.5346,-0.5639,-0.5997,-0.5847,-0.5901,-0.5973,-0.599,-0.6146,-0.6279,-0.6296,-0.63,-0.63,-0.63,-0.6412,-0.6494,-0.6511,-0.6719,-0.6849,-0.6883,-0.7001,-0.7082,-0.7095,-0.7095,-0.7095,-0.7095,-0.7095,-0.7095,-0.7095,-0.7095,-0.7095,-0.7095,-0.7095,-0.7095,-0.7139,-0.7954,-0.8296,-0.8378,-0.9767,-1.0996,-1.1979,-1.1946,-1.1966,-1.2003,-1.2187,-1.2268,-1.2305,-1.2305,-1.2305,-1.2305,0.0,0.0,0.0,0.0,0.0,0.0,0.0,0.0,0.0,0.0,0.0,0.0,0.0,0.0,0.0,0.0,0.0,-1.0105,-0.976,-0.9301,-0.8689,-0.7851,-0.6692,-0.5844,-0.5428,-0.4732,-0.4384,-0.4384,-0.4501,-0.4621,-0.4701,-0.4818,-0.4937,-0.5018,-0.5132,-0.5168,-0.5201,-0.5399,-0.5553,-0.5642,-0.5617,-0.5709,-0.579,-0.5709,-0.5723,-0.5785,-0.5954,-0.6148,0.0,0.0,-0.6387,-0.6387,-0.6387,-0.6387,-0.6387,-0.6387,-0.6387,0.0,-0.5785,-0.5984,0.0,0.0,-0.5918,-0.6143,-0.5876,-0.5949,-0.5949,-0.5582,-0.5794,-0.6012,-0.5935,-0.6061,-0.6166,0.0,-0.6255,-0.63,-0.63,-0.63,-0.63,-0.63,-0.6504,-0.6607,-0.6607,-0.68,-0.692,-0.7001,-0.7061,-0.7095,-0.7095,-0.7095,-0.7095,-0.7095,-0.7095,-0.7095,-0.7095,-0.7095,-0.7095,-0.7095,-0.7095,-0.7404,-0.7929,-0.8324,-0.9235,-1.0512,-1.156,-1.2301,-1.2772,-1.2419,-1.2234,-1.2187,-1.2268,-1.2305,-1.2305,-1.2305,-1.2305,-1.2305,0.0,0.0,0.0,0.0,0.0,0.0,0.0,0.0,0.0,0.0,0.0,0.0,0.0,0.0,0.0,0.0,0.0,-1.055,-1.0513,-0.9943,-0.9453,-0.9112,-0.757,-0.6538,-0.6195,-0.5157,-0.4657,-0.4735,-0.4781,-0.4845,-0.4884,-0.5007,-0.507,-0.5067,-0.5217,-0.529,-0.5284,-0.5454,-0.5596,-0.5718,-0.5688,-0.5759,-0.5875,-0.5885,-0.5921,-0.5987,-0.5987,-0.6152,0.0,0.0,-0.6387,-0.6387,-0.6387,-0.6387,-0.6387,-0.6387,-0.6387,-0.6251,-0.562,0.0,0.0,-0.562,-0.5852,-0.6254,-0.618,-0.6135,-0.6086,-0.5949,-0.6057,-0.6167,-0.6095,-0.6183,0.0,-0.63,-0.63,-0.63,-0.63,-0.63,-0.6313,-0.6354,-0.6542,-0.6715,-0.6759,-0.6856,-0.6987,-0.7088,-0.7095,-0.7095,-0.7095,-0.7095,-0.7095,-0.7095,-0.7095,-0.7095,-0.7095,-0.7095,-0.7095,-0.7095,-0.736,-0.7841,-0.854,-0.9109,-1.0496,-1.2473,-1.2891,-1.311,-1.3186,-1.2757,-1.2459,-1.2305,-1.2305,-1.2305,-1.2305,-1.2305,-1.2305,-1.2305,0.0,0.0,0.0,0.0,0.0,0.0,0.0,0.0,0.0,0.0,0.0,0.0,0.0,0.0,0.0,0.0,0.0,-1.07,-1.0519,-1.0481,-1.0099,-0.9334,-0.8499,-0.7663,-0.6899,-0.5822,-0.5359,-0.5559,-0.5234,-0.517,-0.5361,-0.5265,-0.5201,-0.5201,-0.5201,-0.5204,-0.5237,-0.563,-0.5806,-0.5832,-0.5996,-0.6073,-0.6089,-0.5955,-0.602,-0.6178,-0.6178,0.0,0.0,0.0,-0.6387,-0.6387,-0.6387,-0.6387,0.0,-0.6387,-0.6387,0.0,0.0,0.0,-0.6247,-0.6317,-0.6378,-0.6402,-0.6409,-0.6627,-0.6752,-0.6348,-0.6442,-0.6518,-0.6331,-0.6296,-0.63,-0.63,-0.63,-0.63,-0.63,-0.63,-0.6351,-0.6491,-0.6603,-0.6759,0.0,-0.7007,-0.7092,-0.7095,-0.7095,-0.7095,-0.7095,-0.7095,-0.7095,-0.7095,-0.7095,-0.7095,-0.7095,-0.7095,-0.7095,-0.7095,-0.8017,-0.8456,-0.8588,-1.0631,-1.2357,-1.3633,-1.3396,-1.3278,-1.3186,-1.2911,-1.261,-1.2305,-1.2305,-1.2305,-1.2305,-1.2305,-1.2305,-1.2305,0.0,0.0,0.0,0.0,0.0,0.0,0.0,0.0,0.0,0.0,0.0,0.0,0.0,0.0,0.0,0.0,0.0,0.0,0.0,-1.1298,-1.1105,-1.0694,-0.9782,-0.8874,-0.7927,-0.6896,-0.6096,-0.5598,-0.5476,-0.5452,-0.5529,-0.5483,-0.5413,-0.5362,-0.562,-0.5679,-0.5614,-0.5874,-0.601,-0.5996,-0.6105,-0.6171,-0.6163,-0.6209,-0.6284,-0.6317,0.0,0.0,0.0,0.0,0.0,0.0,-0.6387,0.0,0.0,-0.6387,0.0,0.0,0.0,0.0,-0.635,-0.6383,-0.6386,-0.6441,-0.6522,-0.6615,-0.669,-0.6681,-0.6751,-0.6753,-0.6525,-0.6486,-0.6451,-0.6338,-0.63,-0.63,-0.63,-0.63,-0.6317,-0.6364,-0.6549,0.0,0.0,0.0,0.0,-0.7095,-0.7095,-0.7095,-0.7095,-0.7095,-0.7095,-0.7095,-0.7095,-0.7095,-0.7095,-0.7095,-0.7404,-0.8061,-0.9628,-1.0453,-1.0674,-1.2143,-1.3137,-1.3688,-1.3807,-1.3579,-1.32,-1.3093,-1.2759,-1.2305,-1.2305,-1.2305,-1.2372,-1.2915,-1.3098,-1.3025,0.0,0.0,0.0,0.0,0.0,0.0,0.0,0.0,0.0,0.0,0.0,0.0,0.0,0.0,0.0,0.0,0.0,0.0,0.0,-1.1706,-1.1632,-1.1521,-1.0608,-0.9777,-0.9069,-0.8042,-0.721,-0.6585,-0.6242,-0.6066,-0.6054,-0.5793,-0.567,-0.5657,-0.5912,-0.604,-0.6011,-0.6237,-0.6297,-0.6325,-0.6451,-0.6501,-0.6501,-0.6573,-0.657,0.0,0.0,0.0,0.0,0.0,0.0,0.0,0.0,0.0,0.0,0.0,0.0,0.0,0.0,-0.6284,-0.6329,-0.6397,-0.6511,-0.6651,-0.6793,-0.6855,-0.6931,-0.7,-0.6931,-0.687,-0.6742,-0.659,-0.6457,-0.6405,-0.6335,-0.63,-0.63,-0.63,-0.632,-0.6368,-0.6552,0.0,0.0,0.0,0.0,-0.7095,-0.7095,-0.7095,-0.7095,-0.7095,-0.7095,-0.7095,-0.7095,-0.7095,-0.7095,-0.7448,-0.8233,-0.9501,-1.0804,-1.1757,-1.2314,-1.3137,-1.361,-1.3864,-1.4046,-1.3814,-1.336,-1.351,-1.3324,-1.2885,-1.3068,-1.3127,-1.3164,-1.3709,-1.389,-1.3818,0.0,0.0,0.0,0.0,0.0,0.0,0.0,0.0,0.0,0.0,0.0,0.0,0.0,0.0,0.0,0.0,0.0,0.0,0.0,-1.1744,-1.1744,-1.1744,-1.0981,-1.0458,-1.0255,-0.9291,-0.866,-0.8355,-0.7467,-0.7017,-0.7012,-0.6291,-0.6072,-0.6251,-0.6216,-0.6316,-0.6484,-0.6706,-0.6746,-0.6746,-0.6992,-0.7059,-0.7023,-0.7059,0.0,0.0,0.0,0.0,0.0,0.0,0.0,0.0,0.0,0.0,0.0,0.0,0.0,-0.6148,-0.5954,-0.605,-0.6254,-0.6367,-0.6713,-0.7037,-0.7183,-0.7358,-0.7446,-0.7246,-0.7036,-0.6925,0.0,0.0,-0.6371,-0.6563,-0.6409,-0.63,-0.63,-0.63,-0.6351,0.0,0.0,0.0,0.0,0.0,0.0,-0.7095,0.0,-0.7095,-0.7095,-0.7095,-0.7095,-0.7095,-0.7095,-0.7139,-0.7183,-0.8149,-0.9545,-1.1322,-1.1628,-1.2363,-1.3434,-1.361,-1.3864,-1.4088,-1.4088,-1.3908,-1.3675,-1.4112,-1.417,-1.3992,-1.4439,-1.4601,-1.4601,-1.4637,-1.4673,-1.4673,0.0,0.0,0.0,0.0,0.0,0.0,0.0,0.0,0.0,0.0,0.0,0.0,0.0,0.0,0.0,0.0,0.0,0.0,0.0,0.0,-1.2305,-1.215,0.0,0.0,0.0,0.0,0.0,-0.906,-0.8797,-0.8693,-0.8683,-0.8496,-0.837,-0.8297,-0.7797,-0.7573,-0.754,-0.7726,-0.7486,-0.7023,0.0,-0.7978,-0.7491,0.0,0.0,0.0,0.0,0.0,0.0,0.0,0.0,0.0,0.0,0.0,-0.5591,0.0,0.0,-0.6112,-0.5782,-0.6017,-0.6394,-0.6579,-0.6822,-0.7037,-0.7183,-0.7358,-0.7447,-0.7242,-0.7141,-0.7048,0.0,0.0,0.0,-0.6375,-0.6336,0.0,-0.63,-0.63,0.0,0.0,0.0,-0.6715,-0.6756,-0.6947,0.0,0.0,-0.7095,-0.7095,-0.7095,-0.7095,-0.7095,-0.7095,-0.7095,-0.7448,-0.8149,-0.9975,-1.1106,-1.1628,-1.2534,-1.3179,-1.3652,-1.3695,-1.3864,-1.4088,-1.4088,-1.4104,-1.4145,-1.4248,-1.4343,-1.4431,-1.4561,-1.4601,-1.4673,-1.5251,-1.5471,-1.5578,0.0,0.0,0.0,0.0,0.0,0.0,0.0,0.0,0.0,0.0,0.0,0.0,0.0,0.0,0.0,0.0,0.0,0.0,0.0,0.0,-1.2636,-1.2452,0.0,0.0,0.0,0.0,0.0,0.0,0.0,0.0,-0.9776,-0.9439,-0.9413,-0.9548,-0.9109,-0.8965,-0.9057,-0.9176,0.0,0.0,0.0,0.0,0.0,0.0,0.0,0.0,0.0,0.0,0.0,0.0,0.0,-0.6082,-0.5973,-0.5885,-0.5789,-0.5481,0.0,-0.6079,-0.5517,-0.57,-0.6064,-0.6275,-0.6508,-0.6822,-0.7222,-0.7415,-0.7435,-0.7223,-0.7163,0.0,0.0,0.0,0.0,0.0,0.0,0.0,-0.6289,-0.63,-0.63,0.0,-0.6522,0.0,-0.6702,-0.6923,-0.7095,0.0,-0.7095,-0.7095,-0.7095,-0.7095,-0.7095,-0.7095,-0.7489,-0.8408,-0.9889,-1.1106,-1.1935,-1.2448,-1.3179,-1.361,-1.3695,-1.3822,-1.3955,-1.4088,0.0,-1.4269,-1.4547,-1.4745,-1.5015,-1.533,-1.553,-1.5613,-1.5648,-1.6114,-1.6298,-1.6333,0.0,0.0,0.0,0.0,0.0,0.0,0.0,0.0,0.0,0.0,0.0,0.0,0.0,0.0,0.0,0.0,0.0,0.0,0.0,0.0,0.0,0.0,0.0,0.0,0.0,0.0,0.0,0.0,0.0,0.0,0.0,0.0,0.0,0.0,0.0,0.0,0.0,0.0,0.0,0.0,0.0,0.0,0.0,0.0,0.0,0.0,0.0,0.0,0.0,0.0,-0.721,-0.6561,-0.6405,-0.6304,-0.6218,-0.605,-0.6112,-0.605,-0.5276,-0.5372,-0.5717,-0.5897,-0.6185,-0.6622,-0.7325,-0.7484,-0.7427,-0.7232,0.0,0.0,-0.6926,0.0,-0.6204,-0.6507,0.0,-0.6084,-0.6279,-0.63,-0.63,-0.63,-0.6522,-0.6702,-0.6702,-0.6923,-0.7095,-0.7095,-0.7095,-0.7095,-0.7095,-0.7095,-0.7139,-0.7272,-0.8364,-0.9802,-1.1671,-1.1892,-1.2448,-1.344,-1.3652,-1.3737,-1.3779,-1.3997,-1.4088,-1.4088,0.0,0.0,-1.4911,-1.5312,-1.5826,-1.6316,-1.6756,-1.6908,-1.6908,-1.6908,-1.6908,-1.6908,0.0,0.0,0.0,0.0,0.0,0.0,0.0,0.0,0.0,0.0,0.0,0.0,0.0,0.0,0.0,0.0,0.0,0.0,0.0,0.0,0.0,0.0,0.0,0.0,0.0,0.0,0.0,0.0,0.0,0.0,0.0,0.0,0.0,0.0,0.0,0.0,0.0,0.0,0.0,0.0,0.0,0.0,0.0,0.0,0.0,0.0,0.0,0.0,0.0,0.0,-0.7277,-0.6027,-0.5998,-0.5798,-0.5491,-0.515,-0.558,-0.601,-0.5229,-0.5724,-0.6441,-0.628,-0.6641,-0.7119,-0.7443,-0.7484,0.0,0.0,0.0,-0.6898,-0.6566,-0.6271,0.0,-0.6316,0.0,0.0,0.0,0.0,-0.63,0.0,0.0,0.0,0.0,0.0,0.0,0.0,0.0,-0.7095,-0.7095,-0.7095,-0.7445,-0.8237,-1.0149,-1.1322,-1.1714,-1.279,-1.3434,-1.3652,-1.3913,-1.4046,-1.4046,-1.4088,-1.4088,-1.4088,-1.4088,0.0,-1.5389,-1.5481,-1.6021,-1.679,-1.6866,-1.6908,-1.6908,-1.6908,-1.6908,-1.6908,0.0,0.0,0.0,0.0,0.0,0.0,0.0,0.0,0.0,0.0,0.0,0.0,0.0,0.0,0.0,0.0,0.0,0.0,0.0,0.0,0.0,0.0,0.0,0.0,0.0,0.0,0.0,0.0,0.0,0.0,0.0,0.0,0.0,0.0,0.0,0.0,0.0,0.0,0.0,0.0,0.0,0.0,0.0,0.0,0.0,0.0,0.0,0.0,0.0,0.0,-0.7988,-0.6833,-0.6569,-0.6287,-0.6064,-0.5975,-0.5972,-0.5947,-0.5685,-0.582,-0.606,-0.6282,-0.6614,-0.7003,-0.7387,0.0,0.0,0.0,0.0,-0.6878,-0.6485,0.0,0.0,0.0,0.0,0.0,0.0,0.0,0.0,0.0,0.0,0.0,0.0,0.0,0.0,0.0,0.0,-0.7095,-0.7095,-0.7577,-0.8277,-0.9187,-1.0847,-1.1977,-1.2577,-1.3349,-1.3779,-1.3913,-1.4046,-1.4088,-1.4088,-1.4088,-1.4088,-1.413,-1.458,0.0,-1.5527,-1.5986,-1.6467,-1.6908,-1.6908,-1.6908,-1.6908,-1.6908,-1.6908,-1.6908,0.0,0.0,0.0,0.0,0.0,0.0,0.0,0.0,0.0,0.0,0.0,0.0,0.0,0.0,0.0,0.0,0.0,0.0,0.0,0.0,0.0,0.0,0.0,0.0,0.0,0.0,0.0,0.0,0.0,0.0,0.0,0.0,0.0,0.0,0.0,0.0,0.0,0.0,0.0,0.0,0.0,0.0,0.0,0.0,0.0,0.0,0.0,0.0,0.0,0.0,-0.8825,-0.8028,-0.7507,-0.7089,-0.68,-0.7053,-0.6604,-0.608,-0.6201,-0.6009,-0.5888,-0.6327,-0.6619,-0.6945,-0.7484,-0.7561,0.0,0.0,0.0,-0.6878,-0.6485,0.0,0.0,0.0,0.0,0.0,0.0,0.0,0.0,0.0,0.0,0.0,0.0,0.0,0.0,0.0,0.0,0.0,-0.7404,-0.8277,-0.9235,-1.0183,-1.1408,-1.2491,-1.3392,-1.3652,-1.3913,-1.4088,-1.4088,-1.4088,-1.4088,-1.4088,-1.4088,-1.4124,-1.4754,0.0,0.0,-1.617,-1.6617,-1.6908,-1.6908,-1.6908,-1.6908,-1.6908,-1.6908,-1.6908,0.0,0.0,0.0,0.0,0.0,0.0,0.0,0.0,0.0,0.0,0.0,0.0,0.0,0.0,0.0,0.0,0.0,0.0,0.0,0.0,0.0,0.0,0.0,0.0,0.0,0.0,0.0,0.0,0.0,0.0,0.0,0.0,0.0,0.0,0.0,0.0,0.0,0.0,0.0,0.0,0.0,0.0,0.0,0.0,0.0,0.0,0.0,0.0,0.0,0.0,0.0,-0.9097,-0.8689,-0.7822,-0.7038,-0.7415,0.0,0.0,-0.6404,-0.6648,-0.6962,-0.6659,-0.7011,-0.7522,-0.7949,0.0,0.0,0.0,-0.7241,-0.6878,-0.6485,0.0,0.0,0.0,0.0,-0.6154,0.0,0.0,0.0,0.0,0.0,0.0,0.0,0.0,0.0,0.0,0.0,0.0,-0.8408,-0.9274,-1.0188,-1.1149,-1.2528,-1.3307,-1.3398,-1.3828,-1.4088,-1.4088,-1.4088,-1.4088,-1.4088,-1.4088,-1.4088,-1.4075,-1.3842,0.0,0.0,-1.5308,-1.5905,-1.6908,-1.6908,-1.6908,-1.6908,-1.6908,-1.6908,-1.6908,0.0,0.0,0.0,0.0,0.0,0.0,0.0,0.0,0.0,0.0,0.0,0.0,0.0,0.0,0.0,0.0,0.0,0.0,0.0,0.0,0.0,0.0,0.0,0.0,0.0,0.0,0.0,0.0,0.0,0.0,0.0,0.0,0.0,0.0,0.0,0.0,0.0,0.0,0.0,0.0,0.0,0.0,0.0,0.0,0.0,0.0,0.0,0.0,0.0,0.0,0.0,0.0,-0.9392,-0.8778,0.0,0.0,-0.7818,-0.7358,-0.7655,-0.7635,-0.7618,-0.7808,-0.8055,-0.8284,-0.8441,0.0,0.0,-0.7646,-0.7277,-0.6878,-0.6485,-0.6708,0.0,0.0,0.0,0.0,0.0,0.0,0.0,0.0,0.0,0.0,0.0,0.0,0.0,0.0,0.0,0.0,-1.0193,-1.0539,-1.0971,-1.1542,-1.2747,-1.3483,-1.3568,-1.3913,-1.4088,-1.4088,-1.4088,-1.4088,-1.4088,-1.4088,-1.3988,-1.3814,-1.4205,0.0,0.0,-1.5708,-1.6276,-1.6908,-1.6908,-1.6908,-1.6908,-1.6908,-1.6908,-1.6908,0.0,0.0,0.0,0.0,0.0,0.0,0.0,0.0,0.0,0.0,0.0,0.0,0.0,0.0,0.0,0.0,0.0,0.0,0.0,0.0,0.0,0.0,0.0,0.0,0.0,0.0,0.0,0.0,0.0,0.0,0.0,0.0,0.0,0.0,0.0,0.0,0.0,0.0,0.0,0.0,0.0,0.0,0.0,0.0,0.0,0.0,0.0,0.0,0.0,0.0,0.0,0.0,0.0,0.0,0.0,0.0,-0.8407,-0.7983,-0.8547,-0.8394,-0.8165,-0.8585,-0.8703,-0.8737,0.0,0.0,-0.803,-0.7821,-0.7348,-0.6948,-0.6747,-0.7134,-0.7536,-0.7712,0.0,-0.8533,0.0,0.0,0.0,0.0,0.0,0.0,0.0,0.0,0.0,0.0,0.0,0.0,0.0,-1.18,-1.1929,-1.2106,-1.296,-1.3483,-1.3695,-1.3955,-1.4088,-1.4088,-1.4088,-1.4088,-1.4082,-1.3995,-1.38,-1.3634,0.0,0.0,0.0,-1.5927,-1.6628,-1.7266,-1.7266,-1.7266,-1.7266,-1.7266,-1.7183,-1.7118,0.0,0.0,0.0,0.0,0.0,0.0,0.0,0.0,0.0,0.0,0.0,0.0,0.0,0.0,0.0,0.0,0.0,0.0,0.0,0.0,0.0,0.0,0.0,0.0,0.0,0.0,0.0,0.0,0.0,0.0,0.0,0.0,0.0,0.0,0.0,0.0,0.0,0.0,0.0,0.0,0.0,0.0,0.0,0.0,0.0,0.0,0.0,0.0,0.0,0.0,0.0,0.0,0.0,0.0,0.0,0.0,-0.9008,-0.8699,-0.8703,-0.8703,-0.8699,-0.8703,-0.8703,-0.8818,0.0,0.0,-0.8105,-0.8174,-0.7553,-0.7088,-0.7437,-0.7489,-0.7717,-0.8398,-0.8544,0.0,0.0,0.0,0.0,0.0,0.0,0.0,0.0,0.0,0.0,0.0,0.0,0.0,0.0,-1.2924,-1.3094,-1.3094,-1.3313,-1.3483,-1.3695,-1.3955,-1.4088,-1.4088,-1.4088,-1.4088,-1.4075,-1.374,-1.3606,0.0,0.0,0.0,0.0,-1.5704,-1.6657,-1.8072,-1.8072,-1.8072,-1.8072,-1.8072,-1.7844,-1.7593,0.0,0.0,0.0,0.0,0.0,0.0,0.0,0.0,0.0,0.0,0.0,0.0,0.0,0.0,0.0,0.0,0.0,0.0,0.0,0.0,0.0,0.0,0.0,0.0,0.0,0.0,0.0,0.0,0.0,0.0,0.0,0.0,0.0,0.0,0.0,0.0,0.0,0.0,0.0,0.0,0.0,0.0,0.0,0.0,0.0,0.0,0.0,0.0,0.0,0.0,0.0,0.0,0.0,0.0,0.0,0.0,0.0,0.0,-0.9539,-0.9539,-0.9539,-0.9539,-0.9539,-0.9463,-0.9322,0.0,-0.851,-0.8496,-0.8044,-0.7774,-0.8118,-0.8554,-0.8941,-0.9134,-0.9931,0.0,0.0,0.0,0.0,0.0,0.0,0.0,0.0,0.0,0.0,0.0,0.0,0.0,0.0,-1.3052,-1.3137,-1.3307,-1.3483,-1.3737,-1.3955,-1.4046,-1.4088,-1.4088,-1.4088,-1.4088,-1.4075,-1.374,0.0,0.0,0.0,0.0,0.0,-1.5712,-1.6636,-1.8091,-1.8091,-1.8091,-1.8091,-1.8091,-1.8359,-1.8726,0.0,0.0,0.0,0.0,0.0,0.0,0.0,0.0,0.0,0.0,0.0,0.0,0.0,0.0,0.0,0.0,0.0,0.0,0.0,0.0,0.0,0.0,0.0,0.0,0.0,0.0,0.0,0.0,0.0,0.0,0.0,0.0,0.0,0.0,0.0,0.0,0.0,0.0,0.0,0.0,0.0,0.0,0.0,0.0,0.0,0.0,0.0,0.0,0.0,0.0,0.0,0.0,0.0,0.0,0.0,0.0,0.0,0.0,0.0,-0.9884,-0.9884,-0.9884,-0.9884,0.0,0.0,0.0,-0.911,-0.8882,-0.8644,-0.8532,-0.8837,-0.923,-0.9588,0.0,0.0,0.0,0.0,0.0,0.0,0.0,0.0,0.0,0.0,0.0,0.0,0.0,0.0,0.0,0.0,-1.3185,-1.3307,-1.3519,-1.3652,-1.3828,-1.4088,-1.4088,-1.4088,-1.4088,-1.4088,-1.4028,-1.3915,-1.3686,0.0,0.0,0.0,0.0,0.0,-1.6398,-1.7351,-1.8568,-1.8568,-1.8568,-1.8568,-1.8568,-1.8976,-1.9497,0.0,0.0,0.0,0.0,0.0,0.0,0.0,0.0,0.0,0.0,0.0,0.0,0.0,0.0,0.0,0.0,0.0,0.0,0.0,0.0,0.0,0.0,0.0,0.0,0.0,0.0,0.0,0.0,-1.5805,-1.5805,-1.5805,0.0,0.0,0.0,0.0,0.0,0.0,0.0,0.0,0.0,0.0,0.0,0.0,0.0,0.0,0.0,0.0,0.0,0.0,0.0,0.0,0.0,0.0,0.0,0.0,0.0,0.0,0.0,0.0,0.0,0.0,0.0,0.0,0.0,0.0,0.0,0.0,-0.9395,-0.9287,-0.9336,-0.958,-0.9594,-0.9817,0.0,0.0,0.0,0.0,0.0,0.0,0.0,0.0,0.0,0.0,0.0,0.0,0.0,0.0,0.0,0.0,-1.3264,-1.3476,-1.3695,-1.3695,-1.3828,-1.4088,-1.4088,-1.4088,-1.4088,-1.4068,-1.3921,-1.3633,-1.3593,0.0,0.0,0.0,0.0,0.0,-1.7532,-1.8527,-1.9301,-1.9301,-1.9301,-1.9301,-1.9381,-1.9667,-2.0078,0.0,0.0,0.0,0.0,0.0,0.0,0.0,0.0,0.0,0.0,0.0,0.0,0.0,0.0,0.0,0.0,0.0,0.0,0.0,0.0,0.0,0.0,0.0,0.0,0.0,0.0,0.0,-1.5805,-1.5805,-1.5805,-1.5805,-1.5805,0.0,0.0,0.0,0.0,0.0,0.0,0.0,0.0,0.0,0.0,0.0,0.0,0.0,0.0,-1.4601,0.0,0.0,0.0,0.0,0.0,0.0,0.0,0.0,0.0,-1.0067,0.0,0.0,0.0,0.0,0.0,0.0,0.0,0.0,0.0,0.0,0.0,0.0,-1.0115,-1.0554,-1.0477,-1.0469,0.0,0.0,0.0,0.0,0.0,0.0,0.0,0.0,0.0,0.0,0.0,0.0,0.0,0.0,0.0,0.0,-1.3143,-1.3307,-1.3695,-1.3695,-1.3828,-1.4088,-1.4088,-1.4088,-1.4082,-1.3854,-1.3793,-1.3968,-1.3514,0.0,0.0,0.0,0.0,-1.666,-1.76,-1.8527,-1.9301,-1.9301,-1.9301,-1.9381,-2.0001,-2.07,-2.1377,0.0,0.0,0.0,0.0,0.0,0.0,0.0,0.0,0.0,0.0,0.0,0.0,0.0,0.0,0.0,0.0,0.0,0.0,0.0,0.0,0.0,0.0,0.0,0.0,0.0,0.0,0.0,0.0,0.0,-1.5805,0.0,0.0,0.0,0.0,0.0,0.0,0.0,0.0,0.0,0.0,0.0,0.0,0.0,0.0,0.0,0.0,-1.5161,-1.4653,0.0,-1.3491,-1.2806,-1.204,0.0,0.0,0.0,0.0,-1.0218,0.0,0.0,0.0,0.0,0.0,0.0,0.0,0.0,0.0,0.0,0.0,0.0,-1.0927,-1.0983,-1.0894,0.0,0.0,0.0,0.0,0.0,0.0,0.0,0.0,0.0,0.0,0.0,0.0,0.0,0.0,0.0,0.0,0.0,-1.3179,-1.3398,-1.3695,-1.3822,-1.3955,-1.4088,-1.4088,-1.4088,-1.4082,-1.374,-1.3686,-1.3874,-1.3513,-1.3784,0.0,0.0,0.0,-1.7342,-1.8238,-1.8856,-1.9301,-1.9301,-1.9539,-1.9883,-2.0343,-2.1308,-2.2323,0.0,0.0,0.0,0.0,0.0,0.0,0.0,0.0,0.0,0.0,0.0,0.0,0.0,0.0,0.0,0.0,0.0,0.0,0.0,0.0,0.0,0.0,0.0,0.0,0.0,0.0,0.0,0.0,0.0,0.0,0.0,0.0,0.0,0.0,0.0,0.0,0.0,0.0,0.0,0.0,0.0,0.0,0.0,0.0,0.0,0.0,0.0,0.0,0.0,-1.4078,-1.3244,-1.2372,-1.1663,0.0,0.0,0.0,0.0,0.0,0.0,0.0,0.0,0.0,0.0,0.0,0.0,0.0,0.0,0.0,0.0,0.0,0.0,0.0,0.0,0.0,0.0,0.0,0.0,0.0,0.0,0.0,0.0,0.0,0.0,0.0,0.0,0.0,0.0,0.0,0.0,-1.3102,-1.3313,-1.3523,-1.3781,-1.3913,-1.3955,-1.4001,-1.4021,-1.4015,-1.368,-1.356,-1.36,-1.3722,-1.4225,0.0,0.0,0.0,-1.8078,-1.8935,-1.9301,-1.9301,-1.946,-1.9883,-2.0537,-2.0769,-2.1766,-2.2896,0.0,0.0,0.0,0.0,0.0,0.0,0.0,0.0,0.0,0.0,0.0,0.0,0.0,0.0,0.0,0.0,0.0,0.0,0.0,0.0,0.0,0.0,0.0,0.0,0.0,0.0,0.0,0.0,0.0,0.0,-1.5805,-1.5805,-1.5805,0.0,0.0,0.0,0.0,0.0,0.0,0.0,0.0,0.0,0.0,0.0,0.0,0.0,0.0,0.0,0.0,-1.5505,-1.4482,-1.328,-1.3171,0.0,0.0,0.0,0.0,0.0,-1.0143,-1.04,-1.0663,-1.0775,-1.0812,-1.1074,0.0,0.0,0.0,0.0,0.0,0.0,0.0,0.0,0.0,0.0,0.0,0.0,0.0,0.0,0.0,0.0,0.0,0.0,0.0,0.0,0.0,0.0,0.0,0.0,0.0,-1.2283,-1.2491,-1.2779,-1.298,-1.3187,-1.3347,-1.3547,-1.3666,-1.3666,-1.3373,-1.3367,-1.3641,-1.4353,-1.4935,0.0,0.0,-1.7876,-1.8078,-1.8935,-1.9301,-1.9381,-2.004,-2.0382,-2.0653,-2.208,-2.2767,-2.3007,0.0,0.0,0.0,0.0,0.0,0.0,0.0,0.0,0.0,0.0,0.0,0.0,0.0,0.0,0.0,0.0,0.0,0.0,0.0,0.0,0.0,0.0,0.0,0.0,0.0,0.0,0.0,0.0,0.0,-1.5805,-1.5805,-1.5805,-1.5805,-1.5805,0.0,0.0,0.0,0.0,0.0,0.0,0.0,0.0,0.0,0.0,0.0,0.0,0.0,0.0,0.0,0.0,-1.4689,-1.3962,-1.3098,0.0,0.0,0.0,0.0,0.0,-1.1428,-1.1465,-1.1657,-1.1744,-1.1781,-1.2003,-1.29,0.0,0.0,0.0,0.0,0.0,0.0,0.0,0.0,0.0,0.0,0.0,0.0,0.0,0.0,0.0,0.0,0.0,0.0,0.0,0.0,0.0,0.0,0.0,0.0,0.0,-1.2531,-1.273,-1.2969,-1.3094,-1.3213,-1.3173,-1.3247,-1.3367,-1.3273,-1.3593,-1.4312,-1.471,-1.5607,-1.6862,0.0,-1.8287,-1.8727,-1.9134,-1.9569,-2.0001,-2.0343,-2.1039,-2.2004,-2.3213,-2.3679,-2.3731,0.0,0.0,0.0,0.0,0.0,0.0,0.0,0.0,0.0,0.0,0.0,0.0,0.0,0.0,0.0,0.0,0.0,0.0,0.0,0.0,0.0,0.0,0.0,0.0,0.0,0.0,-1.5805,-1.5805,-1.5805,-1.5805,-1.5805,-1.5805,-1.5805,0.0,0.0,0.0,0.0,0.0,0.0,0.0,0.0,0.0,0.0,0.0,0.0,0.0,0.0,0.0,0.0,0.0,0.0,0.0,0.0,0.0,0.0,-1.2586,-1.2769,-1.3084,-1.2535,-1.2425,-1.2535,-1.2592,0.0,-1.2753,-1.3346,0.0,0.0,0.0,0.0,0.0,0.0,0.0,0.0,0.0,0.0,0.0,0.0,0.0,0.0,0.0,0.0,0.0,0.0,0.0,0.0,0.0,0.0,0.0,0.0,0.0,-1.2485,-1.2687,-1.2882,-1.2999,-1.2999,-1.2797,-1.2871,-1.3213,-1.3213,-1.3786,-1.4911,-1.5186,-1.6283,-1.7997,-1.8198,-1.8687,-1.9301,-1.949,-1.9952,-2.0537,-2.0924,-2.2059,-2.3545,-2.4177,-2.4507,-2.4664,0.0,0.0,0.0,0.0,0.0,0.0,0.0,0.0,0.0,0.0,0.0,0.0,0.0,0.0,0.0,0.0,0.0,0.0,0.0,0.0,0.0,0.0,0.0,0.0,0.0,-1.5805,-1.5805,-1.5805,-1.5805,-1.5805,-1.5805,-1.5805,-1.5805,-1.5805,0.0,0.0,0.0,0.0,0.0,0.0,0.0,0.0,0.0,0.0,0.0,0.0,0.0,0.0,0.0,0.0,0.0,0.0,0.0,0.0,-1.3499,-1.3419,-1.331,-1.3127,-1.2703,-1.2842,-1.3055,-1.2703,-1.2599,0.0,-1.3346,-1.3492,0.0,-1.3229,0.0,0.0,0.0,0.0,0.0,0.0,0.0,0.0,0.0,0.0,0.0,0.0,0.0,0.0,0.0,0.0,0.0,0.0,0.0,0.0,0.0,0.0,0.0,-1.2068,-1.2254,-1.2365,-1.2365,-1.2345,-1.2632,-1.3213,-1.3213,-1.3786,-1.4959,-1.6069,-1.7074,-1.8037,-1.8856,-1.9222,-1.9341,-2.0118,-2.0459,-2.0653,-2.2231,-2.3632,-2.4862,-2.4933,-2.5299,-2.5773,0.0,0.0,0.0,0.0,0.0,0.0,0.0,0.0,0.0,0.0,0.0,0.0,0.0,0.0,0.0,0.0,0.0,0.0,0.0,0.0,0.0,0.0,0.0,-1.5805,-1.5805,-1.5805,-1.5805,-1.5805,-1.5805,-1.5805,-1.5805,-1.5805,0.0,0.0,0.0,0.0,0.0,0.0,0.0,0.0,0.0,0.0,0.0,0.0,0.0,0.0,0.0,0.0,0.0,0.0,-1.5611,-1.5275,-1.4752,-1.476,-1.4848,-1.4322,-1.4474,-1.4732,-1.4338,-1.4158,-1.3977,-1.3622,-1.3331,0.0,0.0,-1.3492,-1.3419,0.0,0.0,0.0,0.0,0.0,0.0,0.0,0.0,0.0,0.0,0.0,0.0,0.0,0.0,0.0,0.0,0.0,0.0,0.0,0.0,0.0,0.0,0.0,0.0,-1.2187,-1.2261,-1.2305,-1.2305,-1.2522,-1.3092,-1.402,-1.402,-1.4643,-1.5792,-1.6984,-1.7997,-1.8816,-1.9143,-1.9569,-2.0079,-2.0382,-2.1116,-2.2155,-2.3287,-2.4274,-2.5004,-2.5004,-2.5569,-2.6402,0.0,0.0,0.0,0.0,0.0,0.0,0.0,0.0,0.0,0.0,0.0,0.0,0.0,0.0,0.0,0.0,0.0,0.0,0.0,0.0,0.0,0.0,0.0,-1.5805,-1.5805,-1.5805,-1.5805,-1.5805,-1.5805,-1.5805,-1.5805,0.0,0.0,0.0,0.0,0.0,0.0,0.0,0.0,0.0,0.0,0.0,0.0,0.0,0.0,0.0,0.0,0.0,0.0,0.0,-1.5805,-1.5691,-1.5161,-1.5355,-1.5691,-1.5125,-1.539,-1.5691,-1.5133,-1.4883,-1.4641,0.0,0.0,0.0,-1.3535,-1.3492,-1.3382,0.0,0.0,0.0,0.0,0.0,0.0,0.0,0.0,0.0,0.0,0.0,0.0,0.0,0.0,0.0,0.0,0.0,0.0,0.0,0.0,0.0,0.0,0.0,0.0,0.0,-1.2305,-1.2305,-1.2305,-1.29,-1.3655,-1.4513,-1.5156,-1.5968,-1.6876,-1.7637,-1.8487,-1.9301,-1.9569,-2.0001,-2.0537,-2.1078,-2.2107,-2.3446,-2.4177,-2.4778,-2.5288,-2.5476,-2.6139,-2.6952,0.0,0.0,0.0,0.0,0.0,0.0,0.0,0.0,0.0,0.0,0.0,0.0,0.0,0.0,0.0,0.0,0.0,0.0,0.0,0.0,0.0,0.0,0.0,-1.5805,-1.5805,-1.5805,-1.5805,-1.5805,-1.5805,-1.5805,-1.5805,-1.5805,0.0,0.0,0.0,0.0,0.0,0.0,0.0,0.0,0.0,-1.5805,0.0,0.0,0.0,0.0,0.0,0.0,0.0,0.0,-1.5805,-1.5805,-1.5805,-1.5805,-1.5805,-1.5805,-1.5805,-1.562,-1.4828,-1.4883,0.0,0.0,0.0,0.0,-1.3601,-1.3492,-1.3455,0.0,0.0,0.0,0.0,0.0,0.0,0.0,0.0,0.0,0.0,0.0,0.0,0.0,0.0,0.0,0.0,0.0,0.0,0.0,0.0,0.0,0.0,0.0,0.0,0.0,-1.2305,-1.2305,-1.2305,-1.35,-1.4243,-1.456,-1.661,-1.7725,-1.7997,-1.7997,-1.8487,-1.9341,-2.0148,-2.0498,-2.0653,-2.2306,-2.3482,-2.4261,-2.4802,-2.5358,-2.5965,-2.6508,-2.7053,-2.749,0.0,0.0,0.0,0.0,0.0,0.0,0.0,0.0,0.0,0.0,0.0,0.0,0.0,0.0,0.0,0.0,0.0,0.0,0.0,0.0,0.0,0.0,0.0,0.0,0.0,0.0,-1.5805,-1.5805,-1.5805,-1.5805,0.0,0.0,0.0,-1.5805,0.0,0.0,0.0,0.0,0.0,0.0,-1.5805,-1.5805,0.0,0.0,0.0,0.0,0.0,0.0,0.0,0.0,0.0,0.0,-1.5805,-1.5805,-1.5805,-1.5805,-1.5805,-1.5761,-1.5513,-1.5114,0.0,-1.4353,0.0,0.0,0.0,-1.3492,0.0,0.0,0.0,0.0,0.0,0.0,0.0,0.0,0.0,0.0,0.0,0.0,0.0,0.0,0.0,0.0,0.0,0.0,0.0,0.0,0.0,0.0,0.0,0.0,0.0,0.0,-1.2842,-1.3286,-1.3552,-1.4668,-1.5728,-1.6696,-1.7497,-1.7934,-1.8037,-1.8647,-1.9362,-2.0157,-2.0382,-2.1155,-2.2344,-2.3409,-2.4213,-2.4767,-2.4945,-2.5616,-2.6461,-2.6645,-2.7053,-2.7556,0.0,0.0,0.0,0.0,0.0,0.0,0.0,0.0,0.0,0.0,0.0,0.0,0.0,0.0,0.0,0.0,0.0,0.0,0.0,0.0,0.0,0.0,0.0,0.0,0.0,-1.5903,-1.5805,0.0,0.0,0.0,0.0,0.0,0.0,-1.5805,0.0,-1.5805,0.0,0.0,0.0,-1.5805,-1.5805,-1.5805,-1.5805,0.0,0.0,0.0,0.0,0.0,0.0,0.0,0.0,0.0,-1.5805,-1.5805,-1.5805,-1.5805,-1.5805,-1.5761,-1.5611,0.0,0.0,-1.4461,-1.4065,0.0,0.0,0.0,0.0,0.0,0.0,0.0,0.0,0.0,0.0,0.0,0.0,0.0,0.0,0.0,0.0,0.0,0.0,0.0,0.0,0.0,0.0,0.0,0.0,0.0,0.0,-1.2003,-1.2224,-1.2776,-1.3244,-1.3836,-1.4516,-1.5651,-1.6698,-1.7614,-1.8224,-1.8678,-1.8997,-1.952,-2.004,-2.0537,-2.1193,-2.2268,-2.3519,-2.425,-2.4707,-2.504,-2.5511,-2.6117,-2.6726,-2.6952,-2.7222,-2.759,0.0,0.0,0.0,0.0,0.0,0.0,0.0,0.0,0.0,0.0,0.0,0.0,0.0,0.0,0.0,0.0,0.0,0.0,0.0,0.0,0.0,0.0,0.0,0.0,0.0,0.0,0.0,0.0,0.0,0.0,0.0,0.0,-1.5805,-1.5805,0.0,-1.5805,0.0,-1.5805,-1.5805,-1.5805,-1.5805,-1.5805,-1.5805,-1.5805,0.0,0.0,0.0,0.0,0.0,0.0,0.0,0.0,-1.5805,-1.5805,-1.5805,-1.5805,-1.5805,-1.5726,-1.5355,0.0,0.0,-1.431,-1.4093,0.0,0.0,0.0,0.0,0.0,0.0,0.0,0.0,0.0,0.0,0.0,0.0,0.0,0.0,0.0,0.0,0.0,0.0,0.0,0.0,0.0,0.0,0.0,0.0,0.0,0.0,-1.2114,-1.2549,-1.3462,-1.3674,-1.4285,-1.5338,-1.6568,-1.7362,-1.7783,-1.8882,-1.9805,-2.0498,-2.0498,-2.0576,-2.0808,-2.2456,-2.3593,-2.4298,-2.4838,-2.5111,-2.5252,-2.6289,-2.6714,-2.685,-2.739,-2.759,-2.7689,0.0,0.0,0.0,0.0,0.0,0.0,0.0,0.0,0.0,0.0,0.0,0.0,0.0,0.0,0.0,0.0,0.0,0.0,0.0,0.0,0.0,0.0,0.0,0.0,0.0,0.0,0.0,0.0,0.0,0.0,0.0,0.0,0.0,-1.5805,0.0,-1.5805,-1.5805,-1.5805,-1.5805,-1.5805,-1.5805,-1.5805,-1.5805,-1.5805,-1.5805,0.0,0.0,0.0,0.0,0.0,0.0,0.0,-1.5805,-1.5805,-1.5805,-1.5805,-1.5805,-1.577,0.0,-1.5221,0.0,0.0,-1.4065,0.0,0.0,0.0,0.0,0.0,0.0,0.0,0.0,0.0,0.0,0.0,0.0,0.0,0.0,0.0,0.0,0.0,0.0,0.0,0.0,0.0,0.0,0.0,0.0,0.0,-1.2224,-1.2842,-1.328,-1.3499,-1.498,-1.6048,-1.6623,-1.7769,-1.8547,0.0,-1.9836,-2.0343,-2.0498,-2.0498,-2.1231,-2.2531,-2.3961,-2.4659,-2.4874,-2.5464,-2.5965,-2.6358,-2.6611,-2.6952,-2.7423,-2.8039,-2.8287,-2.8449,0.0,0.0,0.0,0.0,0.0,0.0,0.0,0.0,0.0,0.0,0.0,0.0,0.0,0.0,0.0,0.0,0.0,0.0,0.0,0.0,0.0,0.0,0.0,0.0,0.0,0.0,0.0,0.0,0.0,0.0,0.0,0.0,0.0,-1.5805,0.0,-1.5805,-1.5805,-1.5805,-1.5805,-1.5805,-1.5805,-1.5805,-1.5805,-1.5805,-1.5805,0.0,0.0,0.0,0.0,0.0,0.0,0.0,0.0,0.0,-1.5805,-1.5805,-1.5805,0.0,0.0,0.0,0.0,-1.4173,0.0,0.0,0.0,0.0,0.0,0.0,0.0,0.0,0.0,0.0,0.0,0.0,0.0,0.0,0.0,0.0,0.0,0.0,0.0,0.0,0.0,0.0,0.0,0.0,0.0,-1.2879,-1.2879,-1.36,-1.4214,-1.4573,-1.5788,-1.6765,-1.7503,-1.8323,-1.9101,-1.9883,-2.0313,-2.0924,-2.169,-2.169,-2.251,-2.4009,-2.4695,-2.5146,-2.5476,-2.6035,-2.644,-2.6726,-2.6985,-2.7443,-2.8039,-2.8384,-2.8693,-2.9111,0.0,0.0,0.0,0.0,0.0,0.0,0.0,0.0,0.0,0.0,0.0,0.0,0.0,0.0,0.0,0.0,0.0,0.0,0.0,0.0,0.0,0.0,0.0,0.0,0.0,0.0,0.0,0.0,0.0,0.0,0.0,0.0,0.0,-1.5805,0.0,0.0,-1.5805,-1.5726,-1.5691,-1.5691,-1.562,-1.562,-1.5691,0.0,0.0,0.0,0.0,0.0,0.0,0.0,0.0,0.0,0.0,0.0,-1.5805,-1.5805,-1.5805,0.0,0.0,0.0,-1.4425,-1.3783,-1.3564,0.0,0.0,0.0,0.0,0.0,0.0,0.0,0.0,0.0,0.0,0.0,0.0,0.0,0.0,0.0,0.0,0.0,0.0,0.0,0.0,0.0,0.0,0.0,0.0,-1.3564,-1.3673,-1.4394,-1.5108,-1.5762,-1.6363,-1.713,-1.8081,-1.8701,-1.9514,-2.0498,-2.0808,-2.1794,-2.3361,-2.3361,-2.3936,-2.5004,-2.5229,-2.5581,-2.607,-2.6611,-2.6918,-2.704,-2.749,-2.8091,-2.8693,-2.8789,-2.9219,-2.9766,0.0,0.0,0.0,0.0,0.0,0.0,0.0,0.0,0.0,0.0,0.0,0.0,0.0,0.0,0.0,0.0,0.0,0.0,0.0,0.0,0.0,0.0,0.0,0.0,0.0,0.0,0.0,0.0,0.0,0.0,0.0,0.0,0.0,-1.5805,0.0,0.0,0.0,-1.5426,-1.5275,-1.524,-1.4892,-1.4963,-1.5275,0.0,0.0,0.0,0.0,0.0,0.0,0.0,0.0,0.0,0.0,0.0,0.0,0.0,0.0,0.0,0.0,0.0,-1.4497,0.0,-1.3775,-1.3492,0.0,0.0,0.0,0.0,0.0,0.0,0.0,0.0,0.0,0.0,0.0,0.0,0.0,0.0,0.0,0.0,0.0,0.0,0.0,0.0,0.0,0.0,-1.3426,-1.3781,-1.4422,-1.5223,-1.5692,-1.5798,-1.7161,-1.7952,-1.8091,-1.9535,-2.0324,-2.0498,-2.1966,-2.3375,-2.4719,-2.4719,-2.4826,-2.5052,-2.6035,-2.6508,-2.6645,-2.7154,-2.7743,-2.8287,-2.8352,-2.8776,-2.9456,-3.0011,-3.0299,-3.045,0.0,0.0,0.0,0.0,0.0,0.0,0.0,0.0,0.0,0.0,0.0,0.0,0.0,0.0,0.0,0.0,0.0,0.0,0.0,0.0,0.0,0.0,0.0,0.0,0.0,0.0,0.0,0.0,0.0,0.0,0.0,-1.5805,-1.5805,0.0,0.0,0.0,0.0,0.0,0.0,-1.4856,-1.4669,0.0,0.0,0.0,0.0,0.0,0.0,0.0,0.0,0.0,0.0,0.0,0.0,0.0,0.0,0.0,0.0,0.0,-1.5541,-1.5417,-1.5275,0.0,-1.4796,-1.4752,-1.4222,0.0,0.0,0.0,0.0,0.0,0.0,0.0,0.0,0.0,0.0,0.0,0.0,0.0,0.0,0.0,0.0,0.0,0.0,0.0,0.0,0.0,-1.4537,-1.4939,-1.5259,-1.6009,-1.6403,-1.6403,-1.7288,-1.8091,-1.8756,-1.9713,-2.0751,-2.1928,-2.3412,-2.4432,-2.5004,-2.5652,-2.5931,-2.5965,-2.6474,-2.685,-2.7188,-2.7809,-2.8222,-2.8546,-2.8903,-2.9456,-3.0103,-3.0389,-3.0748,-3.1087,0.0,0.0,0.0,0.0,0.0,0.0,0.0,0.0,0.0,0.0,0.0,0.0,0.0,0.0,0.0,0.0,0.0,0.0,0.0,0.0,0.0,0.0,0.0,0.0,0.0,0.0,0.0,0.0,0.0,0.0,-1.5805,-1.5805,-1.5761,0.0,-1.5319,0.0,0.0,0.0,0.0,0.0,0.0,0.0,0.0,0.0,0.0,0.0,0.0,0.0,0.0,0.0,0.0,0.0,0.0,0.0,0.0,0.0,0.0,0.0,0.0,0.0,-1.5727,-1.5417,-1.5569,-1.5631,0.0,0.0,0.0,0.0,0.0,0.0,0.0,0.0,0.0,0.0,0.0,0.0,0.0,0.0,0.0,0.0,0.0,0.0,0.0,0.0,0.0,0.0,-1.5471,-1.5868,-1.6088,-1.6586,-1.6978,-1.7176,-1.7567,-1.8271,-1.936,-2.0252,-2.165,-2.3508,-2.4683,-2.53,-2.5476,-2.6289,-2.6782,-2.6884,-2.6884,-2.7222,-2.7776,-2.8287,-2.8693,-2.9062,-2.9549,-3.0178,-3.0748,-3.0748,-3.1058,-3.1511,0.0,0.0,0.0,0.0,0.0,0.0,0.0,0.0,0.0,0.0,0.0,0.0,0.0,0.0,0.0,0.0,0.0,0.0,0.0,0.0,0.0,0.0,0.0,0.0,0.0,0.0,0.0,0.0,0.0,0.0,-1.5805,-1.5805,-1.5611,-1.524,-1.5204,-1.4991,-1.4605,0.0,0.0,0.0,0.0,0.0,0.0,0.0,0.0,0.0,0.0,0.0,0.0,0.0,0.0,0.0,0.0,0.0,0.0,0.0,0.0,0.0,0.0,-1.5497,0.0,-1.5692,-1.5515,0.0,0.0,0.0,0.0,0.0,0.0,0.0,0.0,0.0,0.0,0.0,0.0,0.0,0.0,0.0,0.0,0.0,0.0,0.0,0.0,0.0,0.0,0.0,-1.5762,-1.6123,-1.6795,-1.6874,-1.721,-1.7935,-1.8329,-1.8879,-1.9565,-2.1804,-2.3603,-2.4898,-2.5534,-2.6117,-2.6611,-2.6679,-2.6985,-2.7469,-2.7469,-2.7842,-2.8449,-2.8481,-2.9251,-3.0404,-3.0419,-3.0866,-3.1438,-3.1438,-3.1467,-3.1511,0.0,0.0,0.0,0.0,0.0,0.0,0.0,0.0,0.0,0.0,0.0,0.0,0.0,0.0,0.0,0.0,0.0,0.0,0.0,0.0,0.0,0.0,0.0,0.0,0.0,0.0,0.0,0.0,0.0,-1.5805,-1.5797,-1.5541,-1.5213,-1.4812,-1.4812,-1.4633,-1.4238,-1.3884,0.0,0.0,0.0,0.0,0.0,0.0,0.0,0.0,0.0,0.0,0.0,0.0,0.0,0.0,0.0,0.0,0.0,0.0,0.0,0.0,0.0,0.0,0.0,-1.7201,-1.7364,-1.7379,0.0,0.0,0.0,0.0,0.0,0.0,0.0,0.0,0.0,0.0,0.0,0.0,0.0,0.0,0.0,0.0,0.0,0.0,0.0,0.0,0.0,0.0,0.0,-1.6821,-1.7569,-1.7604,-1.7901,-1.861,-1.8762,-1.9508,-2.0863,-2.2502,-2.3879,-2.5002,-2.5571,-2.6354,-2.7324,-2.7229,-2.7796,-2.8762,-2.8338,-2.8287,-2.8578,-2.9439,-3.0056,-3.0554,-3.097,-3.1278,-3.1511,-3.1511,-3.1511,-3.1511,0.0,0.0,0.0,0.0,0.0,0.0,0.0,0.0,0.0,0.0,0.0,0.0,0.0,0.0,0.0,0.0,0.0,0.0,0.0,0.0,0.0,0.0,0.0,0.0,0.0,0.0,0.0,0.0,0.0,0.0,0.0,-1.539,-1.4991,-1.4605,-1.4497,-1.4238,0.0,0.0,0.0,-1.3601,0.0,0.0,-1.5419,0.0,0.0,0.0,0.0,0.0,0.0,0.0,0.0,0.0,0.0,0.0,0.0,0.0,0.0,0.0,-1.7304,0.0,0.0,0.0,0.0,-1.8405,0.0,0.0,0.0,0.0,0.0,0.0,0.0,0.0,0.0,0.0,0.0,0.0,0.0,0.0,0.0,0.0,0.0,0.0,0.0,0.0,0.0,0.0,0.0,0.0,-1.7754,-1.8127,-1.8633,-1.9342,-1.9748,-2.0631,-2.1957,-2.3093,-2.4226,-2.5317,-2.6077,-2.6999,-2.7988,-2.8101,-2.8666,-2.9473,-2.9282,-2.9156,-2.9251,-3.0117,-3.0614,-3.0866,-3.1322,-3.1511,-3.1511,-3.1511,-3.1511,-3.1511,0.0,0.0,0.0,0.0,0.0,0.0,0.0,0.0,0.0,0.0,0.0,0.0,0.0,0.0,0.0,0.0,0.0,0.0,0.0,0.0,0.0,0.0,0.0,0.0,0.0,0.0,0.0,0.0,0.0,0.0,0.0,0.0,-1.4955,-1.4569,-1.4238,-1.3884,-1.3492,0.0,-1.3492,-1.3637,0.0,-1.5242,-1.4816,0.0,0.0,0.0,-1.6524,-1.6638,0.0,0.0,0.0,0.0,0.0,0.0,0.0,0.0,0.0,0.0,0.0,0.0,0.0,0.0,0.0,0.0,0.0,0.0,0.0,0.0,0.0,0.0,0.0,0.0,0.0,0.0,0.0,0.0,0.0,0.0,0.0,0.0,0.0,0.0,0.0,0.0,0.0,0.0,-1.6863,-1.7422,-1.7412,-1.8479,-1.9387,-2.0128,-2.1302,-2.217,-2.2718,-2.3698,-2.4759,-2.5911,-2.7139,-2.7996,-2.8545,-2.9192,-2.9504,-2.9597,-3.0238,-3.0524,-3.0524,-3.0524,-3.0896,-3.1511,-3.1511,-3.1511,-3.1511,-3.1511,-3.1511,-3.1511,0.0,0.0,0.0,0.0,0.0,0.0,0.0,0.0,0.0,0.0,0.0,0.0,0.0,0.0,0.0,0.0,0.0,0.0,0.0,0.0,0.0,0.0,0.0,0.0,0.0,0.0,0.0,0.0,0.0,0.0,0.0,0.0,0.0,0.0,-1.3855,-1.3601,-1.3492,-1.3492,0.0,0.0,-1.4545,-1.51,0.0,0.0,0.0,0.0,0.0,-1.7638,0.0,0.0,-1.7304,-1.7003,0.0,0.0,0.0,0.0,0.0,0.0,-1.81,0.0,0.0,0.0,0.0,0.0,0.0,0.0,0.0,0.0,0.0,0.0,0.0,0.0,0.0,0.0,0.0,0.0,0.0,0.0,0.0,0.0,0.0,0.0,0.0,0.0,0.0,0.0,-1.746,-1.7823,-1.8237,-1.9702,-2.0795,-2.1396,-2.2051,-2.2659,-2.3193,-2.3867,-2.4751,-2.584,-2.7106,-2.8229,-2.9229,-2.9421,-3.0042,-3.0925,-3.0614,-3.0777,-3.1219,-3.1219,-3.1322,-3.1511,-3.1511,-3.1511,-3.1511,-3.1511,-3.1511,-3.1511,0.0,0.0,0.0,0.0,0.0,0.0,0.0,0.0,0.0,0.0,0.0,0.0,0.0,0.0,0.0,0.0,0.0,0.0,0.0,0.0,0.0,0.0,0.0,0.0,0.0,0.0,0.0,0.0,0.0,0.0,0.0,0.0,0.0,0.0,0.0,0.0,0.0,0.0,0.0,0.0,-1.4653,0.0,0.0,-1.6481,-1.7035,0.0,0.0,0.0,-1.6966,-1.7706,-1.7794,0.0,0.0,0.0,0.0,0.0,0.0,0.0,0.0,0.0,0.0,0.0,0.0,0.0,-1.9485,-1.966,-1.9726,0.0,0.0,0.0,0.0,0.0,0.0,0.0,0.0,0.0,0.0,0.0,0.0,0.0,0.0,0.0,0.0,-1.7179,-1.7344,-1.7345,-1.7684,-1.8335,-1.9272,-2.0629,-2.1548,-2.1861,-2.2566,-2.3203,-2.3721,-2.4279,-2.5099,-2.619,-2.7499,-2.8612,-2.9574,-3.0074,-3.0777,-3.1467,-3.1087,-3.1161,-3.1511,-3.1511,-3.1511,-3.1511,-3.1511,-3.1511,-3.1511,-3.1511,-3.1511,-3.1511,0.0,0.0,0.0,0.0,0.0,0.0,0.0,0.0,0.0,0.0,0.0,0.0,0.0,0.0,0.0,0.0,0.0,0.0,0.0,0.0,0.0,0.0,0.0,0.0,0.0,0.0,0.0,0.0,0.0,0.0,0.0,0.0,0.0,0.0,0.0,0.0,0.0,0.0,0.0,-1.3739,-1.5037,-1.5242,0.0,0.0,-1.6515,0.0,-1.6759,-1.655,-1.6202,-1.774,-1.8347,0.0,0.0,0.0,0.0,0.0,-1.8448,0.0,0.0,0.0,0.0,0.0,0.0,0.0,-2.0463,-2.0635,-2.0732,-2.0226,0.0,0.0,0.0,0.0,0.0,0.0,0.0,0.0,0.0,0.0,0.0,0.0,0.0,0.0,-1.7434,-1.7301,-1.7196,-1.7129,-1.7889,-1.8948,-2.0258,-2.1233,-2.181,-2.1871,-2.2968,-2.3809,-2.4281,-2.4947,-2.5813,-2.6825,-2.8239,-2.9173,-2.9729,-3.0943,-3.1511,-3.1511,-3.1511,-3.1511,-3.1511,-3.1511,-3.1511,-3.1511,-3.1511,-3.1511,-3.1511,-3.1511,-3.1511,-3.1511,0.0,0.0,0.0,0.0,0.0,0.0,0.0,0.0,0.0,0.0,0.0,0.0,0.0,0.0,0.0,0.0,0.0,0.0,0.0,0.0,0.0,0.0,0.0,0.0,0.0,0.0,0.0,0.0,0.0,0.0,0.0,0.0,0.0,0.0,0.0,0.0,0.0,0.0,0.0,-1.4394,-1.4708,0.0,-1.5604,-1.655,-1.7182,-1.7579,-1.7725,-1.7691,-1.7588,0.0,-1.8076,-1.811,0.0,0.0,0.0,0.0,0.0,0.0,0.0,0.0,0.0,0.0,0.0,0.0,-2.042,-2.0528,-2.0603,0.0,0.0,0.0,0.0,0.0,0.0,0.0,0.0,0.0,0.0,0.0,0.0,0.0,0.0,0.0,-1.8589,-1.8592,-1.8735,-1.9042,-1.9312,-1.9752,-2.0429,-2.1249,-2.193,-2.2342,-2.3887,-2.475,-2.485,-2.6398,-2.7273,-2.7532,-2.9286,-3.0201,-3.0357,-3.1137,-3.1511,-3.1511,-3.1511,-3.1511,-3.1511,-3.1511,-3.1511,-3.1511,-3.1511,-3.1511,-3.1511,-3.1511,-3.1511,-3.1511,0.0,0.0,0.0,0.0,0.0,0.0,0.0,0.0,0.0,0.0,0.0,0.0,0.0,0.0,0.0,0.0,0.0,0.0,0.0,0.0,0.0,0.0,0.0,0.0,0.0,0.0,0.0,0.0,0.0,0.0,0.0,0.0,0.0,0.0,0.0,0.0,0.0,0.0,-1.363,-1.4122,-1.4859,0.0,-1.6376,-1.7148,-1.7691,-1.8008,-1.8008,-1.8008,-1.794,-1.7579,-1.7691,0.0,0.0,-1.8008,-1.8008,0.0,-1.8236,-1.8553,0.0,0.0,0.0,-2.0516,0.0,0.0,0.0,-2.1842,-2.1997,0.0,0.0,0.0,0.0,0.0,0.0,0.0,0.0,0.0,0.0,0.0,0.0,0.0,0.0,0.0,-2.0261,-2.0231,-2.0165,-2.0016,-2.0055,-2.0322,-2.0836,-2.1577,-2.2538,-2.37,-2.4819,-2.5855,-2.6835,-2.775,-2.8351,-2.8653,-2.9593,-3.0208,-3.0507,-3.0866,-3.1182,-3.1511,-3.1511,-3.1511,-3.1511,-3.1597,-3.167,-3.1641,-3.1539,-3.1568,-3.1641,-3.1539,-3.1511,-3.1511,0.0,0.0,0.0,0.0,0.0,0.0,0.0,0.0,0.0,0.0,0.0,0.0,0.0,0.0,0.0,0.0,0.0,0.0,0.0,0.0,0.0,0.0,0.0,-1.4137,0.0,0.0,0.0,0.0,0.0,0.0,0.0,0.0,0.0,0.0,0.0,0.0,0.0,0.0,0.0,-1.4029,0.0,-1.5983,-1.655,-1.7373,-1.7691,-1.7759,-1.7906,-1.794,-1.7862,-1.7295,0.0,-1.8008,-1.8008,-1.8076,0.0,0.0,0.0,0.0,0.0,0.0,0.0,0.0,0.0,-2.25,0.0,0.0,0.0,0.0,0.0,0.0,0.0,0.0,0.0,0.0,0.0,0.0,0.0,0.0,0.0,0.0,0.0,0.0,0.0,-2.1824,-2.1467,-2.0734,-2.0807,-2.1066,-2.1489,-2.2248,-2.3393,-2.5001,-2.5775,-2.6984,-2.8679,-2.8922,-2.9243,-2.9606,-2.9835,-3.0102,-3.0451,-3.0451,-3.0827,-3.1444,-3.1359,-3.1376,-3.1511,-3.1727,-3.1828,-3.1813,-3.1655,-3.1683,-3.1784,-3.1655,-3.1597,-3.1597,0.0,0.0,0.0,0.0,0.0,0.0,0.0,0.0,0.0,0.0,0.0,0.0,0.0,0.0,0.0,0.0,0.0,0.0,-1.4537,0.0,0.0,0.0,0.0,0.0,-1.4165,0.0,0.0,0.0,0.0,0.0,0.0,0.0,0.0,0.0,-1.4222,0.0,0.0,0.0,-1.4816,0.0,-1.564,-1.5349,0.0,-1.6088,-1.6594,-1.6846,-1.7501,-1.774,-1.775,0.0,-1.794,-1.8008,0.0,-1.8395,0.0,0.0,0.0,0.0,0.0,0.0,0.0,0.0,-2.2154,0.0,0.0,0.0,0.0,0.0,0.0,0.0,0.0,0.0,0.0,0.0,0.0,0.0,0.0,0.0,0.0,0.0,0.0,0.0,0.0,-2.294,-2.245,-2.1793,-2.2267,-2.2626,-2.2694,-2.351,-2.4349,-2.5145,-2.6673,-2.7884,-2.8707,-2.9755,-3.0063,-2.9621,-3.0624,-3.0823,-3.0317,-3.0317,-3.0685,-3.1301,-3.0807,-3.0943,-3.1511,-3.1727,-3.187,-3.1968,-3.194,-3.1883,-3.1813,-3.1912,-3.1855,-3.1799,0.0,0.0,0.0,0.0,0.0,0.0,0.0,0.0,0.0,0.0,0.0,0.0,0.0,0.0,0.0,0.0,0.0,0.0,0.0,0.0,0.0,0.0,0.0,0.0,0.0,0.0,0.0,0.0,-1.3739,0.0,0.0,0.0,0.0,0.0,-1.4466,0.0,-1.476,0.0,0.0,0.0,0.0,0.0,0.0,-1.6446,-1.7123,-1.7141,-1.7451,-1.7613,-1.7706,0.0,-1.7896,0.0,0.0,0.0,0.0,0.0,0.0,0.0,0.0,0.0,0.0,0.0,0.0,0.0,0.0,0.0,-2.4366,0.0,0.0,0.0,0.0,0.0,0.0,0.0,0.0,0.0,0.0,0.0,0.0,0.0,0.0,0.0,0.0,0.0,0.0,0.0,-2.2925,-2.3184,-2.3859,-2.4043,-2.5101,-2.7214,-2.7912,-2.8899,-3.0304,-3.0829,-3.0902,-3.0593,-3.0685,-3.0565,-3.0299,-2.9899,-3.0132,-3.0824,-3.0591,-3.0968,-3.1698,-3.1841,-3.1996,-3.2122,-3.2122,-3.2038,-3.1912,-3.1968,-3.1927,-3.1841,0.0,0.0,0.0,0.0,0.0,0.0,0.0,0.0,0.0,0.0,0.0,0.0,-1.29,-1.3295,0.0,0.0,0.0,-1.5152,0.0,0.0,-1.4609,0.0,0.0,0.0,0.0,0.0,0.0,0.0,0.0,0.0,0.0,0.0,0.0,0.0,0.0,-1.4887,-1.5384,0.0,0.0,-1.5199,-1.4859,-1.4867,-1.5259,-1.6698,-1.727,-1.7332,-1.7392,-1.7486,-1.7569,-1.7672,-1.792,0.0,-1.8844,0.0,0.0,0.0,0.0,0.0,-2.1028,0.0,0.0,0.0,0.0,0.0,0.0,0.0,0.0,0.0,0.0,0.0,0.0,0.0,0.0,0.0,0.0,0.0,0.0,0.0,0.0,0.0,0.0,0.0,0.0,0.0,0.0,-2.3993,-2.3561,-2.3814,-2.501,-2.4939,-2.6176,-2.9033,-2.9132,-2.9894,-3.1481,-3.1668,-3.1498,-3.1036,-3.0815,-3.0456,-2.9958,-2.9463,-2.9638,-3.0372,-3.0489,-3.0973,-3.1751,-3.2293,-3.2465,-3.2453,-3.2629,-3.2602,-3.2465,-3.2163,-3.2094,-3.215,0.0,-1.2562,0.0,0.0,0.0,0.0,0.0,0.0,0.0,0.0,0.0,0.0,0.0,0.0,0.0,0.0,0.0,-1.7151,-1.6568,0.0,-1.5534,0.0,0.0,0.0,0.0,0.0,0.0,0.0,0.0,0.0,0.0,0.0,0.0,0.0,0.0,-1.4601,-1.4673,-1.5349,-1.6097,-1.6793,-1.6594,-1.6742,-1.7028,0.0,-1.6482,-1.6934,-1.7132,0.0,0.0,-1.7569,-1.8172,0.0,0.0,0.0,0.0,0.0,0.0,0.0,0.0,0.0,0.0,-2.2197,0.0,0.0,0.0,0.0,-2.5174,0.0,0.0,0.0,0.0,0.0,0.0,0.0,0.0,0.0,0.0,0.0,0.0,0.0,0.0,0.0,0.0,0.0,0.0,-2.4799,-2.4454,-2.4844,-2.6166,-2.6602,-2.7788,-2.9902,-3.027,-3.0791,-3.1496,-3.2079,-3.1693,-3.0345,-3.1356,-3.0901,-2.9153,-2.9121,-2.9438,-3.0044,-3.0423,-3.0944,-3.163,-3.3131,-3.3443,-3.3039,-3.3691,-3.3869,-3.3624,-3.2574,-3.252,-3.2922,0.0,0.0,0.0,0.0,0.0,0.0,0.0,-1.2378,0.0,0.0,0.0,0.0,0.0,0.0,-1.5046,0.0,0.0,-1.6464,-1.642,-1.5719,0.0,0.0,0.0,-1.3695,0.0,0.0,0.0,0.0,0.0,0.0,-1.4222,0.0,0.0,0.0,0.0,-1.5631,0.0,0.0,0.0,0.0,0.0,-1.6647,-1.7166,0.0,0.0,-1.6908,-1.6968,-1.7107,0.0,-1.7339,-1.7901,-1.87,-1.9233,-1.9792,-2.0387,-2.1071,-2.1368,0.0,0.0,0.0,-2.2702,-2.2309,0.0,0.0,0.0,0.0,0.0,0.0,0.0,0.0,0.0,0.0,0.0,0.0,0.0,0.0,0.0,0.0,0.0,0.0,0.0,0.0,0.0,0.0,0.0,-2.6064,-2.6253,-2.6749,-2.7634,-2.8165,-2.9149,-3.072,-3.1071,-3.1554,-3.2216,-3.2788,-3.2513,-3.1414,-3.1844,-3.1209,-2.9683,-2.9595,-2.9722,-3.0037,-3.0732,-3.1482,-3.2244,-3.3361,-3.3751,-3.3665,-3.3802,-3.4103,-3.4325,-3.3251,-3.2922,-3.2986,-1.2305,0.0,0.0,0.0,0.0,0.0,0.0,0.0,0.0,0.0,-1.3709,0.0,-1.4565,0.0,-1.5251,0.0,-1.6158,-1.6289,-1.621,-1.5762,0.0,-1.5781,-1.4645,0.0,0.0,0.0,0.0,0.0,0.0,-1.4258,-1.4994,0.0,0.0,0.0,0.0,0.0,-1.6802,0.0,-1.6802,0.0,0.0,-1.6716,0.0,0.0,-1.6908,-1.6908,0.0,-1.6968,-1.7097,-1.7166,-1.7901,-1.8867,-1.9431,-1.9998,-2.0667,-2.1549,-2.1569,-2.1411,-2.1906,-2.2347,0.0,-2.25,-2.356,0.0,-2.4394,0.0,0.0,0.0,0.0,0.0,0.0,0.0,0.0,0.0,0.0,0.0,0.0,0.0,0.0,0.0,0.0,0.0,0.0,0.0,-2.721,-2.6957,-2.7373,-2.7953,0.0,0.0,-3.0464,-3.1797,-3.2133,-3.252,-3.296,-3.3049,-3.2762,-3.2076,-3.1903,-3.1208,-3.0032,-2.9946,-2.9954,-3.011,-3.1235,-3.2023,-3.2563,-3.3892,-3.439,-3.4292,-3.4399,-3.4704,-3.4951,-3.3827,-3.3391,-3.3381,0.0,0.0,0.0,0.0,-1.2268,0.0,0.0,0.0,-1.3499,0.0,-1.4207,-1.4673,-1.4708,-1.5401,-1.5833,-1.5833,-1.6508,0.0,-1.6079,-1.6061,0.0,0.0,-1.5781,-1.5816,-1.6568,0.0,0.0,0.0,0.0,0.0,-1.5745,0.0,0.0,0.0,-1.5569,0.0,-1.6638,-1.6455,-1.6862,-1.7638,-1.7304,-1.7072,-1.6908,-1.6908,-1.6908,-1.6908,-1.6908,-1.6908,-1.6943,-1.7166,-1.8138,-1.9332,-1.9562,-2.056,-2.1698,-2.1698,-2.1698,-2.1698,-2.1698,-2.1843,-2.213,-2.2738,0.0,0.0,0.0,0.0,-2.6056,0.0,0.0,0.0,0.0,0.0,0.0,0.0,0.0,0.0,0.0,0.0,0.0,0.0,0.0,0.0,0.0,0.0,-2.8183,-2.7535,-2.7964,-2.8606,0.0,0.0,-3.1738,-3.3008,-3.3443,-3.3633,-3.3633,-3.3001,-3.2539,-3.2236,-3.1642,-3.092,-3.0145,-3.0145,-3.0177,-3.0276,-3.1863,-3.2529,-3.2655,-3.4729,-3.5293,-3.4904,-3.5402,-3.56,-3.5447,-3.4276,-3.3928,-3.4036,-1.1892,-1.1818,-1.1781,0.0,-1.1855,-1.1966,0.0,0.0,0.0,0.0,-1.5002,-1.5683,-1.6254,-1.6473,-1.6621,-1.6621,-1.6795,0.0,0.0,0.0,0.0,-1.695,-1.5745,-1.5542,-1.6568,-1.5046,0.0,-1.5569,0.0,0.0,-1.635,-1.5648,0.0,0.0,0.0,0.0,-1.7398,-1.7279,-1.7245,-1.7304,-1.7072,-1.6943,0.0,0.0,-1.6908,-1.6908,-1.6908,-1.6908,-1.7003,-1.7604,-1.8375,-1.9177,-1.977,-2.0656,-2.1463,-2.1463,-2.158,-2.1698,-2.1698,-2.2304,-2.2937,-2.2919,-2.4031,-2.509,0.0,0.0,0.0,0.0,0.0,0.0,0.0,0.0,0.0,0.0,0.0,0.0,0.0,0.0,0.0,0.0,0.0,0.0,0.0,-2.9262,-2.8926,-2.8737,-2.9769,-3.0503,-3.0719,0.0,0.0,-3.3726,-3.4177,-3.4415,-3.4415,-3.4057,-3.3556,-3.2932,-3.2235,-3.1516,-3.0777,-3.0716,-3.0975,-3.1579,-3.2637,-3.3399,-3.3974,-3.5121,-3.5515,-3.5402,-3.5554,-3.56,-3.5515,-3.4816,-3.4577,-3.4601,-1.1706,0.0,0.0,-1.1558,0.0,0.0,-1.2622,0.0,0.0,-1.435,-1.518,0.0,-1.6254,-1.6656,-1.6908,-1.6908,-1.6908,0.0,0.0,0.0,0.0,-1.6568,-1.614,-1.621,-1.6855,-1.5683,0.0,-1.6359,0.0,0.0,-1.6968,-1.6438,0.0,0.0,0.0,-1.6985,0.0,-1.7417,-1.7245,-1.7072,-1.6943,0.0,0.0,-1.6908,-1.6908,-1.6934,-1.727,-1.7373,-1.7432,-1.7867,-1.8667,-1.954,-1.9966,-2.0656,-2.1305,-2.1305,-2.138,-2.1529,-2.1737,-2.2261,-2.2847,-2.3207,-2.4192,-2.5146,-2.5411,-2.6001,-2.6616,0.0,0.0,0.0,0.0,0.0,0.0,0.0,0.0,0.0,0.0,0.0,0.0,0.0,0.0,0.0,0.0,-3.0016,-2.9629,-2.9502,-3.0742,-3.151,0.0,0.0,0.0,-3.4358,-3.4826,-3.5078,-3.5078,-3.4102,-3.3498,-3.3267,-3.2022,-3.1301,-3.1092,-3.1052,-3.1436,-3.2176,-3.2997,-3.376,-3.4486,-3.5273,-3.56,-3.56,-3.56,-3.56,-3.556,-3.5247,-3.5155,-3.5205,0.0,0.0,0.0,0.0,0.0,0.0,0.0,-1.323,0.0,-1.4307,0.0,-1.5604,-1.5604,-1.6333,-1.683,-1.6864,0.0,-1.6621,-1.5974,-1.6542,-1.6621,-1.5974,-1.6751,-1.7166,-1.7201,-1.6559,0.0,0.0,0.0,0.0,-1.7461,-1.7436,0.0,0.0,0.0,0.0,0.0,-1.7235,-1.7132,-1.7038,-1.6943,-1.6908,-1.6908,-1.6908,-1.6968,-1.7141,-1.7774,-1.8003,-1.8037,-1.8196,-1.91,-2.0139,-2.0204,-2.07,-2.119,-2.119,-2.1253,-2.138,-2.1784,-2.2075,-2.2519,-2.3535,-2.4192,-2.4823,-2.5878,-2.6336,-2.68,-2.7625,-2.784,-2.7989,0.0,0.0,0.0,0.0,0.0,0.0,0.0,0.0,0.0,0.0,0.0,0.0,0.0,0.0,-3.0255,-3.0026,-3.115,-3.1895,0.0,0.0,0.0,-3.4904,-3.5356,-3.56,-3.56,0.0,-3.3009,-3.3368,-3.1483,-3.0818,-3.119,-3.1292,-3.1752,-3.2496,-3.322,-3.3964,-3.4692,-3.5329,-3.56,-3.56,-3.56,-3.56,-3.56,-3.56,-3.5667,-3.5853,0.0,0.0,0.0,0.0,0.0,-1.2622,-1.3491,-1.4286,-1.4867,-1.5018,-1.5692,-1.6158,-1.6158,-1.6307,-1.6482,-1.6647,-1.6638,0.0,0.0,0.0,0.0,-1.6691,-1.6864,-1.7038,-1.7201,-1.6324,-1.6324,0.0,-1.6324,-1.6359,-1.7235,-1.7081,0.0,0.0,0.0,0.0,-1.7833,-1.7398,0.0,-1.774,-1.7132,-1.6908,-1.6908,-1.6908,-1.727,-1.7833,-1.7935,-1.8003,-1.8172,-1.9332,-1.9901,-2.0204,-2.0828,-2.1094,-2.119,-2.119,-2.1463,-2.1796,-2.1877,-2.2519,-2.3258,-2.3682,-2.4366,-2.5132,-2.5933,-2.6561,-2.7163,-2.7675,-2.8063,-2.8339,-2.8387,0.0,0.0,0.0,0.0,0.0,0.0,0.0,0.0,0.0,0.0,0.0,0.0,0.0,0.0,0.0,0.0,0.0,0.0,0.0,0.0,0.0,-3.5538,0.0,0.0,0.0,-3.3322,-3.3389,-3.182,-3.1131,-3.1207,-3.1836,-3.2513,-3.3254,-3.3981,-3.4726,-3.5414,-3.5549,-3.56,-3.56,-3.56,-3.56,-3.56,-3.56,-3.6028,-3.6609,0.0,0.0,0.0,0.0,0.0,0.0,0.0,-1.501,0.0,-1.5089,-1.5338,-1.5586,-1.5586,-1.6017,-1.6342,-1.6438,-1.6542,-1.6647,-1.6751,-1.683,-1.6908,-1.6908,-1.6908,0.0,-1.7038,0.0,-1.6577,-1.7038,-1.6577,-1.6621,0.0,0.0,0.0,-1.7072,0.0,-1.7672,0.0,0.0,0.0,-1.8509,-1.8138,-1.7978,-1.7978,-1.7978,-1.8206,-1.8576,-1.8967,-1.91,-1.9199,-1.9868,-2.0366,-2.0732,-2.1094,-2.119,-2.1253,-2.1494,-2.1733,-2.2002,-2.2549,-2.3017,-2.348,-2.3852,-2.458,-2.5356,-2.6027,-2.6771,-2.7509,-2.8014,-2.8275,-2.8411,-2.8411,-2.8779,0.0,0.0,0.0,0.0,0.0,0.0,0.0,0.0,0.0,0.0,0.0,0.0,0.0,0.0,0.0,0.0,0.0,0.0,0.0,0.0,0.0,0.0,0.0,0.0,0.0,-3.2814,-3.1715,-3.1393,-3.1785,-3.2141,-3.2919,-3.3981,-3.4336,-3.4928,-3.56,-3.56,-3.56,-3.56,-3.56,-3.56,-3.565,-3.6079,-3.6451,-3.6846,0.0,-1.1372,0.0,0.0,-1.331,0.0,-1.453,-1.5409,-1.5815,-1.5161,-1.5089,-1.5089,-1.5089,-1.5736,-1.6202,-1.6237,-1.6403,-1.6508,-1.6533,-1.6726,-1.683,-1.683,-1.6874,-1.6968,-1.7141,-1.7141,-1.721,0.0,-1.721,-1.7141,0.0,0.0,0.0,0.0,0.0,0.0,0.0,0.0,-1.9077,-1.921,-1.9077,-1.9011,-1.9011,-1.9011,-1.911,-1.9309,-1.9901,-2.0204,-2.0334,-2.0334,-2.0732,-2.119,-2.119,-2.1285,-2.1431,-2.1784,-2.2032,-2.2384,-2.318,-2.3463,-2.3671,-2.4171,-2.4836,-2.555,-2.624,-2.7019,-2.775,-2.8299,-2.8411,-2.842,-2.8541,-2.8943,0.0,0.0,0.0,0.0,0.0,0.0,0.0,0.0,0.0,0.0,0.0,0.0,0.0,0.0,0.0,-3.2005,-3.3115,-3.3863,-3.4607,0.0,0.0,-3.525,-3.4506,0.0,-3.3034,-3.2293,-3.1718,-3.1752,-3.231,-3.2615,-3.341,-3.4506,-3.4675,-3.5064,-3.56,-3.56,-3.56,-3.56,-3.56,-3.56,-3.5701,-3.6485,-3.6897,-3.7151,0.0,0.0,0.0,0.0,0.0,0.0,-1.4601,-1.5311,-1.5797,-1.5726,-1.5726,-1.5726,-1.5726,-1.5797,-1.5938,-1.6096,-1.6132,-1.6202,-1.6307,-1.6508,-1.6638,-1.6638,-1.6795,-1.7201,-1.7867,-1.7901,-1.8206,0.0,0.0,-1.7901,0.0,0.0,0.0,0.0,0.0,0.0,0.0,-1.9276,-1.9408,-1.9933,-1.9276,-1.9011,-1.9011,-1.9011,-1.9408,-1.9998,-2.0074,-2.0528,-2.1094,-2.1094,-2.1126,-2.119,-2.119,-2.1494,-2.1846,-2.1877,-2.2549,-2.3271,-2.3373,-2.37,-2.4171,-2.4778,-2.5147,-2.5673,-2.6771,-2.7316,-2.775,-2.8299,-2.8411,-2.8541,-2.8967,-2.9416,-2.9881,0.0,0.0,0.0,0.0,0.0,0.0,0.0,0.0,0.0,0.0,0.0,0.0,0.0,0.0,-3.1573,-3.2361,-3.3102,-3.3846,-3.4573,0.0,-3.525,-3.4506,-3.3778,-3.3034,-3.2293,-3.2226,-3.2226,-3.2344,-3.3698,-3.4353,-3.4523,-3.5216,-3.5532,-3.56,-3.56,-3.56,-3.56,-3.56,-3.56,-3.5701,-3.6485,-3.7212,-3.7905,0.0,0.0,0.0,0.0,0.0,0.0,0.0,-1.5711,-1.5805,-1.5805,-1.5805,-1.5805,-1.5805,-1.5805,-1.5832,-1.5894,-1.6035,-1.6132,-1.6167,-1.6342,-1.6473,-1.6603,-1.7088,-1.7569,-1.8003,-1.8398,-1.8744,0.0,0.0,0.0,0.0,0.0,0.0,0.0,0.0,-1.9562,-2.0096,-2.0269,-2.0495,-2.0732,-2.0431,-2.0334,-2.0334,-2.0334,-2.0495,-2.0764,-2.0764,-2.0967,-2.119,-2.119,-2.119,-2.1253,-2.1526,-2.1765,-2.2002,-2.261,-2.309,-2.3463,-2.373,-2.4216,-2.4706,-2.4948,-2.5591,-2.6336,-2.6849,-2.7433,-2.7915,-2.821,-2.8558,-2.8873,-2.9067,-2.9711,-3.0288,0.0,0.0,0.0,0.0,0.0,0.0,0.0,0.0,0.0,0.0,0.0,0.0,0.0,0.0,0.0,-3.2259,-3.2581,0.0,-3.3829,0.0,-3.3931,-3.319,-3.2903,-3.2598,-3.2293,-3.2293,-3.2767,-3.3647,-3.4218,-3.4742,-3.5182,-3.5464,-3.56,-3.56,-3.56,-3.56,-3.56,-3.56,-3.591,-3.64,-3.7178,-3.7922,-3.8667,-1.4872,0.0,-1.5142,0.0,-1.5875,-1.5836,-1.6243,-1.6122,-1.5925,-1.5814,-1.5805,-1.5805,-1.5805,-1.5805,-1.5805,-1.5805,-1.5929,-1.6,-1.6,-1.6175,-1.6377,-1.6682,-1.7329,0.0,-1.8442,-1.9044,-1.9441,-1.9639,-1.8967,0.0,0.0,0.0,0.0,0.0,-1.9868,-2.0226,-2.0463,-2.0999,-2.119,-2.119,-2.119,-2.119,-2.119,-2.119,-2.119,-2.119,-2.119,-2.119,-2.1221,-2.1368,-2.14,-2.1463,-2.1796,-2.2094,-2.2476,-2.318,-2.3492,-2.373,-2.4229,-2.4677,-2.509,-2.5411,-2.6109,-2.6774,-2.7097,-2.76,-2.8079,-2.8414,-2.8811,-2.9189,-2.9445,-3.0059,-3.0539,-3.0679,0.0,0.0,0.0,0.0,0.0,0.0,0.0,-3.1288,-3.1274,0.0,0.0,0.0,0.0,0.0,0.0,0.0,0.0,0.0,0.0,0.0,0.0,-3.253,-3.2513,-3.231,-3.275,-3.3495,-3.4506,-3.4726,-3.5115,-3.56,-3.56,-3.56,-3.56,-3.56,-3.56,-3.56,-3.56,-3.6096,-3.6897,-3.7635,-3.8362,-3.9106,-1.5527,-1.568,-1.5956,-1.6758,-1.688,-1.6781,-1.6441,-1.6336,-1.6163,-1.5848,-1.5805,-1.5805,-1.5805,-1.5805,-1.5805,-1.5805,-1.5805,-1.5805,-1.5805,-1.6,-1.6342,0.0,0.0,-1.8283,-1.9539,-1.9911,-2.0431,-2.1158,0.0,0.0,-2.0074,0.0,-1.9375,-2.0107,-2.0096,-2.0495,-2.119,-2.119,-2.119,-2.119,-2.119,-2.119,-2.119,-2.119,-2.119,-2.119,-2.119,-2.119,-2.1285,-2.1733,-2.1877,-2.1877,-2.1908,-2.258,-2.3373,-2.3403,-2.373,-2.4229,-2.4835,-2.4977,-2.5272,-2.6404,-2.6709,-2.6893,-2.7625,-2.7905,-2.821,-2.8951,-2.9097,-2.9377,-3.0314,-3.0497,-3.0642,-3.1131,0.0,0.0,0.0,0.0,0.0,0.0,-3.1383,-3.1421,-3.121,0.0,0.0,0.0,0.0,0.0,0.0,0.0,0.0,-3.231,-3.3017,0.0,-3.231,-3.3017,-3.3017,-3.2327,-3.3783,-3.4472,-3.4523,-3.5245,-3.5583,-3.56,-3.56,-3.56,-3.56,-3.56,-3.56,-3.56,-3.56,-3.6096,-3.6897,-3.7635,-3.8362,-3.9106,-1.7227,-1.7267,-1.7347,-1.7601,-1.7466,-1.7167,-1.679,-1.6516,-1.6216,-1.5848,-1.5805,-1.5805,-1.5805,-1.5805,-1.5805,0.0,-1.5805,-1.5805,0.0,-1.6202,-1.6586,-1.6874,-1.7901,-1.8811,-1.9572,-2.015,-2.07,-2.119,0.0,0.0,0.0,-1.9868,-2.0128,-2.086,-2.086,-2.0999,-2.119,-2.119,-2.119,-2.119,-2.119,-2.119,-2.119,-2.119,-2.119,-2.1253,-2.1557,-2.1671,-2.1765,-2.2206,-2.2628,-2.2927,-2.2927,-2.315,-2.3463,-2.3789,-2.4274,-2.475,-2.4948,-2.5578,-2.6244,-2.6604,-2.7023,-2.7382,-2.7625,-2.8082,-2.8574,-2.8904,-2.9534,-3.0145,-3.0439,-3.076,-3.1035,-3.1171,-3.119,0.0,0.0,0.0,0.0,0.0,0.0,-3.1269,0.0,-3.123,0.0,0.0,0.0,0.0,0.0,0.0,0.0,0.0,-3.1782,0.0,-3.2293,-3.253,-3.3055,-3.3816,-3.4269,-3.4759,-3.5267,-3.5481,-3.56,-3.56,-3.56,-3.56,-3.56,-3.56,-3.56,-3.565,-3.6197,-3.6874,-3.7635,-3.8379,-3.9106,-3.9791,-1.8,-1.8,-1.8,-1.8,-1.7723,-1.7346,-1.6978,-1.6639,-1.6261,-1.5848,-1.5805,-1.5805,-1.5805,-1.5973,0.0,-1.5841,-1.5805,-1.5903,-1.6105,-1.6403,-1.6855,-1.7417,-1.8307,-1.911,-1.9758,0.0,0.0,-2.119,-2.0732,-2.0495,-2.0495,-2.0495,-2.0764,-2.119,-2.119,-2.119,-2.119,-2.119,-2.119,-2.119,-2.119,-2.119,-2.1221,-2.14,-2.1463,-2.1526,-2.2002,-2.2144,-2.2249,-2.2738,-2.3125,-2.3433,-2.3611,-2.3806,-2.407,-2.4361,-2.4706,-2.509,-2.5522,-2.6163,-2.6747,-2.6997,-2.7331,-2.766,-2.7885,-2.8319,-2.885,-2.9348,-2.9995,-3.0559,-3.074,-3.1015,-3.119,-3.119,-3.119,-3.119,-3.119,0.0,0.0,0.0,0.0,0.0,0.0,-3.119,0.0,0.0,0.0,0.0,0.0,0.0,0.0,-3.1616,-3.1596,0.0,-3.2716,-3.2987,-3.3596,-3.4489,-3.4776,-3.5143,-3.56,-3.56,-3.56,-3.56,-3.56,-3.56,-3.56,-3.56,-3.56,-3.5667,-3.6508,-3.7246,-3.799,-3.8717,-3.9486,-4.0096,-1.8,-1.8,-1.8,0.0,-1.7723,0.0,-1.6978,-1.663,-1.6325,-1.5919,-1.5903,-1.5903,-1.5903,-1.6377,-1.6438,-1.5938,0.0,0.0,0.0,-1.6673,-1.7192,-1.8269,-1.861,-1.9199,-2.0042,-2.0366,-2.0743,-2.1158,-2.1158,-2.1158,-2.119,-2.1221,-2.1221,-2.119,-2.1221,-2.1253,-2.1253,-2.1253,-2.1285,-2.1285,-2.1285,-2.1285,-2.1348,-2.1796,-2.1939,-2.2002,-2.2482,-2.2665,-2.2725,-2.3258,-2.3492,-2.3582,-2.4024,-2.4563,-2.5061,-2.5005,-2.5061,-2.5356,-2.6404,-2.6736,-2.6893,-2.7473,-2.7625,-2.776,-2.8367,-2.8654,-2.9042,-3.0102,-3.0418,-3.0679,-3.1131,-3.119,-3.119,-3.119,-3.119,-3.119,-3.119,0.0,0.0,0.0,0.0,0.0,0.0,-3.119,-3.119,0.0,0.0,0.0,0.0,0.0,-3.1599,-3.2276,-3.2344,-3.2733,-3.3474,-3.415,-3.4523,-3.4573,-3.5261,-3.56,-3.56,-3.56,-3.56,-3.56,-3.56,-3.56,-3.56,-3.56,-3.5633,-3.5752,-3.6552,-3.7313,-3.8075,-3.8802,-3.952,-4.0096,0.0,0.0,-1.8,-1.8,-1.7723,-1.7346,-1.6978,-1.6963,-1.6857,-1.6456,-1.676,-1.7038,-1.7038,-1.7132,-1.7166,-1.7038,-1.7038,-1.7072,-1.7201,-1.7647,-1.8032,-1.8303,-1.8764,-1.9264,-1.9704,-1.9802,-2.0129,-2.0743,-2.0743,-2.0903,-2.1221,-2.1557,-2.1557,-2.1233,-2.1577,-2.1733,-2.1733,-2.1733,-2.1939,-2.2267,-2.2267,-2.2267,-2.2267,-2.239,-2.2439,-2.2512,-2.3035,-2.3198,-2.3288,-2.3776,-2.4245,-2.4635,-2.475,-2.516,-2.5522,-2.5104,-2.5633,-2.6351,-2.663,-2.7049,-2.7408,-2.756,-2.7675,-2.7875,-2.8383,-2.895,-2.9563,-3.0166,-3.0699,-3.1055,-3.1171,-3.119,-3.119,-3.119,-3.119,-3.119,-3.119,-3.119,0.0,0.0,-3.119,-3.119,-3.119,-3.119,-3.119,0.0,0.0,0.0,0.0,-3.2039,-3.2124,-3.2293,-3.2848,-3.3491,-3.4218,-3.4404,-3.4776,-3.5329,-3.5515,-3.56,-3.56,-3.56,-3.56,-3.56,-3.56,-3.56,-3.56,-3.56,-3.596,-3.6586,-3.7347,-3.8091,-3.8819,-3.9571,-3.996,-4.0096,-1.8402,-1.8482,-1.8461,-1.8553,-1.8264,-1.7907,-1.7475,-1.7342,-1.7217,-1.6987,-1.7235,-1.7407,-1.7407,-1.7647,-1.7818,-1.7818,-1.7545,-1.751,-1.7784,-1.8134,-1.8405,-1.864,-1.8942,-1.9274,-1.9605,-1.9605,-1.9933,-2.0603,-2.086,-2.1178,-2.1526,-2.2002,-2.2082,-2.1846,-2.2125,-2.2206,-2.2206,-2.2206,-2.2359,-2.2592,-2.2592,-2.2592,-2.2634,-2.2859,-2.2962,-2.3022,-2.3539,-2.373,-2.3789,-2.4332,-2.4734,-2.5033,-2.53,-2.5742,-2.6149,-2.5865,-2.6217,-2.6747,-2.7049,-2.7357,-2.7635,-2.787,-2.7968,-2.8222,-2.9012,-2.9518,-2.9978,-3.0497,-3.0918,-3.119,-3.119,-3.119,-3.119,-3.119,-3.119,-3.119,-3.119,-3.119,0.0,-3.119,-3.119,-3.119,-3.119,-3.1495,-3.1701,-3.1701,0.0,0.0,-3.278,-3.3123,-3.3309,-3.3309,-3.3677,-3.4252,-3.5013,-3.5013,-3.5194,-3.56,-3.56,-3.56,-3.56,-3.56,-3.56,-3.56,-3.56,-3.56,-3.5616,-3.6011,-3.64,-3.6914,-3.7973,-3.865,-3.9089,-3.9842,-4.0096,-4.0096,-1.8882,-1.9027,-1.907,-1.9182,-1.8872,-1.8464,-1.8078,-1.7742,-1.7545,-1.7545,-1.7613,-1.7647,-1.7647,-1.81,-1.8438,-1.8438,-1.7954,-1.7852,-1.8405,-1.8438,-1.8607,-1.9065,-1.9108,-1.9241,-1.9506,-1.9506,-1.9868,-2.0506,-2.1071,-2.1502,-2.1908,-2.2451,-2.2695,-2.2592,-2.2695,-2.2725,-2.2725,-2.2725,-2.2756,-2.2816,-2.2816,-2.2816,-2.2877,-2.3318,-2.3522,-2.3552,-2.3966,-2.4171,-2.4316,-2.4835,-2.5118,-2.5328,-2.5797,-2.6336,-2.6841,-2.6841,-2.6841,-2.6945,-2.7458,-2.7635,-2.782,-2.8304,-2.8448,-2.8717,-2.9755,-3.0157,-3.0474,-3.1046,-3.1263,-3.136,-3.136,-3.1275,-3.119,-3.119,-3.119,-3.119,-3.119,0.0,-3.119,-3.119,-3.1292,-3.136,-3.136,-3.2039,-3.2479,-3.2479,-3.3051,-3.3457,-3.3558,-3.415,-3.4539,-3.4658,-3.4675,-3.4979,-3.5583,-3.56,-3.56,-3.56,-3.56,-3.56,-3.56,-3.56,-3.56,-3.56,-3.56,-3.56,-3.565,-3.6451,-3.688,-3.7117,-3.8464,-3.9056,-3.9225,-3.9876,-4.0096,-4.0096,-1.8962,-1.9075,-1.9163,-1.9212,-1.859,-1.8088,-1.7996,-1.8089,-1.8168,-1.8168,-1.8563,-1.8831,-1.8831,-1.8931,-1.8975,-1.8975,-1.8908,-1.8865,-1.8965,-1.8975,-1.8998,-1.9108,-1.9108,-1.9108,-1.9175,-1.9175,-1.9528,-2.0172,-2.0698,-2.1302,-2.1908,-2.2823,-2.3035,-2.2634,-2.3065,-2.3271,-2.3271,-2.3271,-2.3509,-2.3865,-2.3865,-2.3865,-2.3865,-2.3966,-2.3995,-2.3995,-2.4083,-2.4419,-2.4863,-2.4977,-2.5646,-2.6457,-2.6537,-2.6956,-2.7473,-2.7473,-2.7473,-2.7484,-2.7575,-2.7894,-2.8328,-2.8826,-2.9067,-2.9296,-2.9875,-3.0615,-3.134,-3.1842,-3.2043,-3.2141,-3.2141,-3.1633,-3.119,-3.119,-3.119,-3.119,-3.119,0.0,-3.119,-3.119,-3.1752,-3.2141,-3.2141,-3.2797,-3.3237,-3.3237,-3.3339,-3.3677,-3.4303,-3.4438,-3.4793,-3.5397,-3.543,-3.5481,-3.56,-3.56,-3.56,-3.56,-3.56,-3.56,-3.56,-3.56,-3.56,-3.56,-3.56,-3.56,-3.565,-3.6451,-3.7185,-3.7821,-3.8667,-3.9377,-3.9943,-4.0062,-4.0096,-4.0096,-1.9639,-1.9707,-1.9691,-1.9561,-1.9217,-1.8894,-1.8621,-1.866,-1.8741,-1.8741,-1.8942,-1.9108,-1.9108,-1.9108,-1.9108,-1.9108,-1.9108,-1.9108,-1.9108,-1.9108,-1.9108,-1.9108,-1.9108,-1.9264,-1.9616,-1.9649,-2.0096,-2.108,-2.1573,-2.2113,-2.2732,-2.345,-2.3658,-2.3424,-2.3658,-2.3789,-2.3789,-2.3789,-2.3907,-2.4083,-2.4083,-2.4083,-2.4083,-2.4083,-2.4316,-2.4591,-2.4591,-2.4935,-2.5481,-2.5811,-2.627,-2.6762,-2.7074,-2.7382,-2.76,-2.76,-2.777,-2.7978,-2.7978,-2.8384,-2.8911,-2.9445,-2.9974,-3.0471,-3.1009,-3.1798,-3.2498,-3.2757,-3.284,-3.2882,-3.2882,-3.2611,-3.2374,-3.2374,-3.2374,0.0,0.0,-3.2374,-3.2374,-3.2374,-3.2679,-3.2882,-3.2882,-3.3558,-3.3981,-3.3981,-3.437,-3.4721,-3.5081,-3.5098,-3.5245,-3.5583,-3.56,-3.56,-3.56,-3.56,-3.56,-3.56,-3.56,-3.56,-3.56,-3.56,-3.56,-3.5616,-3.6062,-3.6293,-3.6441,-3.7523,-3.8224,-3.8662,-3.9391,-3.9858,-4.0113,-4.0188,-4.0163,-4.0096,-2.0149,-2.0155,-2.0024,-1.9848,-1.971,-1.9513,-1.916,-1.9108,-1.9108,-1.9108,-1.9108,-1.9108,-1.9108,-1.9108,-1.9164,-1.933,-1.933,-1.9396,-1.9551,-1.9551,-1.9485,-1.933,-1.9485,-1.9813,-2.0323,-2.0323,-2.0826,-2.1815,-2.2359,-2.2859,-2.333,-2.3848,-2.4083,-2.4083,-2.4083,-2.4083,-2.4083,-2.4083,-2.4083,-2.4083,-2.4083,-2.4171,-2.4316,-2.4316,-2.4664,-2.5188,-2.5188,-2.5536,-2.6095,-2.6537,-2.6788,-2.6997,-2.7458,-2.76,-2.76,-2.76,-2.8027,-2.8504,-2.8622,-2.9004,-2.9534,-3.0245,-3.092,-3.156,-3.2186,-3.2984,-3.3583,-3.3613,-3.3639,-3.366,-3.366,-3.3525,-3.3406,-3.3406,0.0,0.0,0.0,-3.3406,-3.3406,-3.3406,-3.3558,-3.366,-3.366,-3.432,-3.4759,-3.4759,-3.5278,-3.56,-3.56,-3.56,-3.56,-3.56,-3.56,-3.56,-3.56,-3.56,-3.5622,-3.5644,-3.5644,-3.5644,-3.5644,-3.5644,-3.5723,-3.5926,-3.6564,-3.7006,-3.7347,-3.856,-3.9103,-3.9285,-4.0016,-4.0238,-4.0163,-4.0263,-4.0238,-4.0138,-2.0212,-1.9991,-1.9806,-1.9803,-1.944,-1.9139,-1.9108,-1.9108,-1.9108,-1.9108,-1.9108,-1.9108,-1.9108,-1.9108,-1.9363,-1.9977,-2.0042,-2.0291,-2.0901,-2.0965,-2.0677,-2.0063,-2.0613,-2.0976,-2.1028,-2.1028,-2.1219,-2.1616,-2.2286,-2.2768,-2.3138,-2.3776,-2.4083,-2.4083,-2.4083,-2.4083,-2.4083,-2.4083,-2.4083,-2.4083,-2.4083,-2.4419,-2.492,-2.492,-2.5258,-2.5742,-2.5742,-2.6122,-2.6642,-2.6709,-2.7074,-2.7549,-2.76,-2.76,-2.76,-2.76,-2.8271,-2.9143,-2.9572,-2.9815,-3.0217,-3.1392,-3.1816,-3.2123,-3.2873,-3.3698,-3.4319,-3.4341,-3.4373,-3.4421,-3.4421,-3.3863,-3.3406,-3.3406,0.0,0.0,-3.3406,-3.3406,-3.3406,-3.3406,-3.3998,-3.4421,-3.4421,-3.5098,-3.5515,-3.5515,-3.5566,-3.56,-3.56,-3.56,-3.56,-3.56,-3.56,-3.56,-3.56,-3.56,-3.5667,-3.5795,-3.5795,-3.5795,-3.5795,-3.5795,-3.6118,-3.6728,-3.691,-3.7364,-3.8084,-3.8877,-3.9176,-3.9285,-4.0016,-4.0288,-4.0305,-4.0305,-4.0288,-4.028,-2.0058,-1.9891,-1.971,-1.9419,-1.9222,-1.9231,-1.9649,-1.9715,-1.9879,-2.0291,-2.0323,-2.0323,-2.0323,-2.0323,-2.0452,-2.0709,-2.0709,-2.0837,-2.1092,-2.1092,-2.0996,-2.0741,-2.0965,-2.127,-2.171,-2.171,-2.2082,-2.2841,-2.3095,-2.3395,-2.3717,-2.3966,-2.4083,-2.4083,-2.4083,-2.4083,-2.4112,-2.4505,-2.4677,-2.4706,-2.5006,-2.5286,-2.5508,-2.5508,-2.5851,-2.6363,-2.6363,-2.6747,-2.7255,-2.7255,-2.7408,-2.76,-2.76,-2.76,-2.771,-2.8343,-2.9132,-2.9948,-3.0696,-3.1061,-3.1473,-3.2372,-3.3084,-3.3621,-3.3907,-3.4587,-3.5149,-3.5149,-3.5155,-3.5182,-3.5182,-3.494,-3.4754,-3.4754,0.0,-3.4754,-3.4754,-3.4754,-3.4754,-3.4754,-3.5008,-3.5182,-3.5182,-3.543,-3.56,-3.56,-3.56,-3.56,-3.56,-3.56,-3.56,-3.56,-3.5667,-3.5689,-3.56,-3.5667,-3.5751,-3.5795,-3.5795,-3.6033,-3.6475,-3.6446,-3.6847,-3.7623,-3.8122,-3.8638,-3.907,-3.9647,-3.9978,-4.0134,-4.0358,-4.0362,-4.0305,-4.0387,-4.0362,-4.0288,-1.9917,-1.9839,-1.9775,-1.9482,-1.9584,-1.9879,-2.0323,-2.042,-2.0581,-2.1028,-2.1092,-2.1092,-2.1092,-2.1092,-2.1187,-2.1408,-2.1471,-2.1596,-2.1827,-2.1846,-2.1784,-2.1534,-2.1721,-2.2063,-2.2543,-2.2573,-2.2902,-2.3599,-2.3658,-2.3819,-2.4037,-2.4083,-2.4083,-2.4083,-2.4083,-2.42,-2.4419,-2.4806,-2.5118,-2.5286,-2.566,-2.5906,-2.6095,-2.6095,-2.6443,-2.6997,-2.6997,-2.7255,-2.76,-2.76,-2.76,-2.76,-2.76,-2.775,-2.8117,-2.9147,-2.9943,-3.0744,-3.195,-3.2468,-3.2754,-3.3316,-3.3938,-3.4513,-3.4793,-3.525,-3.56,-3.56,-3.56,-3.56,-3.56,-3.56,-3.56,-3.56,-3.56,-3.56,-3.56,-3.56,-3.56,-3.56,-3.56,-3.56,-3.56,-3.56,-3.56,-3.56,-3.56,-3.56,-3.56,-3.56,-3.56,-3.56,-3.5926,-3.6062,-3.5994,-3.6129,-3.6219,-3.6219,-3.644,-3.6792,-3.7262,-3.7233,-3.7681,-3.8493,-3.9075,-3.9559,-3.9982,-4.028,-4.0527,-4.0697,-4.0583,-4.0485,-4.0387,-4.051,-4.0485,-4.0362,-1.9827,-1.998,-2.0096,-2.0096,-2.0645,-2.1092,-2.1092,-2.1092,-2.1092,-2.1092,-2.1135,-2.1135,-2.1135,-2.1135,-2.1408,-2.2039,-2.2298,-2.2689,-2.3373,-2.3539,-2.3245,-2.2433,-2.3047,-2.3463,-2.3599,-2.3599,-2.3599,-2.3599,-2.3819,-2.392,-2.392,-2.4067,-2.4112,-2.4112,-2.4112,-2.4447,-2.5005,-2.5005,-2.5314,-2.581,-2.581,-2.6176,-2.6709,-2.6709,-2.7074,-2.76,-2.76,-2.76,-2.76,-2.76,-2.76,-2.76,-2.76,-2.8079,-2.8826,-2.9908,-3.0655,-3.1516,-3.3303,-3.3904,-3.4034,-3.4186,-3.4264,-3.4521,-3.5391,-3.56,-3.56,-3.56,-3.56,-3.56,-3.56,-3.56,-3.56,-3.56,-3.56,-3.56,-3.56,-3.56,-3.56,-3.56,-3.56,-3.56,-3.56,-3.56,-3.56,-3.56,-3.56,-3.56,-3.56,-3.56,-3.56,-3.56,-3.6383,-3.6812,-3.6812,-3.7002,-3.7098,-3.7115,-3.7832,-3.8127,-3.801,-3.8144,-3.8587,-3.9217,-3.9487,-4.0017,-4.0697,-4.0697,-4.0697,-4.0697,-4.0697,-4.0624,-4.0534,-4.0648,-4.0624,-4.051,-2.0676,-2.0746,-2.0805,-2.0805,-2.0965,-2.125,-2.1741,-2.1803,-2.1959,-2.2445,-2.2506,-2.2506,-2.2506,-2.2641,-2.2793,-2.2975,-2.3155,-2.3318,-2.3539,-2.3569,-2.3569,-2.345,-2.3509,-2.3569,-2.3599,-2.3599,-2.3658,-2.3819,-2.4261,-2.4536,-2.4677,-2.509,-2.5273,-2.5273,-2.5273,-2.5384,-2.5577,-2.6001,-2.6297,-2.6484,-2.6904,-2.7163,-2.7331,-2.7331,-2.7433,-2.76,-2.76,-2.76,-2.76,-2.76,-2.76,-2.775,-2.8591,-2.9327,-3.0068,-3.115,-3.2014,-3.2828,-3.37,-3.4418,-3.491,-3.4956,-3.5048,-3.5211,-3.5526,-3.56,-3.56,-3.56,-3.56,-3.56,-3.56,-3.56,-3.56,-3.56,-3.56,-3.56,-3.56,-3.56,-3.56,-3.56,-3.56,-3.56,-3.56,-3.56,-3.56,-3.56,-3.56,-3.56,-3.56,-3.6146,-3.6434,-3.6434,-3.7221,-3.764,-3.764,-3.771,-3.778,-3.7866,-3.8001,-3.8393,-3.8969,-3.8915,-3.9323,-4.0136,-4.0306,-4.0562,-4.084,-4.0745,-4.0745,-4.084,-4.0745,-4.0673,-4.0648,-4.0697,-4.0673,-4.0624,-2.1097,-2.1313,-2.1491,-2.1491,-2.1721,-2.2032,-2.2433,-2.2555,-2.275,-2.3168,-2.3258,-2.3288,-2.3288,-2.342,-2.348,-2.348,-2.3641,-2.376,-2.3776,-2.3806,-2.3848,-2.3979,-2.4099,-2.4028,-2.3806,-2.3806,-2.3953,-2.4345,-2.465,-2.4978,-2.5314,-2.566,-2.5783,-2.5783,-2.5783,-2.5933,-2.6176,-2.6537,-2.6841,-2.71,-2.7458,-2.76,-2.76,-2.76,-2.76,-2.76,-2.76,-2.76,-2.7645,-2.7914,-2.8308,-2.8819,-2.9571,-3.0396,-3.1287,-3.2184,-3.2998,-3.3785,-3.429,-3.4848,-3.5314,-3.5377,-3.5446,-3.5514,-3.5577,-3.56,-3.56,-3.56,-3.56,-3.56,-3.56,-3.56,-3.56,-3.56,-3.56,-3.56,-3.56,-3.56,-3.56,-3.56,-3.56,-3.56,-3.56,-3.56,-3.56,-3.56,-3.5887,-3.6079,-3.6079,-3.6806,-3.7229,-3.7229,-3.7977,-3.8398,-3.8398,-3.8686,-3.8758,-3.8598,-3.887,-3.9262,-3.9747,-3.9788,-4.0075,-4.0583,-4.0721,-4.084,-4.0894,-4.0817,-4.084,-4.0888,-4.0745,-4.0697,-4.0697,-4.0697,-4.0697,-4.0697,-2.1282,-2.1772,-2.2206,-2.2206,-2.272,-2.3138,-2.3138,-2.33,-2.3433,-2.3433,-2.3509,-2.3599,-2.3599,-2.3628,-2.3658,-2.3675,-2.3936,-2.4112,-2.4245,-2.4245,-2.4245,-2.4245,-2.4778,-2.4806,-2.4245,-2.4245,-2.4534,-2.5061,-2.5118,-2.5398,-2.5864,-2.5933,-2.5946,-2.5946,-2.5946,-2.6283,-2.6788,-2.6788,-2.71,-2.76,-2.76,-2.76,-2.76,-2.76,-2.76,-2.76,-2.766,-2.769,-2.7794,-2.8535,-2.957,-3.0567,-3.0644,-3.1469,-3.2504,-3.3129,-3.3795,-3.4448,-3.4994,-3.5222,-3.536,-3.5492,-3.5514,-3.552,-3.5577,-3.56,-3.56,-3.56,-3.56,-3.56,-3.56,-3.56,-3.56,-3.56,-3.56,-3.56,-3.56,-3.56,-3.56,-3.56,-3.56,-3.56,-3.56,-3.5667,-3.5718,-3.5802,-3.6485,-3.6897,-3.6897,-3.7601,-3.8007,-3.8007,-3.87,-3.9089,-3.9089,-3.9774,-3.9849,-3.9343,-4.0112,-4.0436,-4.0337,-4.06,-4.0697,-4.0697,-4.084,-4.0912,-4.0912,-4.0912,-4.0912,-4.0888,-4.0769,-4.0721,-4.0721,-4.0721,-4.0721,-4.0721,-2.2567,-2.2781,-2.2871,-2.2871,-2.3138,-2.333,-2.333,-2.345,-2.3569,-2.3569,-2.3569,-2.3599,-2.3599,-2.373,-2.4011,-2.4436,-2.5021,-2.5412,-2.5439,-2.5439,-2.5439,-2.5439,-2.555,-2.5577,-2.5439,-2.5439,-2.5495,-2.5632,-2.6109,-2.6404,-2.651,-2.6982,-2.7214,-2.7214,-2.7214,-2.728,-2.7408,-2.7408,-2.7484,-2.76,-2.76,-2.76,-2.76,-2.76,-2.76,-2.766,-2.8188,-2.8368,-2.855,-2.9622,-3.0809,-3.1909,-3.2498,-3.3177,-3.3908,-3.461,-3.5018,-3.5251,-3.5377,-3.5458,-3.5532,-3.5571,-3.5594,-3.5577,-3.56,-3.56,-3.56,-3.56,-3.56,-3.56,-3.56,-3.56,-3.56,-3.56,-3.56,-3.56,-3.56,-3.56,-3.56,-3.56,-3.56,-3.56,-3.56,-3.618,-3.6772,-3.7364,-3.7567,-3.7669,-3.7669,-3.8362,-3.8751,-3.8751,-3.9486,-3.9859,-3.9859,-4.0128,-4.0228,-4.0222,-4.0294,-4.0453,-4.0624,-4.0673,-4.0697,-4.0697,-4.084,-4.0912,-4.0912,-4.0912,-4.0912,-4.0912,-4.0864,-4.0864,-4.0864,-4.0864,-4.0864,-4.084,-2.3168,-2.3288,-2.3348,-2.3348,-2.342,-2.3509,-2.3509,-2.3641,-2.376,-2.376,-2.4041,-2.4261,-2.4261,-2.4593,-2.4921,-2.5203,-2.5563,-2.5783,-2.5783,-2.5783,-2.5783,-2.5783,-2.6095,-2.6229,-2.6229,-2.6522,-2.6522,-2.6229,-2.6537,-2.6841,-2.7126,-2.7458,-2.76,-2.76,-2.76,-2.76,-2.76,-2.76,-2.76,-2.76,-2.76,-2.76,-2.76,-2.76,-2.7809,-2.8113,-2.8472,-2.9181,-3.0083,-3.0949,-3.2092,-3.3178,-3.3583,-3.4136,-3.4723,-3.5158,-3.54,-3.5492,-3.5492,-3.5566,-3.56,-3.56,-3.56,-3.56,-3.56,-3.56,-3.56,-3.56,-3.56,-3.56,-3.56,-3.56,-3.56,-3.56,-3.56,-3.56,-3.56,-3.56,-3.56,-3.56,-3.56,-3.5752,-3.6146,-3.6874,-3.7483,-3.7872,-3.8227,-3.843,-3.843,-3.9106,-3.9512,-3.9512,-3.991,-4.0121,-4.0188,-4.0263,-4.0404,-4.0583,-4.0527,-4.0551,-4.0697,-4.0769,-4.0793,-4.0793,-4.0864,-4.0912,-4.0912,-4.0912,-4.0912,-4.0894,-4.084,-4.084,-4.0888,-4.084,-4.0752,-4.0704,-2.3433,-2.3509,-2.3599,-2.3599,-2.3628,-2.3658,-2.3658,-2.3819,-2.3979,-2.4054,-2.462,-2.5033,-2.5146,-2.5646,-2.596,-2.596,-2.6054,-2.6122,-2.6122,-2.6122,-2.6122,-2.6122,-2.659,-2.6852,-2.6852,-2.7331,-2.7357,-2.6852,-2.6852,-2.7126,-2.76,-2.76,-2.76,-2.76,-2.76,-2.76,-2.76,-2.76,-2.76,-2.76,-2.76,-2.766,-2.7764,-2.7764,-2.8235,-2.8929,-2.9049,-3.0284,-3.1935,-3.237,-3.3292,-3.4234,-3.4325,-3.4706,-3.5175,-3.5291,-3.5423,-3.5514,-3.5514,-3.5549,-3.56,-3.56,-3.56,-3.56,-3.56,-3.56,-3.56,-3.56,-3.56,-3.56,-3.56,-3.56,-3.56,-3.56,-3.56,-3.56,-3.56,-3.56,-3.565,-3.5785,-3.5904,-3.6315,-3.71,-3.7719,-3.8142,-3.8278,-3.8836,-3.9174,-3.9174,-3.9774,-4.0096,-4.0096,-4.0096,-4.0163,-4.0263,-4.0313,-4.0453,-4.0673,-4.0721,-4.0721,-4.0745,-4.0864,-4.0912,-4.0912,-4.0912,-4.0912,-4.0912,-4.0912,-4.0912,-4.0888,-4.0793,-4.0793,-4.0871,-4.0745,-4.0624,-4.0558,-2.3569,-2.3599,-2.3599,-2.3599,-2.376,-2.3861,-2.3861,-2.3966,-2.4258,-2.4778,-2.4948,-2.5188,-2.5632,-2.6229,-2.659,-2.659,-2.706,-2.7357,-2.7357,-2.7357,-2.7357,-2.7357,-2.7433,-2.7473,-2.7473,-2.7575,-2.756,-2.7473,-2.7473,-2.7524,-2.76,-2.76,-2.76,-2.76,-2.76,-2.76,-2.76,-2.76,-2.76,-2.76,-2.76,-2.7959,-2.8457,-2.8457,-2.9171,-3.0222,-3.081,-3.2207,-3.3754,-3.3813,-3.4268,-3.4811,-3.4947,-3.5111,-3.5291,-3.5446,-3.552,-3.5577,-3.5577,-3.56,-3.56,-3.56,-3.56,-3.56,-3.56,-3.56,-3.56,-3.56,-3.56,-3.56,-3.56,-3.56,-3.56,-3.56,-3.56,-3.56,-3.56,-3.56,-3.5853,-3.6535,-3.7195,-3.7889,-3.8616,-3.8785,-3.9106,-3.9757,-3.9893,-3.996,-3.996,-4.0045,-4.0096,-4.0096,-4.0096,-4.0113,-4.0138,-4.0362,-4.0485,-4.0534,-4.0752,-4.0871,-4.0871,-4.0888,-4.0912,-4.0912,-4.0912,-4.0912,-4.0912,-4.0912,-4.0912,-4.0912,-4.0888,-4.0871,-4.0871,-4.0745,-4.0697,-4.0673,-2.376,-2.3819,-2.3878,-2.3878,-2.4216,-2.4505,-2.4505,-2.4821,-2.5147,-2.5425,-2.5756,-2.6055,-2.6297,-2.6826,-2.7203,-2.7203,-2.7433,-2.76,-2.76,-2.76,-2.76,-2.76,-2.76,-2.76,-2.76,-2.76,-2.76,-2.76,-2.76,-2.76,-2.76,-2.76,-2.76,-2.76,-2.76,-2.76,-2.76,-2.76,-2.76,-2.763,-2.8019,-2.8323,-2.8663,-2.936,-3.0179,-3.1129,-3.2431,-3.3406,-3.4151,-3.4521,-3.4828,-3.5041,-3.5268,-3.536,-3.5429,-3.5543,-3.5594,-3.56,-3.56,-3.56,-3.56,-3.56,-3.56,-3.56,-3.56,-3.56,-3.56,-3.56,-3.56,-3.56,-3.56,-3.56,-3.56,-3.56,-3.56,-3.56,-3.56,-3.5994,-3.6552,-3.7313,-3.8058,-3.8633,-3.8954,-3.9385,-3.9757,-4.0079,-4.0096,-4.0096,-4.0096,-4.0096,-4.0096,-4.0096,-4.0096,-4.0138,-4.0213,-4.0337,-4.0461,-4.0607,-4.0745,-4.084,-4.0912,-4.0912,-4.0912,-4.0912,-4.0912,-4.0912,-4.0912,-4.0912,-4.0912,-4.0912,-4.0912,-4.0912,-4.0871,-4.0745,-4.0697,-4.0697]},{"header":{"parameterUnit":"m.s-1","parameterCategory":1,"la1":30.6,"la2":28.766,"lo1":-90.7593,"lo2":-88.6598,"dx":0.0162,"dy":0.0183,"nx":116,"ny":114,"refTime":"2023-01-28T06:00:00:Z","depth":0,"parameterNumber":3,"parameterNumberName":"V-component_of_WINDS"},"data":[0.0,0.0,0.0,0.0,0.0,0.0,0.0,0.0,0.0,0.0,0.0,0.0,0.0,0.0,0.0,0.0,0.0,0.0,0.0,0.0,0.0,0.0,0.0,0.0,0.0,0.0,0.0,0.0,0.0,0.0,0.0,0.0,0.0,0.0,0.0,0.0,0.0,0.0,0.0,0.0,0.0,0.0,0.0,0.0,0.0,0.0,0.0,0.0,0.0,0.0,0.0,0.0,0.0,0.0,0.0,0.0,0.0,0.0,0.0,0.0,0.0,0.0,0.0,0.0,0.0,0.0,0.0,0.0,0.0,0.0,0.0,0.0,0.0,0.0,0.0,0.0,0.0,0.0,0.0,0.0,0.0,0.0,0.0,0.0,0.0,0.0,0.0,0.0,0.0,0.0,0.0,0.0,0.0,0.0,0.0,0.0,0.0,0.0,0.0,0.0,0.0,0.0,0.0,0.0,0.0,0.0,0.0,0.0,0.0,0.0,0.0,0.0,0.0,0.0,0.0,0.0,0.0,0.0,0.0,0.0,0.0,0.0,0.0,0.0,0.0,0.0,0.0,0.0,0.0,0.0,0.0,0.0,0.0,0.0,0.0,0.0,0.0,0.0,0.0,0.0,0.0,0.0,0.0,0.0,0.0,0.0,0.0,0.0,0.0,0.0,0.0,0.0,0.0,0.0,0.0,0.0,0.0,0.0,0.0,0.0,0.0,0.0,0.0,0.0,0.0,0.0,0.0,0.0,0.0,0.0,0.0,0.0,0.0,0.0,0.0,0.0,0.0,0.0,0.0,0.0,0.0,0.0,0.0,0.0,0.0,0.0,0.0,0.0,0.0,0.0,0.0,0.0,0.0,0.0,0.0,0.0,0.0,0.0,0.0,0.0,0.0,0.0,0.0,0.0,0.0,0.0,0.0,0.0,0.0,0.0,0.0,0.0,0.0,0.0,0.0,0.0,0.0,0.0,0.0,0.0,0.0,0.0,0.0,0.0,0.0,0.0,0.0,0.0,0.0,0.0,0.0,0.0,0.0,0.0,0.0,0.0,0.0,0.0,0.0,0.0,0.0,0.0,0.0,0.0,0.0,0.0,0.0,0.0,0.0,0.0,0.0,0.0,0.0,0.0,0.0,0.0,0.0,0.0,0.0,0.0,0.0,0.0,0.0,0.0,0.0,0.0,0.0,0.0,0.0,0.0,0.0,0.0,0.0,0.0,0.0,0.0,0.0,0.0,0.0,0.0,0.0,0.0,0.0,0.0,0.0,0.0,0.0,0.0,0.0,0.0,0.0,0.0,0.0,0.0,0.0,0.0,0.0,0.0,0.0,0.0,0.0,0.0,0.0,0.0,0.0,0.0,0.0,0.0,0.0,0.0,0.0,0.0,0.0,0.0,0.0,0.0,0.0,0.0,0.0,0.0,0.0,0.0,0.0,0.0,0.0,0.0,0.0,0.0,0.0,0.0,0.0,0.0,0.0,0.0,0.0,0.0,0.0,0.0,0.0,0.0,0.0,0.0,0.0,0.0,0.0,0.0,0.0,0.0,0.0,0.0,0.0,0.0,0.0,0.0,0.0,0.0,0.0,0.0,0.0,0.0,0.0,0.0,0.0,0.0,0.0,0.0,0.0,0.0,0.0,0.0,0.0,0.0,0.0,0.0,0.0,0.0,0.0,0.0,0.0,0.0,0.0,0.0,0.0,0.0,0.0,0.0,0.0,0.0,0.0,0.0,0.0,0.0,0.0,0.0,0.0,0.0,0.0,0.0,0.0,0.0,0.0,0.0,0.0,0.0,0.0,0.0,0.0,0.0,0.0,0.0,0.0,0.0,0.0,0.0,0.0,0.0,0.0,0.0,0.0,0.0,0.0,0.0,0.0,0.0,0.0,0.0,0.0,0.0,0.0,0.0,0.0,0.0,0.0,0.0,0.0,0.0,0.0,0.0,0.0,0.0,0.0,0.0,0.0,0.0,0.0,0.0,0.0,0.0,0.0,0.0,0.0,0.0,0.0,0.0,0.0,0.0,0.0,0.0,0.0,0.0,0.0,0.0,0.0,0.0,0.0,0.0,0.0,0.0,0.0,0.0,0.0,0.0,0.0,0.0,0.0,0.0,0.0,0.0,0.0,0.0,0.0,0.0,0.0,0.0,0.0,0.0,0.0,0.0,0.0,0.0,0.0,0.0,0.0,0.0,0.0,0.0,0.0,0.0,0.0,0.0,0.0,0.0,0.0,0.0,0.0,0.0,0.0,0.0,0.0,0.0,0.0,0.0,0.0,0.0,0.0,0.0,0.0,0.0,0.0,0.0,0.0,0.0,0.0,0.0,0.0,0.0,0.0,0.0,0.0,0.0,0.0,0.0,0.0,0.0,0.0,0.0,0.0,0.0,0.0,0.0,0.0,0.0,0.0,0.0,0.0,0.0,0.0,0.0,0.0,0.0,0.0,0.0,0.0,0.0,0.0,0.0,0.0,0.0,0.0,0.0,0.0,0.0,0.0,0.0,0.0,0.0,0.0,0.0,0.0,0.0,0.0,0.0,0.0,0.0,0.0,0.0,0.0,0.0,0.0,0.0,0.0,0.0,0.0,0.0,0.0,0.0,0.0,0.0,0.0,0.0,0.0,0.0,0.0,0.0,0.0,0.0,0.0,0.0,0.0,0.0,0.0,0.0,0.0,0.0,0.0,0.0,0.0,0.0,0.0,0.0,0.0,0.0,0.0,0.0,0.0,0.0,0.0,0.0,0.0,0.0,0.0,0.0,0.0,0.0,0.0,0.0,0.0,0.0,0.0,0.0,0.0,0.0,0.0,0.0,0.0,0.0,0.0,0.0,0.0,0.0,0.0,0.0,0.0,0.0,0.0,0.0,0.0,0.0,0.0,0.0,0.0,0.0,0.0,0.0,0.0,0.0,0.0,0.0,0.0,0.0,0.0,0.0,0.0,0.0,0.0,0.0,0.0,0.0,0.0,0.0,0.0,0.0,0.0,0.0,0.0,0.0,0.0,0.0,0.0,0.0,0.0,0.0,0.0,0.0,0.0,0.0,0.0,0.0,0.0,0.0,0.0,0.0,0.0,0.0,0.0,0.0,0.0,0.0,0.0,0.0,0.0,0.0,0.0,0.0,0.0,0.0,0.0,0.0,0.0,0.0,0.0,0.0,0.0,0.0,0.0,0.0,0.0,0.0,0.0,0.0,0.0,0.0,0.0,0.0,0.0,0.0,0.0,0.0,0.0,0.0,0.0,0.0,0.0,0.0,0.0,0.0,0.0,0.0,0.0,0.0,0.0,0.0,0.0,0.0,0.0,0.0,0.0,0.0,0.0,0.0,0.0,0.0,0.0,0.0,0.0,0.0,0.0,0.0,0.0,0.0,0.0,0.0,0.0,0.0,0.0,0.0,0.0,0.0,0.0,0.0,0.0,0.0,0.0,0.0,0.0,0.0,0.0,0.0,0.0,0.0,0.0,0.0,0.0,0.0,0.0,0.0,0.0,0.0,0.0,0.0,0.0,0.0,0.0,0.0,0.0,0.0,0.0,0.0,0.0,0.0,0.0,0.0,0.0,0.0,0.0,0.0,0.0,0.0,0.0,0.0,0.0,0.0,0.0,0.0,0.0,0.0,0.0,0.0,0.0,0.0,0.0,0.0,0.0,0.0,0.0,0.0,0.0,0.0,0.0,0.0,0.0,0.0,0.0,0.0,0.0,0.0,0.0,0.0,0.0,0.0,0.0,0.0,0.0,0.0,0.0,0.0,0.0,0.0,0.0,0.0,0.0,0.0,0.0,0.0,0.0,0.0,0.0,0.0,0.0,0.0,0.0,0.0,0.0,0.0,0.0,0.0,0.0,0.0,0.0,0.0,0.0,0.0,0.0,0.0,0.0,0.0,0.0,0.0,0.0,0.0,0.0,0.0,0.0,0.0,0.0,0.0,0.0,0.0,0.0,0.0,0.0,0.0,0.0,0.0,0.0,0.0,0.0,0.0,0.0,0.0,0.0,0.0,0.0,0.0,0.0,0.0,0.0,0.0,0.0,0.0,0.0,0.0,0.0,0.0,0.0,0.0,0.0,0.0,0.0,0.0,0.0,0.0,0.0,0.0,0.0,0.0,0.0,0.0,0.0,0.0,0.0,0.0,0.0,0.0,0.0,0.0,0.0,0.0,0.0,0.0,0.0,0.0,0.0,0.0,0.0,0.0,0.0,0.0,0.0,0.0,0.0,0.0,0.0,0.0,0.0,0.0,0.0,0.0,0.0,0.0,0.0,0.0,0.0,0.0,0.0,0.0,0.0,0.0,0.0,0.0,0.0,0.0,0.0,0.0,0.0,0.0,0.0,0.0,0.0,0.0,0.0,0.0,0.0,0.0,0.0,0.0,0.0,0.0,0.0,0.0,0.0,0.0,0.0,0.0,0.0,0.0,0.0,0.0,0.0,0.0,0.0,0.0,0.0,0.0,0.0,0.0,0.0,0.0,0.0,0.0,0.0,0.0,0.0,0.0,0.0,0.0,0.0,0.0,0.0,0.0,0.0,0.0,0.0,0.0,0.0,0.0,0.0,0.0,0.0,0.0,0.0,0.0,0.0,0.0,0.0,0.0,0.0,0.0,0.0,0.0,0.0,0.0,0.0,0.0,0.0,0.0,0.0,0.0,0.0,0.0,0.0,0.0,0.0,0.0,0.0,0.0,0.0,0.0,0.0,0.0,0.0,0.0,0.0,0.0,0.0,0.0,0.0,0.0,0.0,0.0,0.0,0.0,0.0,0.0,0.0,0.0,0.0,0.0,0.0,0.0,0.0,0.0,0.0,0.0,0.0,0.0,0.0,0.0,0.0,0.0,0.0,0.0,0.0,0.0,0.0,0.0,0.0,0.0,0.0,0.0,0.0,0.0,0.0,0.0,0.0,0.0,0.0,0.0,0.0,0.0,0.0,0.0,0.0,0.0,0.0,0.0,0.0,0.0,0.0,0.0,0.0,0.0,0.0,0.0,0.0,0.0,0.0,0.0,0.0,0.0,0.0,0.0,0.0,0.0,0.0,0.0,0.0,0.0,0.0,0.0,0.0,0.0,0.0,0.0,0.0,0.0,0.0,0.0,0.0,0.0,0.0,0.0,0.0,0.0,0.0,0.0,0.0,0.0,0.0,0.0,0.0,0.0,0.0,0.0,0.0,0.0,0.0,0.0,0.0,0.0,0.0,0.0,0.0,0.0,0.0,0.0,0.0,0.0,0.0,0.0,0.0,0.0,0.0,0.0,0.0,0.0,0.0,0.0,0.0,0.0,0.0,0.0,0.0,0.0,0.0,0.0,0.0,0.0,0.0,0.0,0.0,0.0,0.0,0.0,0.0,0.0,0.0,0.0,0.0,0.0,0.0,0.0,0.0,0.0,0.0,0.0,0.0,0.0,0.0,0.0,0.0,0.0,0.0,0.0,0.0,0.0,0.0,0.0,0.0,0.0,0.0,0.0,0.0,0.0,0.0,0.0,0.0,0.0,0.0,0.0,0.0,0.0,0.0,0.0,0.0,0.0,0.0,0.0,0.0,0.0,0.0,0.0,0.0,0.0,0.0,0.0,0.0,0.0,0.0,0.0,0.0,0.0,0.0,0.0,0.0,0.0,0.0,0.0,0.0,0.0,0.0,0.0,0.0,0.0,0.0,0.0,0.0,0.0,0.0,0.0,0.0,0.0,0.0,0.0,0.0,0.0,0.0,0.0,0.0,0.0,0.0,0.0,0.0,0.0,0.0,0.0,0.0,0.0,0.0,0.0,0.0,0.0,0.0,0.0,0.0,0.0,0.0,0.0,0.0,0.0,0.0,0.0,0.0,0.0,0.0,0.0,0.0,0.0,0.0,0.0,0.0,0.0,0.0,0.0,0.0,0.0,0.0,0.0,0.0,0.0,0.0,0.0,0.0,0.0,0.0,0.0,0.0,0.0,0.0,0.0,0.0,0.0,0.0,0.0,0.0,0.0,0.0,0.0,0.0,0.0,0.0,0.0,0.0,0.0,0.0,0.0,0.0,0.0,0.0,0.0,0.0,0.0,0.0,0.0,0.0,0.0,0.0,0.0,0.0,0.0,0.0,0.0,0.0,0.0,0.0,0.0,0.0,0.0,0.0,0.0,3.3886,0.0,0.0,0.0,0.0,0.0,0.0,0.0,0.0,0.0,0.0,0.0,0.0,0.0,0.0,0.0,0.0,0.0,0.0,0.0,0.0,0.0,0.0,0.0,0.0,0.0,0.0,0.0,0.0,0.0,0.0,0.0,0.0,0.0,0.0,0.0,0.0,0.0,0.0,0.0,0.0,0.0,0.0,0.0,0.0,0.0,0.0,0.0,0.0,0.0,0.0,0.0,0.0,0.0,0.0,0.0,0.0,0.0,0.0,0.0,0.0,0.0,0.0,0.0,0.0,0.0,0.0,0.0,0.0,0.0,0.0,0.0,0.0,0.0,0.0,0.0,0.0,0.0,0.0,0.0,0.0,0.0,0.0,0.0,0.0,0.0,0.0,0.0,0.0,0.0,0.0,0.0,0.0,0.0,0.0,0.0,0.0,0.0,0.0,0.0,0.0,0.0,0.0,0.0,0.0,0.0,0.0,0.0,0.0,0.0,0.0,0.0,0.0,0.0,0.0,0.0,0.0,3.3865,0.0,0.0,0.0,0.0,0.0,0.0,0.0,0.0,0.0,0.0,0.0,0.0,0.0,0.0,0.0,0.0,0.0,0.0,0.0,0.0,0.0,0.0,0.0,0.0,0.0,0.0,0.0,0.0,0.0,0.0,0.0,0.0,0.0,0.0,0.0,0.0,0.0,0.0,0.0,0.0,0.0,0.0,0.0,0.0,0.0,0.0,0.0,0.0,0.0,0.0,0.0,0.0,0.0,0.0,0.0,0.0,0.0,0.0,0.0,0.0,0.0,0.0,0.0,0.0,0.0,0.0,0.0,0.0,0.0,0.0,0.0,0.0,0.0,0.0,0.0,0.0,0.0,0.0,0.0,0.0,0.0,0.0,0.0,0.0,0.0,0.0,0.0,0.0,0.0,0.0,0.0,0.0,0.0,0.0,0.0,0.0,0.0,0.0,0.0,0.0,0.0,0.0,0.0,0.0,0.0,0.0,0.0,0.0,3.3532,3.3949,3.4727,3.4718,3.4756,3.4839,3.4531,3.4257,3.3972,0.0,0.0,0.0,0.0,0.0,0.0,0.0,0.0,0.0,0.0,0.0,0.0,0.0,0.0,0.0,0.0,0.0,0.0,0.0,0.0,0.0,0.0,0.0,0.0,0.0,0.0,0.0,0.0,0.0,0.0,0.0,0.0,0.0,0.0,0.0,0.0,0.0,0.0,0.0,3.3972,3.3972,3.3934,3.3873,3.3739,0.0,0.0,0.0,0.0,0.0,0.0,0.0,0.0,0.0,0.0,0.0,0.0,0.0,0.0,0.0,0.0,0.0,0.0,0.0,0.0,0.0,0.0,0.0,0.0,0.0,0.0,0.0,0.0,0.0,0.0,0.0,0.0,0.0,0.0,0.0,0.0,0.0,0.0,0.0,0.0,0.0,0.0,0.0,3.3963,3.4026,0.0,0.0,0.0,0.0,0.0,0.0,0.0,0.0,0.0,0.0,0.0,0.0,0.0,3.2694,3.2745,3.2695,3.2718,3.2832,3.2832,3.3279,3.4108,3.4006,3.4343,3.5048,3.4889,0.0,3.3998,3.3928,0.0,0.0,0.0,0.0,0.0,0.0,0.0,0.0,0.0,0.0,0.0,0.0,0.0,0.0,0.0,0.0,0.0,0.0,0.0,0.0,0.0,0.0,0.0,0.0,0.0,0.0,0.0,0.0,0.0,0.0,0.0,0.0,0.0,0.0,0.0,0.0,3.4023,3.3998,3.3998,3.4111,3.4153,3.4117,3.4056,3.3923,3.3766,3.3881,0.0,0.0,0.0,0.0,0.0,0.0,0.0,0.0,0.0,0.0,0.0,0.0,0.0,0.0,0.0,0.0,0.0,0.0,0.0,0.0,0.0,0.0,0.0,0.0,0.0,0.0,0.0,0.0,0.0,0.0,0.0,0.0,0.0,0.0,0.0,0.0,0.0,0.0,0.0,3.3692,3.3274,3.3384,3.3083,3.2641,0.0,0.0,0.0,0.0,0.0,0.0,0.0,0.0,0.0,3.0867,3.1212,3.1392,3.1392,3.1324,3.1763,3.2699,3.2699,3.3387,3.4674,3.4615,3.4783,3.5092,3.5048,3.4691,3.4173,3.4173,3.3908,3.3491,0.0,0.0,0.0,0.0,3.2972,3.2972,0.0,0.0,0.0,0.0,0.0,0.0,0.0,0.0,0.0,0.0,0.0,0.0,0.0,0.0,0.0,3.3375,0.0,0.0,0.0,0.0,0.0,0.0,0.0,0.0,0.0,0.0,0.0,3.4262,3.4203,3.4203,3.4225,3.439,3.4427,3.4442,3.4375,3.4225,3.4043,3.4179,3.4142,0.0,0.0,0.0,0.0,0.0,0.0,0.0,0.0,0.0,0.0,0.0,0.0,0.0,0.0,0.0,0.0,0.0,0.0,0.0,0.0,0.0,0.0,0.0,0.0,0.0,0.0,0.0,0.0,0.0,0.0,0.0,0.0,0.0,0.0,0.0,0.0,0.0,0.0,3.2999,3.2563,3.2733,3.255,3.2144,0.0,0.0,0.0,0.0,0.0,0.0,3.0342,3.0516,3.0641,3.0685,3.0711,3.0802,3.0956,3.0898,3.1501,3.2737,3.2737,3.3502,3.4917,3.4901,3.4994,3.5145,3.5084,3.4782,3.4344,3.4316,3.4023,3.3605,3.3605,3.3605,3.3591,3.3534,3.352,3.352,0.0,0.0,0.0,0.0,0.0,0.0,0.0,0.0,0.0,0.0,0.0,0.0,0.0,0.0,3.3788,3.3855,3.4124,3.4305,0.0,0.0,0.0,0.0,0.0,0.0,0.0,0.0,0.0,3.4663,3.4663,3.4734,3.4841,3.487,3.4841,3.4763,3.4575,3.4553,3.4643,3.439,3.439,3.454,0.0,0.0,0.0,0.0,0.0,0.0,0.0,0.0,0.0,0.0,0.0,0.0,0.0,0.0,0.0,0.0,0.0,0.0,0.0,0.0,0.0,0.0,0.0,0.0,0.0,0.0,0.0,0.0,0.0,0.0,0.0,0.0,0.0,0.0,0.0,0.0,0.0,0.0,0.0,3.2036,3.1313,0.0,0.0,0.0,0.0,3.0594,3.0646,3.0678,3.068,3.0683,3.1006,3.1708,3.1678,3.2004,3.2756,3.2691,3.2715,3.2792,3.2792,3.3271,3.4146,3.4083,3.45,3.5288,3.5019,3.4753,3.4475,3.4356,3.4023,3.3605,3.3605,3.3605,3.3605,3.3605,3.3591,3.3591,0.0,0.0,0.0,0.0,0.0,0.0,0.0,0.0,0.0,0.0,0.0,0.0,0.0,3.3928,3.4148,3.4221,3.4305,3.4363,3.4386,0.0,0.0,0.0,0.0,0.0,0.0,0.0,3.4822,3.4889,3.4889,3.4916,3.4971,3.5111,3.4822,3.4211,3.4143,3.39,3.3578,3.4272,3.4593,3.4663,3.4656,3.4563,0.0,0.0,0.0,0.0,0.0,0.0,0.0,0.0,0.0,0.0,0.0,0.0,0.0,0.0,0.0,0.0,0.0,0.0,0.0,0.0,0.0,0.0,0.0,0.0,0.0,0.0,0.0,0.0,0.0,0.0,0.0,0.0,0.0,0.0,0.0,0.0,0.0,3.1092,3.085,0.0,0.0,3.0725,3.0717,3.0607,3.1223,3.1543,3.1402,3.198,3.2403,3.2629,3.2574,3.2665,3.2967,3.2865,3.3086,3.3635,3.3635,3.4062,3.4875,3.4845,3.4975,3.5218,3.499,3.4745,3.4486,3.4309,3.4036,3.3726,3.3726,3.3726,3.3726,3.3671,3.3657,3.3675,0.0,0.0,0.0,0.0,0.0,0.0,0.0,0.0,0.0,0.0,0.0,3.3752,3.4011,3.4197,3.4328,3.4439,3.442,3.445,3.4473,0.0,0.0,0.0,3.4531,0.0,0.0,3.498,3.5075,3.5133,3.5133,3.5004,3.4776,3.4899,3.4466,3.3599,3.3535,3.329,3.2987,3.3693,3.4187,3.4508,3.4524,3.4604,3.4675,0.0,0.0,0.0,0.0,0.0,0.0,0.0,0.0,0.0,0.0,0.0,0.0,0.0,0.0,0.0,0.0,0.0,0.0,0.0,0.0,0.0,0.0,0.0,0.0,0.0,0.0,0.0,0.0,0.0,0.0,0.0,0.0,0.0,0.0,0.0,3.0572,3.0622,3.0916,3.1109,3.1098,3.14,3.1576,3.1523,3.2146,3.2461,3.2276,3.2854,3.3264,3.3423,3.3427,3.3538,3.3808,3.3743,3.3997,3.4573,3.4573,3.4839,3.5373,3.5342,3.53,3.5239,3.5006,3.4803,3.4605,3.4333,3.4099,3.3921,3.3847,3.3807,3.3775,3.3753,3.3739,3.3726,0.0,0.0,0.0,0.0,0.0,0.0,0.0,0.0,0.0,0.0,3.3743,3.3934,3.4269,3.4305,3.4351,3.4495,3.4506,3.4528,3.4612,3.4708,0.0,0.0,0.0,0.0,3.5114,3.5122,3.5209,3.5405,3.5405,3.5033,3.4331,3.4331,3.3884,3.3028,3.2837,3.2844,3.2973,3.2692,3.3156,3.4042,3.3842,3.4196,3.4812,0.0,0.0,0.0,0.0,0.0,0.0,0.0,0.0,0.0,0.0,0.0,0.0,0.0,0.0,0.0,0.0,0.0,0.0,0.0,0.0,0.0,0.0,0.0,0.0,0.0,0.0,0.0,0.0,0.0,0.0,0.0,0.0,0.0,3.0591,3.0574,3.0588,3.0715,3.1445,3.1937,3.1922,3.27,3.3239,3.3287,3.3377,3.338,3.3239,3.3289,3.3582,3.4166,3.4263,3.4686,3.5463,3.5556,3.5577,3.5577,3.5558,3.5538,3.5538,3.5446,3.5405,3.5372,3.5049,3.4897,3.486,3.4394,3.4197,3.4161,3.3895,3.3807,3.3807,3.3807,3.3807,3.3793,0.0,0.0,0.0,0.0,0.0,0.0,0.0,0.0,0.0,0.0,3.4068,3.4161,3.4351,3.4363,3.4439,3.455,3.4561,3.4623,3.4747,0.0,0.0,0.0,0.0,0.0,3.5316,3.5457,3.5565,3.562,3.562,3.5516,3.5325,3.5325,3.4825,3.3948,3.3882,3.355,3.294,3.2256,3.2449,3.3237,3.317,3.324,3.3421,0.0,0.0,0.0,0.0,0.0,0.0,0.0,0.0,0.0,0.0,0.0,0.0,0.0,0.0,0.0,0.0,0.0,0.0,0.0,0.0,0.0,0.0,0.0,0.0,0.0,0.0,0.0,0.0,0.0,0.0,0.0,0.0,3.1231,3.0603,3.1108,3.1493,3.1424,3.2217,3.2759,3.2701,3.3043,3.3264,3.3234,3.388,3.4211,3.4089,3.5224,3.5966,3.613,3.6677,3.7058,3.7281,3.7308,3.7315,3.7315,3.6673,3.637,3.6349,3.5748,3.542,3.5315,3.5138,3.4925,3.4734,3.4409,3.416,3.3972,3.386,3.3807,3.3807,3.3807,3.3807,3.3807,0.0,0.0,0.0,0.0,0.0,0.0,0.0,0.0,0.0,0.0,3.4185,3.4245,3.4393,3.4386,3.4461,3.4602,3.4655,3.4727,3.4788,0.0,0.0,0.0,0.0,3.5445,3.552,3.564,3.5702,3.5702,3.5711,3.5512,3.5164,3.5154,3.4673,3.3801,3.3796,3.3492,3.2964,3.2465,3.2306,3.241,3.2404,3.2589,3.2888,3.3207,3.3401,3.3528,3.3684,3.4165,3.4677,3.4558,0.0,0.0,0.0,0.0,0.0,0.0,0.0,0.0,0.0,0.0,0.0,0.0,0.0,0.0,0.0,0.0,0.0,0.0,0.0,0.0,0.0,0.0,0.0,0.0,3.1407,3.1705,3.1562,3.201,3.2334,3.2246,3.3021,3.3553,3.35,3.3964,3.4408,3.4734,3.5286,3.5706,3.5941,3.6867,3.7396,3.736,3.7781,3.8007,3.8007,3.8007,3.8007,3.7988,3.7488,3.7243,3.7228,3.6378,3.596,0.0,3.5423,3.5096,3.486,3.4582,3.4337,0.0,0.0,0.0,0.0,0.0,3.3807,3.3807,0.0,0.0,0.0,0.0,0.0,0.0,0.0,0.0,0.0,0.0,0.0,3.4245,3.4363,3.4404,3.445,3.4591,3.4697,3.4788,0.0,0.0,0.0,3.5554,3.5496,3.5525,3.5707,3.5694,3.5708,3.5708,3.5703,3.5306,3.4551,3.4545,3.4123,3.3397,3.3401,3.3354,3.3282,3.3195,3.2697,3.1974,3.1775,3.2064,3.2602,3.2638,3.2661,3.2663,3.2695,3.3196,3.3853,3.3853,0.0,0.0,0.0,0.0,0.0,0.0,0.0,0.0,0.0,0.0,0.0,0.0,0.0,0.0,0.0,0.0,0.0,0.0,0.0,0.0,0.0,0.0,0.0,0.0,3.1868,3.2257,3.3028,3.3215,3.3253,3.3157,3.3846,3.4359,3.4359,3.5191,3.6066,3.6822,3.7036,3.7414,3.8047,0.0,0.0,0.0,0.0,3.8277,3.8277,3.8277,3.8277,3.8277,3.818,3.8142,3.8123,3.7238,3.6788,3.6654,3.5854,3.535,3.5062,3.4803,3.4556,3.4316,3.4023,3.3855,3.3807,3.3807,3.3807,3.3807,0.0,0.0,0.0,0.0,0.0,0.0,0.0,0.0,0.0,3.4086,3.4161,3.4233,3.4305,3.4381,3.442,3.4517,3.4583,3.4718,0.0,0.0,3.5304,3.5431,3.5575,3.5667,3.5707,3.5694,3.5708,3.5708,3.5704,3.5611,3.5456,3.5451,3.5358,3.5201,3.5195,3.516,3.5054,3.4349,3.3928,3.3608,3.2249,3.1334,3.088,3.1564,3.1799,3.1821,3.2466,3.2814,3.2947,3.2947,3.3043,3.3177,3.3177,0.0,0.0,0.0,0.0,0.0,0.0,0.0,0.0,0.0,0.0,0.0,0.0,0.0,0.0,0.0,0.0,0.0,0.0,0.0,0.0,3.159,3.2841,3.3845,3.3942,3.4558,3.4751,3.4045,3.4725,3.525,3.525,3.6092,3.6663,3.6728,3.7455,3.7931,3.8019,3.8686,0.0,3.9053,3.9688,4.0015,4.0015,4.0015,4.0015,4.0015,0.0,0.0,3.9015,3.8142,3.7353,3.6685,3.6347,3.5723,3.4917,3.472,3.4409,3.4074,3.3947,3.3855,3.3807,3.3807,3.3807,3.3807,0.0,0.0,0.0,0.0,0.0,0.0,0.0,0.0,0.0,0.0,3.4111,3.4197,3.4328,3.4374,3.445,3.4539,3.4645,0.0,0.0,3.5171,3.5326,3.5398,3.559,3.5708,3.5708,3.5722,3.5741,3.5741,3.5718,3.5699,3.5708,3.5702,3.5701,3.5704,3.5704,3.5648,3.5562,3.5145,3.4665,3.4096,3.2845,3.1801,3.1001,3.0964,3.0925,3.0949,3.1329,3.1721,3.2107,3.2107,3.2374,3.2699,3.2699,3.2699,3.2699,0.0,0.0,0.0,0.0,0.0,0.0,0.0,0.0,0.0,0.0,0.0,0.0,0.0,0.0,3.0912,0.0,0.0,3.2439,3.2846,3.3666,3.4384,3.4783,3.5231,3.5346,3.4911,3.5231,3.5654,3.6058,3.6511,3.7121,3.7938,3.8437,3.8849,3.9227,3.9669,3.99,3.99,4.0285,4.0496,4.0496,4.0496,4.0496,4.0496,4.0092,3.99,3.9881,3.9027,3.8347,3.7773,3.7205,3.634,3.5296,3.4622,3.4197,3.3947,3.3908,3.3855,3.3807,3.3807,3.3807,3.3807,0.0,0.0,0.0,0.0,0.0,0.0,0.0,0.0,0.0,0.0,3.4049,3.4161,3.4316,3.4351,3.442,0.0,0.0,0.0,0.0,3.5119,3.5281,3.5391,3.5554,3.5659,3.5699,3.5741,3.5782,3.5782,3.5727,3.5704,3.5699,3.5697,3.569,3.5704,3.5704,3.5673,3.5612,3.562,3.516,3.4378,3.3383,3.255,3.1827,3.0726,3.0311,3.0292,3.0227,3.0652,3.1243,3.1255,3.1675,3.2203,3.2203,3.2203,3.2203,3.2203,3.2203,0.0,0.0,0.0,0.0,0.0,0.0,0.0,0.0,0.0,3.0483,3.0567,3.1245,3.1853,3.186,3.2571,3.3372,3.409,3.434,3.4699,3.5404,3.55,3.55,3.55,3.5635,3.5981,3.6635,3.7,3.7796,3.9188,3.9438,3.9823,4.0477,4.0496,4.0496,4.0496,4.0496,4.0496,4.0496,4.0496,4.0496,4.0496,4.0496,4.0496,4.0477,3.9784,3.9273,3.8821,3.7662,3.6598,3.561,3.4507,3.3998,3.3895,3.3881,3.386,3.3807,3.3807,3.3807,3.3807,0.0,0.0,0.0,0.0,0.0,0.0,0.0,0.0,0.0,0.0,0.0,0.0,0.0,0.0,0.0,0.0,0.0,0.0,3.4889,3.4926,3.5077,3.5385,3.5412,3.5531,3.5688,3.5699,3.5713,3.5713,3.5708,3.5694,3.5693,3.5707,3.5692,3.5704,3.5704,3.5704,3.5679,3.5628,3.554,3.5296,3.3596,3.2859,3.2583,3.1,3.0342,3.0292,3.0215,3.0265,3.0353,3.0352,3.0414,3.0472,3.0472,3.0472,3.0472,3.0472,0.0,3.0472,3.0472,3.0411,3.0342,3.0245,3.02,3.0234,0.0,0.0,3.1398,3.1523,3.2185,3.2756,3.2744,3.3468,3.409,3.4186,3.4853,3.5385,3.5481,3.55,3.55,3.55,3.6135,3.6596,3.6692,3.8104,3.9092,3.9284,3.9958,4.0419,4.0496,4.0496,4.0496,4.0496,4.0496,4.0496,4.0496,4.0496,4.0496,4.0496,4.0496,4.0496,4.0489,4.0217,3.9669,3.8793,3.6772,3.5688,3.5288,3.4328,3.3908,3.3895,3.3829,3.382,3.3807,3.3807,3.3807,3.3807,0.0,0.0,0.0,0.0,0.0,0.0,0.0,0.0,0.0,0.0,0.0,0.0,0.0,0.0,0.0,0.0,0.0,3.4528,3.4607,3.4713,3.4851,3.5049,3.5249,3.54,3.5525,3.5644,3.5708,3.5708,3.5694,3.5698,3.5707,3.5692,3.5695,3.5704,3.5668,3.5643,3.5599,3.5075,3.4814,3.4641,3.2903,3.2173,3.202,3.0803,3.0324,3.0292,3.0279,3.0221,0.0,0.0,3.0211,3.0211,3.0211,3.0211,3.0211,3.0211,3.0211,0.0,3.0292,3.0254,0.0,0.0,3.0267,3.0361,3.0951,3.1335,3.1712,3.2275,3.307,3.3667,3.366,3.4372,3.4968,0.0,3.525,3.55,3.55,3.55,3.55,3.55,3.6654,3.7469,3.7469,3.8565,3.9496,3.9958,4.0304,4.0496,4.0496,4.0496,4.0496,4.0496,4.0496,4.0496,4.0496,4.0496,4.0496,4.0496,4.0496,4.0441,4.0321,4.0242,3.9802,3.9059,3.7517,3.6498,3.5818,3.4949,3.431,3.3829,3.382,3.3807,3.3807,3.3807,3.3807,3.3807,0.0,0.0,0.0,0.0,0.0,0.0,0.0,0.0,0.0,0.0,0.0,0.0,0.0,0.0,0.0,0.0,0.0,3.4374,3.4386,3.4534,3.4672,3.4763,3.5051,3.5278,3.536,3.5566,3.5674,3.5664,3.5421,3.5314,3.5308,3.5074,3.4966,3.4947,3.4905,3.4874,3.4836,3.4197,3.3897,3.3718,3.2256,3.1648,3.1508,3.0631,3.0286,3.0273,3.0273,3.024,0.0,0.0,3.0211,3.0211,3.0211,3.0211,3.0211,3.0211,3.0211,3.0219,3.0323,0.0,0.0,3.0323,3.0459,3.0737,3.1429,3.1935,3.2442,3.3102,3.3916,3.4532,3.4564,3.5064,0.0,3.55,3.55,3.55,3.55,3.55,3.5577,3.5808,3.7103,3.8084,3.8334,3.913,3.9881,4.0458,4.0496,4.0496,4.0496,4.0496,4.0496,4.0496,4.0496,4.0496,4.0496,4.0496,4.0496,4.0496,4.0449,4.0339,4.0177,4.0051,3.969,3.9114,3.8113,3.7149,3.6229,3.5409,3.4582,3.3807,3.3807,3.3807,3.3807,3.3807,3.3807,3.3807,0.0,0.0,0.0,0.0,0.0,0.0,0.0,0.0,0.0,0.0,0.0,0.0,0.0,0.0,0.0,0.0,0.0,3.4328,3.4404,3.4416,3.4509,3.4684,3.4898,3.5111,3.5289,3.5502,3.5595,3.5604,3.4764,3.4339,3.433,3.3475,3.307,3.307,3.307,3.3089,3.3064,3.298,3.2929,3.2865,3.1962,3.1609,3.1507,3.0637,3.0266,3.0195,3.0195,0.0,0.0,0.0,3.0211,3.0211,3.0211,3.0211,0.0,3.0211,3.0211,0.0,0.0,0.0,3.02,3.0206,3.0832,3.1465,3.1503,3.2754,3.3944,3.4042,3.476,3.5381,3.5455,3.5481,3.55,3.55,3.55,3.55,3.55,3.55,3.5788,3.6577,3.745,3.8334,0.0,3.9996,4.0477,4.0496,4.0496,4.0496,4.0496,4.0496,4.0496,4.0496,4.0496,4.0496,4.0496,4.0496,4.0496,4.0496,4.0304,4.0214,4.0186,3.9675,3.9192,3.8766,3.796,3.711,3.6229,3.5353,3.4527,3.3807,3.3807,3.3807,3.3807,3.3807,3.3807,3.3807,0.0,0.0,0.0,0.0,0.0,0.0,0.0,0.0,0.0,0.0,0.0,0.0,0.0,0.0,0.0,0.0,0.0,0.0,0.0,3.4136,3.4179,3.4309,3.454,3.4784,3.5032,3.527,3.5476,3.5598,3.532,3.5166,3.5154,3.4864,3.4421,3.3855,3.3813,3.3487,3.2884,3.2282,3.2039,3.1962,3.1046,3.0674,3.0636,3.0348,3.0213,3.0206,0.0,0.0,0.0,0.0,0.0,0.0,3.0211,0.0,0.0,3.0211,0.0,0.0,0.0,0.0,3.0199,3.0192,3.087,3.1656,3.2237,3.3255,3.4215,3.4774,3.5139,3.5357,3.542,3.5427,3.5453,3.5493,3.55,3.55,3.55,3.55,3.5596,3.5865,3.7142,0.0,0.0,0.0,0.0,4.0496,4.0496,4.0496,4.0496,4.0496,4.0496,4.0496,4.0496,4.0496,4.0496,4.0496,4.0441,4.0295,3.991,3.9702,3.9663,3.9259,3.8979,3.8788,3.8456,3.7562,3.6266,3.5973,3.5055,3.3807,3.3807,3.3807,3.3762,3.3536,3.3465,3.3494,0.0,0.0,0.0,0.0,0.0,0.0,0.0,0.0,0.0,0.0,0.0,0.0,0.0,0.0,0.0,0.0,0.0,0.0,0.0,3.3998,3.4023,3.4061,3.4295,3.4521,3.4754,3.5006,3.5047,3.4892,3.4955,3.4847,3.4552,3.4616,3.434,3.3807,3.3744,3.3403,3.2833,3.2274,3.2023,3.1978,3.1355,3.1085,3.1085,3.109,3.0911,0.0,0.0,0.0,0.0,0.0,0.0,0.0,0.0,0.0,0.0,0.0,0.0,0.0,0.0,3.0213,3.0263,3.0588,3.1303,3.2151,3.3019,3.3884,3.4646,3.5189,3.5044,3.4936,3.5299,3.5129,3.5055,3.5422,3.5474,3.55,3.55,3.55,3.5615,3.5885,3.7161,0.0,0.0,0.0,0.0,4.0496,4.0496,4.0496,4.0496,4.0496,4.0496,4.0496,4.0496,4.0496,4.0496,4.0433,4.0241,3.996,3.9628,3.9376,3.9205,3.8979,3.8837,3.8747,3.8723,3.7955,3.6707,3.6256,3.5283,3.4008,3.3603,3.3433,3.3419,3.3199,3.3124,3.3154,0.0,0.0,0.0,0.0,0.0,0.0,0.0,0.0,0.0,0.0,0.0,0.0,0.0,0.0,0.0,0.0,0.0,0.0,0.0,3.3985,3.3985,3.3985,3.4177,3.4341,3.4484,3.4675,3.4415,3.3666,3.3854,3.3551,3.2814,3.294,3.2961,3.2927,3.2934,3.2875,3.2783,3.2778,3.279,3.279,3.2718,3.2684,3.2691,3.2684,0.0,0.0,0.0,0.0,0.0,0.0,0.0,0.0,0.0,0.0,0.0,0.0,0.0,3.0221,3.0279,3.0241,3.0398,3.1292,3.2098,3.2928,3.3796,3.4617,3.5218,3.5219,3.4584,3.4228,0.0,0.0,3.4375,3.5194,3.5441,3.55,3.55,3.55,3.5788,0.0,0.0,0.0,0.0,0.0,0.0,4.0496,0.0,4.0496,4.0496,4.0496,4.0496,4.0496,4.0496,4.0489,4.0481,4.0278,3.995,3.9483,3.9414,3.921,3.8877,3.8837,3.8747,3.8707,3.8707,3.8212,3.7319,3.6173,3.5183,3.4307,3.3208,3.2795,3.2795,3.2779,3.2763,3.2763,0.0,0.0,0.0,0.0,0.0,0.0,0.0,0.0,0.0,0.0,0.0,0.0,0.0,0.0,0.0,0.0,0.0,0.0,0.0,0.0,3.3807,3.3842,0.0,0.0,0.0,0.0,0.0,3.4413,3.4481,3.4387,3.4188,3.4235,3.3884,3.3278,3.3439,3.313,3.2496,3.2492,3.2589,3.2691,0.0,3.2452,3.2608,0.0,0.0,0.0,0.0,0.0,0.0,0.0,0.0,0.0,0.0,0.0,3.0349,0.0,0.0,3.0208,3.0273,3.0247,3.0409,3.1288,3.2095,3.2928,3.3796,3.4617,3.5037,3.4442,3.4144,3.3884,0.0,0.0,0.0,3.4395,3.5037,0.0,3.55,3.55,0.0,0.0,0.0,3.8084,3.8315,3.965,0.0,0.0,4.0496,4.0496,4.0496,4.0496,4.0496,4.0496,4.0496,4.0433,4.0278,3.9824,3.9544,3.9414,3.9156,3.8964,3.8822,3.8807,3.8747,3.8707,3.8707,3.7723,3.6139,3.5825,3.4733,3.319,3.2898,3.2795,3.2763,3.2519,3.2437,3.2386,0.0,0.0,0.0,0.0,0.0,0.0,0.0,0.0,0.0,0.0,0.0,0.0,0.0,0.0,0.0,0.0,0.0,0.0,0.0,0.0,3.3684,3.3753,0.0,0.0,0.0,0.0,0.0,0.0,0.0,0.0,3.3953,3.4473,3.4379,3.3855,3.3996,3.3752,3.3221,3.3229,0.0,0.0,0.0,0.0,0.0,0.0,0.0,0.0,0.0,0.0,0.0,0.0,0.0,3.0752,3.0375,3.0273,3.0311,3.0309,0.0,3.0215,3.0322,3.0567,3.1014,3.1908,3.2718,3.3532,3.4346,3.4885,3.498,3.4167,3.37,0.0,0.0,0.0,0.0,0.0,0.0,0.0,3.5442,3.55,3.55,0.0,3.6988,0.0,3.8007,3.9515,4.0496,0.0,4.0496,4.0496,4.0496,4.0496,4.0496,4.0496,4.0406,4.0204,3.9846,3.9544,3.9343,3.9183,3.8964,3.8837,3.8807,3.8762,3.8735,3.8707,0.0,3.7786,3.6232,3.5708,3.4533,3.3064,3.256,3.2369,3.2352,3.2144,3.2073,3.2055,0.0,0.0,0.0,0.0,0.0,0.0,0.0,0.0,0.0,0.0,0.0,0.0,0.0,0.0,0.0,0.0,0.0,0.0,0.0,0.0,0.0,0.0,0.0,0.0,0.0,0.0,0.0,0.0,0.0,0.0,0.0,0.0,0.0,0.0,0.0,0.0,0.0,0.0,0.0,0.0,0.0,0.0,0.0,0.0,0.0,0.0,0.0,0.0,0.0,0.0,3.2191,3.1372,3.0626,3.0308,3.0226,3.0241,3.0208,3.0241,3.0504,3.1062,3.1815,3.2814,3.3576,3.4268,3.5023,3.5209,3.4942,3.4025,0.0,0.0,3.2413,0.0,3.2101,3.3674,0.0,3.4507,3.5385,3.55,3.55,3.55,3.6988,3.8007,3.8007,3.9515,4.0496,4.0496,4.0496,4.0496,4.0496,4.0496,4.0489,4.0465,4.0213,3.9867,3.9401,3.9356,3.9183,3.8896,3.8822,3.8792,3.8777,3.8719,3.8707,3.8707,0.0,0.0,3.6675,3.5639,3.4427,3.3178,3.2189,3.18,3.18,3.18,3.18,3.18,0.0,0.0,0.0,0.0,0.0,0.0,0.0,0.0,0.0,0.0,0.0,0.0,0.0,0.0,0.0,0.0,0.0,0.0,0.0,0.0,0.0,0.0,0.0,0.0,0.0,0.0,0.0,0.0,0.0,0.0,0.0,0.0,0.0,0.0,0.0,0.0,0.0,0.0,0.0,0.0,0.0,0.0,0.0,0.0,0.0,0.0,0.0,0.0,0.0,0.0,3.2656,3.1558,3.1405,3.0906,3.0367,3.0367,3.0291,3.0388,3.1245,3.1456,3.1835,3.3478,3.3966,3.4228,3.5018,3.5209,0.0,0.0,0.0,3.2279,3.0892,3.1172,0.0,3.2875,0.0,0.0,0.0,0.0,3.55,0.0,0.0,0.0,0.0,0.0,0.0,0.0,0.0,4.0496,4.0496,4.0496,4.0414,4.026,3.978,3.9483,3.9389,3.9073,3.8877,3.8822,3.875,3.8723,3.8723,3.8707,3.8707,3.8707,3.8707,0.0,3.5499,3.5288,3.397,3.2083,3.1888,3.18,3.18,3.18,3.18,3.18,0.0,0.0,0.0,0.0,0.0,0.0,0.0,0.0,0.0,0.0,0.0,0.0,0.0,0.0,0.0,0.0,0.0,0.0,0.0,0.0,0.0,0.0,0.0,0.0,0.0,0.0,0.0,0.0,0.0,0.0,0.0,0.0,0.0,0.0,0.0,0.0,0.0,0.0,0.0,0.0,0.0,0.0,0.0,0.0,0.0,0.0,0.0,0.0,0.0,0.0,3.3595,3.2672,3.2288,3.1607,3.1014,3.1469,3.1271,3.1136,3.2038,3.259,3.3102,3.3895,3.4429,3.481,3.513,0.0,0.0,0.0,0.0,3.2183,3.051,0.0,0.0,0.0,0.0,0.0,0.0,0.0,0.0,0.0,0.0,0.0,0.0,0.0,0.0,0.0,0.0,4.0496,4.0496,4.0389,4.0232,3.9993,3.9616,3.933,3.9142,3.8906,3.8777,3.875,3.8723,3.8707,3.8707,3.8707,3.8707,3.8692,3.8483,0.0,3.5183,3.4977,3.3669,3.18,3.18,3.18,3.18,3.18,3.18,3.18,0.0,0.0,0.0,0.0,0.0,0.0,0.0,0.0,0.0,0.0,0.0,0.0,0.0,0.0,0.0,0.0,0.0,0.0,0.0,0.0,0.0,0.0,0.0,0.0,0.0,0.0,0.0,0.0,0.0,0.0,0.0,0.0,0.0,0.0,0.0,0.0,0.0,0.0,0.0,0.0,0.0,0.0,0.0,0.0,0.0,0.0,0.0,0.0,0.0,0.0,3.4434,3.3926,3.3345,3.2478,3.1821,3.2485,3.228,3.2026,3.2857,3.3647,3.4263,3.4344,3.4865,3.532,3.5209,3.5193,0.0,0.0,0.0,3.2183,3.051,0.0,0.0,0.0,0.0,0.0,0.0,0.0,0.0,0.0,0.0,0.0,0.0,0.0,0.0,0.0,0.0,0.0,4.0441,4.0232,4.0002,3.9731,3.9458,3.917,3.8892,3.8822,3.875,3.8707,3.8707,3.8707,3.8707,3.8707,3.8707,3.8673,3.8186,0.0,0.0,3.4677,3.3421,3.18,3.18,3.18,3.18,3.18,3.18,3.18,0.0,0.0,0.0,0.0,0.0,0.0,0.0,0.0,0.0,0.0,0.0,0.0,0.0,0.0,0.0,0.0,0.0,0.0,0.0,0.0,0.0,0.0,0.0,0.0,0.0,0.0,0.0,0.0,0.0,0.0,0.0,0.0,0.0,0.0,0.0,0.0,0.0,0.0,0.0,0.0,0.0,0.0,0.0,0.0,0.0,0.0,0.0,0.0,0.0,0.0,0.0,3.4706,3.469,3.3714,3.2588,3.2605,0.0,0.0,3.3733,3.4005,3.4221,3.5076,3.5247,3.5201,3.5127,0.0,0.0,0.0,3.2664,3.2183,3.051,0.0,0.0,0.0,0.0,3.3204,0.0,0.0,0.0,0.0,0.0,0.0,0.0,0.0,0.0,0.0,0.0,0.0,4.0204,3.9973,3.975,3.9532,3.9137,3.8921,3.891,3.878,3.8707,3.8707,3.8707,3.8707,3.8707,3.8707,3.8707,3.867,3.7903,0.0,0.0,3.4383,3.316,3.18,3.18,3.18,3.18,3.18,3.18,3.18,0.0,0.0,0.0,0.0,0.0,0.0,0.0,0.0,0.0,0.0,0.0,0.0,0.0,0.0,0.0,0.0,0.0,0.0,0.0,0.0,0.0,0.0,0.0,0.0,0.0,0.0,0.0,0.0,0.0,0.0,0.0,0.0,0.0,0.0,0.0,0.0,0.0,0.0,0.0,0.0,0.0,0.0,0.0,0.0,0.0,0.0,0.0,0.0,0.0,0.0,0.0,0.0,3.4749,3.4406,0.0,0.0,3.3695,3.3538,3.4353,3.4617,3.4721,3.5039,3.5063,3.501,3.4992,0.0,0.0,3.2953,3.2656,3.2183,3.051,3.0101,0.0,0.0,0.0,0.0,0.0,0.0,0.0,0.0,0.0,0.0,0.0,0.0,0.0,0.0,0.0,0.0,3.9769,3.9679,3.9561,3.9439,3.9087,3.8881,3.8851,3.875,3.8707,3.8707,3.8707,3.8707,3.8707,3.8707,3.8432,3.7955,3.7372,0.0,0.0,3.3879,3.2914,3.18,3.18,3.18,3.18,3.18,3.18,3.18,0.0,0.0,0.0,0.0,0.0,0.0,0.0,0.0,0.0,0.0,0.0,0.0,0.0,0.0,0.0,0.0,0.0,0.0,0.0,0.0,0.0,0.0,0.0,0.0,0.0,0.0,0.0,0.0,0.0,0.0,0.0,0.0,0.0,0.0,0.0,0.0,0.0,0.0,0.0,0.0,0.0,0.0,0.0,0.0,0.0,0.0,0.0,0.0,0.0,0.0,0.0,0.0,0.0,0.0,0.0,0.0,3.4518,3.4238,3.4765,3.4963,3.5018,3.4917,3.4908,3.4879,0.0,0.0,3.4608,3.2892,3.264,3.2168,3.0433,3.0003,3.0086,3.0646,0.0,3.2411,0.0,0.0,0.0,0.0,0.0,0.0,0.0,0.0,0.0,0.0,0.0,0.0,0.0,3.9363,3.9324,3.929,3.9017,3.8881,3.8807,3.8735,3.8707,3.8707,3.8707,3.8707,3.8689,3.845,3.8043,3.7459,0.0,0.0,0.0,3.4058,3.335,3.2472,3.2472,3.2472,3.2472,3.2472,3.2317,3.2109,0.0,0.0,0.0,0.0,0.0,0.0,0.0,0.0,0.0,0.0,0.0,0.0,0.0,0.0,0.0,0.0,0.0,0.0,0.0,0.0,0.0,0.0,0.0,0.0,0.0,0.0,0.0,0.0,0.0,0.0,0.0,0.0,0.0,0.0,0.0,0.0,0.0,0.0,0.0,0.0,0.0,0.0,0.0,0.0,0.0,0.0,0.0,0.0,0.0,0.0,0.0,0.0,0.0,0.0,0.0,0.0,3.4831,3.4889,3.4908,3.4908,3.4889,3.4908,3.4908,3.4879,0.0,0.0,3.459,3.2785,3.2553,3.2138,3.0251,2.9897,2.9839,2.9654,3.1073,0.0,0.0,0.0,0.0,0.0,0.0,0.0,0.0,0.0,0.0,0.0,0.0,0.0,0.0,3.905,3.8993,3.8993,3.8939,3.8881,3.8807,3.8735,3.8707,3.8707,3.8707,3.8707,3.867,3.7878,3.7511,0.0,0.0,0.0,0.0,3.5169,3.4727,3.4079,3.4079,3.4079,3.4079,3.4079,3.3559,3.2829,0.0,0.0,0.0,0.0,0.0,0.0,0.0,0.0,0.0,0.0,0.0,0.0,0.0,0.0,0.0,0.0,0.0,0.0,0.0,0.0,0.0,0.0,0.0,0.0,0.0,0.0,0.0,0.0,0.0,0.0,0.0,0.0,0.0,0.0,0.0,0.0,0.0,0.0,0.0,0.0,0.0,0.0,0.0,0.0,0.0,0.0,0.0,0.0,0.0,0.0,0.0,0.0,0.0,0.0,0.0,0.0,0.0,0.0,3.4689,3.4689,3.4689,3.4689,3.4689,3.471,3.4788,0.0,3.4453,3.2703,3.2415,3.1919,3.0035,2.9589,2.9474,2.9415,3.0679,0.0,0.0,0.0,0.0,0.0,0.0,0.0,0.0,0.0,0.0,0.0,0.0,0.0,0.0,3.9007,3.8979,3.8921,3.8881,3.8792,3.8735,3.8723,3.8707,3.8707,3.8707,3.8707,3.867,3.7878,0.0,0.0,0.0,0.0,0.0,3.5186,3.4781,3.4113,3.4113,3.4113,3.4113,3.4113,3.3725,3.3097,0.0,0.0,0.0,0.0,0.0,0.0,0.0,0.0,0.0,0.0,0.0,0.0,0.0,0.0,0.0,0.0,0.0,0.0,0.0,0.0,0.0,0.0,0.0,0.0,0.0,0.0,0.0,0.0,0.0,0.0,0.0,0.0,0.0,0.0,0.0,0.0,0.0,0.0,0.0,0.0,0.0,0.0,0.0,0.0,0.0,0.0,0.0,0.0,0.0,0.0,0.0,0.0,0.0,0.0,0.0,0.0,0.0,0.0,0.0,3.4612,3.4612,3.4612,3.4612,0.0,0.0,0.0,3.4299,3.258,3.226,3.1704,2.9832,2.9385,2.9291,0.0,0.0,0.0,0.0,0.0,0.0,0.0,0.0,0.0,0.0,0.0,0.0,0.0,0.0,0.0,0.0,3.8983,3.8921,3.8848,3.8822,3.878,3.8707,3.8707,3.8707,3.8707,3.8707,3.8542,3.823,3.7731,0.0,0.0,0.0,0.0,0.0,3.5776,3.5476,3.4921,3.4921,3.4921,3.4921,3.4921,3.4411,3.3601,0.0,0.0,0.0,0.0,0.0,0.0,0.0,0.0,0.0,0.0,0.0,0.0,0.0,0.0,0.0,0.0,0.0,0.0,0.0,0.0,0.0,0.0,0.0,0.0,0.0,0.0,0.0,0.0,3.2406,3.2406,3.2406,0.0,0.0,0.0,0.0,0.0,0.0,0.0,0.0,0.0,0.0,0.0,0.0,0.0,0.0,0.0,0.0,0.0,0.0,0.0,0.0,0.0,0.0,0.0,0.0,0.0,0.0,0.0,0.0,0.0,0.0,0.0,0.0,0.0,0.0,0.0,0.0,3.2497,3.2122,3.1517,2.9704,2.931,2.9235,0.0,0.0,0.0,0.0,0.0,0.0,0.0,0.0,0.0,0.0,0.0,0.0,0.0,0.0,0.0,0.0,3.8935,3.8862,3.8807,3.8807,3.878,3.8707,3.8707,3.8707,3.8707,3.8652,3.8248,3.7584,3.7474,0.0,0.0,0.0,0.0,0.0,3.6756,3.6658,3.6301,3.6301,3.6301,3.6301,3.6259,3.548,3.4257,0.0,0.0,0.0,0.0,0.0,0.0,0.0,0.0,0.0,0.0,0.0,0.0,0.0,0.0,0.0,0.0,0.0,0.0,0.0,0.0,0.0,0.0,0.0,0.0,0.0,0.0,0.0,3.2406,3.2406,3.2406,3.2406,3.2406,0.0,0.0,0.0,0.0,0.0,0.0,0.0,0.0,0.0,0.0,0.0,0.0,0.0,0.0,3.2795,0.0,0.0,0.0,0.0,0.0,0.0,0.0,0.0,0.0,3.4539,0.0,0.0,0.0,0.0,0.0,0.0,0.0,0.0,0.0,0.0,0.0,0.0,3.1481,3.0222,2.9483,2.9258,0.0,0.0,0.0,0.0,0.0,0.0,0.0,0.0,0.0,0.0,0.0,0.0,0.0,0.0,0.0,0.0,3.8997,3.8921,3.8807,3.8807,3.878,3.8707,3.8707,3.8707,3.8689,3.8065,3.8025,3.8377,3.7129,0.0,0.0,0.0,0.0,3.7201,3.7004,3.6658,3.6301,3.6301,3.6301,3.6259,3.5898,3.5318,3.4545,0.0,0.0,0.0,0.0,0.0,0.0,0.0,0.0,0.0,0.0,0.0,0.0,0.0,0.0,0.0,0.0,0.0,0.0,0.0,0.0,0.0,0.0,0.0,0.0,0.0,0.0,0.0,0.0,0.0,3.2406,0.0,0.0,0.0,0.0,0.0,0.0,0.0,0.0,0.0,0.0,0.0,0.0,0.0,0.0,0.0,0.0,3.2605,3.2814,0.0,3.3288,3.3578,3.3881,0.0,0.0,0.0,0.0,3.4495,0.0,0.0,0.0,0.0,0.0,0.0,0.0,0.0,0.0,0.0,0.0,0.0,3.1291,3.038,2.9831,0.0,0.0,0.0,0.0,0.0,0.0,0.0,0.0,0.0,0.0,0.0,0.0,0.0,0.0,0.0,0.0,0.0,3.8964,3.891,3.8807,3.8762,3.8735,3.8707,3.8707,3.8707,3.8689,3.7878,3.7731,3.812,3.7254,3.7238,0.0,0.0,0.0,3.719,3.6781,3.6512,3.6301,3.6301,3.6174,3.5963,3.5683,3.5115,3.4292,0.0,0.0,0.0,0.0,0.0,0.0,0.0,0.0,0.0,0.0,0.0,0.0,0.0,0.0,0.0,0.0,0.0,0.0,0.0,0.0,0.0,0.0,0.0,0.0,0.0,0.0,0.0,0.0,0.0,0.0,0.0,0.0,0.0,0.0,0.0,0.0,0.0,0.0,0.0,0.0,0.0,0.0,0.0,0.0,0.0,0.0,0.0,0.0,0.0,3.3065,3.3408,3.3762,3.3992,0.0,0.0,0.0,0.0,0.0,0.0,0.0,0.0,0.0,0.0,0.0,0.0,0.0,0.0,0.0,0.0,0.0,0.0,0.0,0.0,0.0,0.0,0.0,0.0,0.0,0.0,0.0,0.0,0.0,0.0,0.0,0.0,0.0,0.0,0.0,0.0,3.8598,3.8526,3.8453,3.8382,3.8355,3.834,3.8469,3.8524,3.8505,3.7713,3.7382,3.7492,3.7448,3.7301,0.0,0.0,0.0,3.686,3.6471,3.6301,3.6301,3.6216,3.5963,3.5571,3.5436,3.4833,3.3865,0.0,0.0,0.0,0.0,0.0,0.0,0.0,0.0,0.0,0.0,0.0,0.0,0.0,0.0,0.0,0.0,0.0,0.0,0.0,0.0,0.0,0.0,0.0,0.0,0.0,0.0,0.0,0.0,0.0,0.0,3.2406,3.2406,3.2406,0.0,0.0,0.0,0.0,0.0,0.0,0.0,0.0,0.0,0.0,0.0,0.0,0.0,0.0,0.0,0.0,3.2507,3.2912,3.3394,3.3437,0.0,0.0,0.0,0.0,0.0,3.4517,3.442,3.434,3.4305,3.4293,3.4209,0.0,0.0,0.0,0.0,0.0,0.0,0.0,0.0,0.0,0.0,0.0,0.0,0.0,0.0,0.0,0.0,0.0,0.0,0.0,0.0,0.0,0.0,0.0,0.0,0.0,3.6978,3.6929,3.6851,3.6781,3.6728,3.667,3.7345,3.7676,3.7676,3.6868,3.685,3.7477,3.7148,3.7317,0.0,0.0,3.6958,3.686,3.6471,3.6301,3.6259,3.5876,3.5661,3.5504,3.4658,3.4234,3.379,0.0,0.0,0.0,0.0,0.0,0.0,0.0,0.0,0.0,0.0,0.0,0.0,0.0,0.0,0.0,0.0,0.0,0.0,0.0,0.0,0.0,0.0,0.0,0.0,0.0,0.0,0.0,0.0,0.0,3.2406,3.2406,3.2406,3.2406,3.2406,0.0,0.0,0.0,0.0,0.0,0.0,0.0,0.0,0.0,0.0,0.0,0.0,0.0,0.0,0.0,0.0,3.2798,3.3093,3.3465,0.0,0.0,0.0,0.0,0.0,3.4031,3.4018,3.3974,3.3985,3.3972,3.3895,3.3605,0.0,0.0,0.0,0.0,0.0,0.0,0.0,0.0,0.0,0.0,0.0,0.0,0.0,0.0,0.0,0.0,0.0,0.0,0.0,0.0,0.0,0.0,0.0,0.0,0.0,3.6523,3.6454,3.637,3.6346,3.6303,3.6193,3.6395,3.685,3.6468,3.66,3.7163,3.6987,3.7105,3.7432,0.0,3.6779,3.6557,3.6367,3.6135,3.5898,3.5683,3.5276,3.4706,3.3933,3.3274,3.2588,0.0,0.0,0.0,0.0,0.0,0.0,0.0,0.0,0.0,0.0,0.0,0.0,0.0,0.0,0.0,0.0,0.0,0.0,0.0,0.0,0.0,0.0,0.0,0.0,0.0,0.0,3.2406,3.2406,3.2406,3.2406,3.2406,3.2406,3.2406,0.0,0.0,0.0,0.0,0.0,0.0,0.0,0.0,0.0,0.0,0.0,0.0,0.0,0.0,0.0,0.0,0.0,0.0,0.0,0.0,0.0,0.0,3.3662,3.3592,3.3429,3.3639,3.368,3.3639,3.368,0.0,3.3661,3.3452,0.0,0.0,0.0,0.0,0.0,0.0,0.0,0.0,0.0,0.0,0.0,0.0,0.0,0.0,0.0,0.0,0.0,0.0,0.0,0.0,0.0,0.0,0.0,0.0,0.0,3.5878,3.5828,3.5758,3.5716,3.5716,3.5041,3.5243,3.6303,3.6303,3.6507,3.6906,3.7005,3.7006,3.69,3.6801,3.6577,3.6301,3.6178,3.5902,3.5571,3.5345,3.4625,3.3704,3.3277,3.2522,3.164,0.0,0.0,0.0,0.0,0.0,0.0,0.0,0.0,0.0,0.0,0.0,0.0,0.0,0.0,0.0,0.0,0.0,0.0,0.0,0.0,0.0,0.0,0.0,0.0,0.0,3.2406,3.2406,3.2406,3.2406,3.2406,3.2406,3.2406,3.2406,3.2406,0.0,0.0,0.0,0.0,0.0,0.0,0.0,0.0,0.0,0.0,0.0,0.0,0.0,0.0,0.0,0.0,0.0,0.0,0.0,0.0,3.3306,3.3317,3.3361,3.3433,3.3638,3.3564,3.3462,3.3638,3.3698,0.0,3.3452,3.3393,0.0,3.3477,0.0,0.0,0.0,0.0,0.0,0.0,0.0,0.0,0.0,0.0,0.0,0.0,0.0,0.0,0.0,0.0,0.0,0.0,0.0,0.0,0.0,0.0,0.0,3.4079,3.4012,3.3972,3.3972,3.3917,3.4706,3.6303,3.6303,3.6507,3.6908,3.729,3.725,3.688,3.6512,3.6343,3.628,3.5832,3.5616,3.5504,3.4561,3.3594,3.2695,3.2641,3.2308,3.1756,0.0,0.0,0.0,0.0,0.0,0.0,0.0,0.0,0.0,0.0,0.0,0.0,0.0,0.0,0.0,0.0,0.0,0.0,0.0,0.0,0.0,0.0,0.0,3.2406,3.2406,3.2406,3.2406,3.2406,3.2406,3.2406,3.2406,3.2406,0.0,0.0,0.0,0.0,0.0,0.0,0.0,0.0,0.0,0.0,0.0,0.0,0.0,0.0,0.0,0.0,0.0,0.0,3.2456,3.2573,3.2749,3.2766,3.277,3.2939,3.2894,3.28,3.2975,3.3052,3.3129,3.3298,3.3415,0.0,0.0,3.3393,3.3422,0.0,0.0,0.0,0.0,0.0,0.0,0.0,0.0,0.0,0.0,0.0,0.0,0.0,0.0,0.0,0.0,0.0,0.0,0.0,0.0,0.0,0.0,0.0,0.0,3.3829,3.3802,3.3807,3.3807,3.4289,3.5015,3.5936,3.5936,3.613,3.6538,3.6947,3.69,3.6533,3.6385,3.6135,3.5854,3.5661,3.523,3.461,3.3882,3.3182,3.2586,3.2586,3.2145,3.1465,0.0,0.0,0.0,0.0,0.0,0.0,0.0,0.0,0.0,0.0,0.0,0.0,0.0,0.0,0.0,0.0,0.0,0.0,0.0,0.0,0.0,0.0,0.0,3.2406,3.2406,3.2406,3.2406,3.2406,3.2406,3.2406,3.2406,0.0,0.0,0.0,0.0,0.0,0.0,0.0,0.0,0.0,0.0,0.0,0.0,0.0,0.0,0.0,0.0,0.0,0.0,0.0,3.2406,3.244,3.2605,3.2557,3.244,3.2621,3.254,3.244,3.2639,3.2753,3.2884,0.0,0.0,0.0,3.3396,3.3393,3.3437,0.0,0.0,0.0,0.0,0.0,0.0,0.0,0.0,0.0,0.0,0.0,0.0,0.0,0.0,0.0,0.0,0.0,0.0,0.0,0.0,0.0,0.0,0.0,0.0,0.0,3.3807,3.3807,3.3807,3.4503,3.5114,3.5698,3.5705,3.597,3.6502,3.677,3.6678,3.6301,3.6135,3.5898,3.5571,3.5253,3.4617,3.3797,3.3277,3.2807,3.2367,3.2244,3.1709,3.1073,0.0,0.0,0.0,0.0,0.0,0.0,0.0,0.0,0.0,0.0,0.0,0.0,0.0,0.0,0.0,0.0,0.0,0.0,0.0,0.0,0.0,0.0,0.0,3.2406,3.2406,3.2406,3.2406,3.2406,3.2406,3.2406,3.2406,3.2406,0.0,0.0,0.0,0.0,0.0,0.0,0.0,0.0,0.0,3.2406,0.0,0.0,0.0,0.0,0.0,0.0,0.0,0.0,3.2406,3.2406,3.2406,3.2406,3.2406,3.2406,3.2406,3.2474,3.2821,3.2753,0.0,0.0,0.0,0.0,3.3349,3.3393,3.3408,0.0,0.0,0.0,0.0,0.0,0.0,0.0,0.0,0.0,0.0,0.0,0.0,0.0,0.0,0.0,0.0,0.0,0.0,0.0,0.0,0.0,0.0,0.0,0.0,0.0,3.3807,3.3807,3.3807,3.4273,3.4922,3.57,3.5722,3.6141,3.69,3.69,3.6678,3.628,3.5793,3.5594,3.5504,3.4513,3.3771,3.324,3.2765,3.2312,3.1851,3.1452,3.0984,3.0598,0.0,0.0,0.0,0.0,0.0,0.0,0.0,0.0,0.0,0.0,0.0,0.0,0.0,0.0,0.0,0.0,0.0,0.0,0.0,0.0,0.0,0.0,0.0,0.0,0.0,0.0,3.2406,3.2406,3.2406,3.2406,0.0,0.0,0.0,3.2406,0.0,0.0,0.0,0.0,0.0,0.0,3.2406,3.2406,0.0,0.0,0.0,0.0,0.0,0.0,0.0,0.0,0.0,0.0,3.2406,3.2406,3.2406,3.2406,3.2406,3.2405,3.2525,3.2691,0.0,3.3011,0.0,0.0,0.0,3.3393,0.0,0.0,0.0,0.0,0.0,0.0,0.0,0.0,0.0,0.0,0.0,0.0,0.0,0.0,0.0,0.0,0.0,0.0,0.0,0.0,0.0,0.0,0.0,0.0,0.0,0.0,3.3564,3.3728,3.4294,3.4767,3.5222,3.5703,3.6274,3.6669,3.688,3.6597,3.6224,3.581,3.5661,3.5207,3.4488,3.3822,3.3251,3.2792,3.2656,3.2132,3.1466,3.1336,3.0984,3.0538,0.0,0.0,0.0,0.0,0.0,0.0,0.0,0.0,0.0,0.0,0.0,0.0,0.0,0.0,0.0,0.0,0.0,0.0,0.0,0.0,0.0,0.0,0.0,0.0,0.0,3.2336,3.2406,0.0,0.0,0.0,0.0,0.0,0.0,3.2406,0.0,3.2406,0.0,0.0,0.0,3.2406,3.2406,3.2406,3.2406,0.0,0.0,0.0,0.0,0.0,0.0,0.0,0.0,0.0,3.2406,3.2406,3.2406,3.2406,3.2406,3.2405,3.2456,0.0,0.0,3.2963,3.3135,0.0,0.0,0.0,0.0,0.0,0.0,0.0,0.0,0.0,0.0,0.0,0.0,0.0,0.0,0.0,0.0,0.0,0.0,0.0,0.0,0.0,0.0,0.0,0.0,0.0,0.0,3.3895,3.3815,3.3611,3.3408,3.3611,3.4301,3.4743,3.5206,3.5717,3.6352,3.656,3.6395,3.6139,3.5876,3.5571,3.5184,3.4537,3.3745,3.3224,3.2861,3.2559,3.2216,3.1752,3.1292,3.1073,3.0836,3.0507,0.0,0.0,0.0,0.0,0.0,0.0,0.0,0.0,0.0,0.0,0.0,0.0,0.0,0.0,0.0,0.0,0.0,0.0,0.0,0.0,0.0,0.0,0.0,0.0,0.0,0.0,0.0,0.0,0.0,0.0,0.0,0.0,3.2406,3.2406,0.0,3.2406,0.0,3.2406,3.2406,3.2406,3.2406,3.2406,3.2406,3.2406,0.0,0.0,0.0,0.0,0.0,0.0,0.0,0.0,3.2406,3.2406,3.2406,3.2406,3.2406,3.2422,3.2557,0.0,0.0,3.3008,3.3101,0.0,0.0,0.0,0.0,0.0,0.0,0.0,0.0,0.0,0.0,0.0,0.0,0.0,0.0,0.0,0.0,0.0,0.0,0.0,0.0,0.0,0.0,0.0,0.0,0.0,0.0,3.3855,3.3675,3.3321,3.3319,3.355,3.4049,3.4445,3.5014,3.5764,3.608,3.6006,3.5594,3.5594,3.5549,3.5413,3.4415,3.3694,3.3214,3.2738,3.2504,3.2394,3.161,3.1278,3.1161,3.0687,3.0507,3.0417,0.0,0.0,0.0,0.0,0.0,0.0,0.0,0.0,0.0,0.0,0.0,0.0,0.0,0.0,0.0,0.0,0.0,0.0,0.0,0.0,0.0,0.0,0.0,0.0,0.0,0.0,0.0,0.0,0.0,0.0,0.0,0.0,0.0,3.2406,0.0,3.2406,3.2406,3.2406,3.2406,3.2406,3.2406,3.2406,3.2406,3.2406,3.2406,0.0,0.0,0.0,0.0,0.0,0.0,0.0,3.2406,3.2406,3.2406,3.2406,3.2406,3.2423,0.0,3.2641,0.0,0.0,3.3135,0.0,0.0,0.0,0.0,0.0,0.0,0.0,0.0,0.0,0.0,0.0,0.0,0.0,0.0,0.0,0.0,0.0,0.0,0.0,0.0,0.0,0.0,0.0,0.0,0.0,3.3815,3.3564,3.3394,3.3306,3.3353,3.3741,3.4462,3.4874,3.544,0.0,3.5878,3.5683,3.5594,3.5594,3.5161,3.4366,3.3361,3.2873,3.2711,3.2228,3.1851,3.1552,3.1365,3.1073,3.0657,3.0068,2.9808,2.9654,0.0,0.0,0.0,0.0,0.0,0.0,0.0,0.0,0.0,0.0,0.0,0.0,0.0,0.0,0.0,0.0,0.0,0.0,0.0,0.0,0.0,0.0,0.0,0.0,0.0,0.0,0.0,0.0,0.0,0.0,0.0,0.0,0.0,3.2406,0.0,3.2406,3.2406,3.2406,3.2406,3.2406,3.2406,3.2406,3.2406,3.2406,3.2406,0.0,0.0,0.0,0.0,0.0,0.0,0.0,0.0,0.0,3.2406,3.2406,3.2406,0.0,0.0,0.0,0.0,3.3088,0.0,0.0,0.0,0.0,0.0,0.0,0.0,0.0,0.0,0.0,0.0,0.0,0.0,0.0,0.0,0.0,0.0,0.0,0.0,0.0,0.0,0.0,0.0,0.0,0.0,3.355,3.355,3.3243,3.2986,3.2829,3.3194,3.3718,3.4352,3.4918,3.5456,3.5963,3.5722,3.5345,3.488,3.488,3.4333,3.3351,3.2846,3.2477,3.2244,3.1794,3.1509,3.1292,3.1043,3.0613,3.0068,2.9716,2.939,2.8921,0.0,0.0,0.0,0.0,0.0,0.0,0.0,0.0,0.0,0.0,0.0,0.0,0.0,0.0,0.0,0.0,0.0,0.0,0.0,0.0,0.0,0.0,0.0,0.0,0.0,0.0,0.0,0.0,0.0,0.0,0.0,0.0,0.0,3.2406,0.0,0.0,3.2406,3.2422,3.244,3.244,3.2474,3.2474,3.244,0.0,0.0,0.0,0.0,0.0,0.0,0.0,0.0,0.0,0.0,0.0,3.2406,3.2406,3.2406,0.0,0.0,0.0,3.2979,3.3274,3.3364,0.0,0.0,0.0,0.0,0.0,0.0,0.0,0.0,0.0,0.0,0.0,0.0,0.0,0.0,0.0,0.0,0.0,0.0,0.0,0.0,0.0,0.0,0.0,0.0,3.3258,3.3214,3.2908,3.2586,3.2318,3.3089,3.371,3.4096,3.4895,3.5386,3.5594,3.5413,3.4793,3.3832,3.3832,3.3403,3.2586,3.2437,3.216,3.1766,3.1365,3.1102,3.097,3.0598,2.9993,2.939,2.9296,2.8839,2.8247,0.0,0.0,0.0,0.0,0.0,0.0,0.0,0.0,0.0,0.0,0.0,0.0,0.0,0.0,0.0,0.0,0.0,0.0,0.0,0.0,0.0,0.0,0.0,0.0,0.0,0.0,0.0,0.0,0.0,0.0,0.0,0.0,0.0,3.2406,0.0,0.0,0.0,3.2523,3.2573,3.2589,3.2771,3.2739,3.2573,0.0,0.0,0.0,0.0,0.0,0.0,0.0,0.0,0.0,0.0,0.0,0.0,0.0,0.0,0.0,0.0,0.0,3.2948,0.0,3.3256,3.3393,0.0,0.0,0.0,0.0,0.0,0.0,0.0,0.0,0.0,0.0,0.0,0.0,0.0,0.0,0.0,0.0,0.0,0.0,0.0,0.0,0.0,0.0,3.3335,3.3169,3.2874,3.2554,3.2352,3.2301,3.3409,3.4032,3.4113,3.5062,3.5559,3.5594,3.473,3.3774,3.2803,3.2803,3.2722,3.2574,3.1794,3.1452,3.1336,3.0896,3.0342,2.9808,2.9747,2.9282,2.857,2.7986,2.7703,2.7537,0.0,0.0,0.0,0.0,0.0,0.0,0.0,0.0,0.0,0.0,0.0,0.0,0.0,0.0,0.0,0.0,0.0,0.0,0.0,0.0,0.0,0.0,0.0,0.0,0.0,0.0,0.0,0.0,0.0,0.0,0.0,3.2406,3.2406,0.0,0.0,0.0,0.0,0.0,0.0,3.2787,3.285,0.0,0.0,0.0,0.0,0.0,0.0,0.0,0.0,0.0,0.0,0.0,0.0,0.0,0.0,0.0,0.0,0.0,3.249,3.2506,3.2573,0.0,3.275,3.2749,3.3003,0.0,0.0,0.0,0.0,0.0,0.0,0.0,0.0,0.0,0.0,0.0,0.0,0.0,0.0,0.0,0.0,0.0,0.0,0.0,0.0,0.0,3.2844,3.2685,3.2537,3.2197,3.202,3.202,3.2947,3.3493,3.3663,3.449,3.488,3.4754,3.3748,3.3018,3.2586,3.2104,3.1879,3.1851,3.1481,3.1161,3.0866,3.0282,2.987,2.956,2.9156,2.857,2.7887,2.7604,2.7263,2.6905,0.0,0.0,0.0,0.0,0.0,0.0,0.0,0.0,0.0,0.0,0.0,0.0,0.0,0.0,0.0,0.0,0.0,0.0,0.0,0.0,0.0,0.0,0.0,0.0,0.0,0.0,0.0,0.0,0.0,0.0,3.2406,3.2406,3.2405,0.0,3.2574,0.0,0.0,0.0,0.0,0.0,0.0,0.0,0.0,0.0,0.0,0.0,0.0,0.0,0.0,0.0,0.0,0.0,0.0,0.0,0.0,0.0,0.0,0.0,0.0,0.0,3.2335,3.2506,3.2368,3.2317,0.0,0.0,0.0,0.0,0.0,0.0,0.0,0.0,0.0,0.0,0.0,0.0,0.0,0.0,0.0,0.0,0.0,0.0,0.0,0.0,0.0,0.0,3.2437,3.2266,3.2179,3.1947,3.1763,3.1634,3.2355,3.2793,3.2866,3.3539,3.382,3.3729,3.283,3.2382,3.2244,3.161,3.1219,3.1131,3.1131,3.0836,3.0312,2.9808,2.939,2.8998,2.8473,2.7835,2.7263,2.7263,2.6939,2.6499,0.0,0.0,0.0,0.0,0.0,0.0,0.0,0.0,0.0,0.0,0.0,0.0,0.0,0.0,0.0,0.0,0.0,0.0,0.0,0.0,0.0,0.0,0.0,0.0,0.0,0.0,0.0,0.0,0.0,0.0,3.2406,3.2406,3.2456,3.2589,3.2606,3.2705,3.29,0.0,0.0,0.0,0.0,0.0,0.0,0.0,0.0,0.0,0.0,0.0,0.0,0.0,0.0,0.0,0.0,0.0,0.0,0.0,0.0,0.0,0.0,3.2489,0.0,3.2352,3.2437,0.0,0.0,0.0,0.0,0.0,0.0,0.0,0.0,0.0,0.0,0.0,0.0,0.0,0.0,0.0,0.0,0.0,0.0,0.0,0.0,0.0,0.0,0.0,3.2318,3.2161,3.1838,3.1818,3.1615,3.1142,3.1907,3.213,3.1694,3.2175,3.2487,3.2668,3.2173,3.1752,3.1365,3.1307,3.1043,3.0642,3.0642,3.0251,2.9654,2.9623,2.8807,2.7617,2.7571,2.7129,2.6555,2.6555,2.6521,2.6499,0.0,0.0,0.0,0.0,0.0,0.0,0.0,0.0,0.0,0.0,0.0,0.0,0.0,0.0,0.0,0.0,0.0,0.0,0.0,0.0,0.0,0.0,0.0,0.0,0.0,0.0,0.0,0.0,0.0,3.2406,3.2388,3.249,3.2623,3.2786,3.2786,3.2866,3.3039,3.3211,0.0,0.0,0.0,0.0,0.0,0.0,0.0,0.0,0.0,0.0,0.0,0.0,0.0,0.0,0.0,0.0,0.0,0.0,0.0,0.0,0.0,0.0,0.0,3.1598,3.1487,3.1433,0.0,0.0,0.0,0.0,0.0,0.0,0.0,0.0,0.0,0.0,0.0,0.0,0.0,0.0,0.0,0.0,0.0,0.0,0.0,0.0,0.0,0.0,0.0,3.1802,3.1372,3.1353,3.1162,3.0744,3.0994,3.0993,3.0713,3.1042,3.1332,3.1573,3.1089,3.0788,3.0615,3.0777,3.0267,2.9268,2.9732,2.9808,2.9529,2.8615,2.7966,2.7451,2.704,2.6714,2.6499,2.6499,2.6499,2.6499,0.0,0.0,0.0,0.0,0.0,0.0,0.0,0.0,0.0,0.0,0.0,0.0,0.0,0.0,0.0,0.0,0.0,0.0,0.0,0.0,0.0,0.0,0.0,0.0,0.0,0.0,0.0,0.0,0.0,0.0,0.0,3.254,3.2705,3.29,3.2948,3.3039,0.0,0.0,0.0,3.3349,0.0,0.0,3.2418,0.0,0.0,0.0,0.0,0.0,0.0,0.0,0.0,0.0,0.0,0.0,0.0,0.0,0.0,0.0,3.1542,0.0,0.0,0.0,0.0,3.0935,0.0,0.0,0.0,0.0,0.0,0.0,0.0,0.0,0.0,0.0,0.0,0.0,0.0,0.0,0.0,0.0,0.0,0.0,0.0,0.0,0.0,0.0,0.0,0.0,3.0751,3.085,3.0707,3.0288,2.9978,2.9878,3.0014,2.9892,2.9917,3.0105,2.9866,2.9593,2.9365,2.9742,2.9362,2.8524,2.8776,2.8903,2.8807,2.7901,2.7384,2.7129,2.6692,2.6499,2.6499,2.6499,2.6499,2.6499,0.0,0.0,0.0,0.0,0.0,0.0,0.0,0.0,0.0,0.0,0.0,0.0,0.0,0.0,0.0,0.0,0.0,0.0,0.0,0.0,0.0,0.0,0.0,0.0,0.0,0.0,0.0,0.0,0.0,0.0,0.0,0.0,3.2721,3.2916,3.3039,3.3211,3.3393,0.0,3.3393,3.3334,0.0,3.2502,3.2699,0.0,0.0,0.0,3.1913,3.1876,0.0,0.0,0.0,0.0,0.0,0.0,0.0,0.0,0.0,0.0,0.0,0.0,0.0,0.0,0.0,0.0,0.0,0.0,0.0,0.0,0.0,0.0,0.0,0.0,0.0,0.0,0.0,0.0,0.0,0.0,0.0,0.0,0.0,0.0,0.0,0.0,0.0,0.0,2.973,2.995,2.9933,3.0229,3.0213,2.9772,2.8919,2.8828,2.954,2.8684,2.8294,2.8339,2.8474,2.8241,2.7686,2.8252,2.8492,2.8395,2.7769,2.7484,2.7484,2.7484,2.7095,2.6499,2.6499,2.6499,2.6499,2.6499,2.6499,2.6499,0.0,0.0,0.0,0.0,0.0,0.0,0.0,0.0,0.0,0.0,0.0,0.0,0.0,0.0,0.0,0.0,0.0,0.0,0.0,0.0,0.0,0.0,0.0,0.0,0.0,0.0,0.0,0.0,0.0,0.0,0.0,0.0,0.0,0.0,3.3244,3.3349,3.3393,3.3393,0.0,0.0,3.2862,3.2568,0.0,0.0,0.0,0.0,0.0,3.1334,0.0,0.0,3.1542,3.1727,0.0,0.0,0.0,0.0,0.0,0.0,3.1114,0.0,0.0,0.0,0.0,0.0,0.0,0.0,0.0,0.0,0.0,0.0,0.0,0.0,0.0,0.0,0.0,0.0,0.0,0.0,0.0,0.0,0.0,0.0,0.0,0.0,0.0,0.0,2.8632,2.8591,2.8352,2.8335,2.8491,2.885,2.8352,2.8044,2.8011,2.7336,2.707,2.723,2.7225,2.7141,2.7019,2.8042,2.7953,2.7061,2.7384,2.7229,2.6782,2.6782,2.6692,2.6499,2.6499,2.6499,2.6499,2.6499,2.6499,2.6499,0.0,0.0,0.0,0.0,0.0,0.0,0.0,0.0,0.0,0.0,0.0,0.0,0.0,0.0,0.0,0.0,0.0,0.0,0.0,0.0,0.0,0.0,0.0,0.0,0.0,0.0,0.0,0.0,0.0,0.0,0.0,0.0,0.0,0.0,0.0,0.0,0.0,0.0,0.0,0.0,3.2814,0.0,0.0,3.1914,3.1621,0.0,0.0,0.0,3.1658,3.1295,3.1291,0.0,0.0,0.0,0.0,0.0,0.0,0.0,0.0,0.0,0.0,0.0,0.0,0.0,3.022,3.013,3.0087,0.0,0.0,0.0,0.0,0.0,0.0,0.0,0.0,0.0,0.0,0.0,0.0,0.0,0.0,0.0,0.0,2.6454,2.658,2.7161,2.7361,2.7376,2.7206,2.7252,2.7456,2.7856,2.7743,2.7469,2.7049,2.6496,2.6047,2.5681,2.6096,2.6161,2.5936,2.7138,2.7229,2.6521,2.6905,2.685,2.6499,2.6499,2.6499,2.6499,2.6499,2.6499,2.6499,2.6499,2.6499,2.6499,0.0,0.0,0.0,0.0,0.0,0.0,0.0,0.0,0.0,0.0,0.0,0.0,0.0,0.0,0.0,0.0,0.0,0.0,0.0,0.0,0.0,0.0,0.0,0.0,0.0,0.0,0.0,0.0,0.0,0.0,0.0,0.0,0.0,0.0,0.0,0.0,0.0,0.0,0.0,3.3271,3.2619,3.2502,0.0,0.0,3.1896,0.0,3.1769,3.1878,3.2056,3.1276,3.0992,0.0,0.0,0.0,0.0,0.0,3.0932,0.0,0.0,0.0,0.0,0.0,0.0,0.0,2.9566,2.947,2.9403,2.9705,0.0,0.0,0.0,0.0,0.0,0.0,0.0,0.0,0.0,0.0,0.0,0.0,0.0,0.0,2.5605,2.553,2.5554,2.5575,2.5908,2.614,2.6282,2.6634,2.6873,2.6949,2.713,2.6971,2.6441,2.6003,2.5256,2.4207,2.5205,2.5416,2.4946,2.6021,2.6499,2.6499,2.6499,2.6499,2.6499,2.6499,2.6499,2.6499,2.6499,2.6499,2.6499,2.6499,2.6499,2.6499,0.0,0.0,0.0,0.0,0.0,0.0,0.0,0.0,0.0,0.0,0.0,0.0,0.0,0.0,0.0,0.0,0.0,0.0,0.0,0.0,0.0,0.0,0.0,0.0,0.0,0.0,0.0,0.0,0.0,0.0,0.0,0.0,0.0,0.0,0.0,0.0,0.0,0.0,0.0,3.2908,3.2747,0.0,3.2351,3.1878,3.1564,3.1389,3.1329,3.1349,3.1406,0.0,3.1151,3.1131,0.0,0.0,0.0,0.0,0.0,0.0,0.0,0.0,0.0,0.0,0.0,0.0,2.9572,2.9522,2.9493,0.0,0.0,0.0,0.0,0.0,0.0,0.0,0.0,0.0,0.0,0.0,0.0,0.0,0.0,0.0,2.5821,2.5069,2.4472,2.4209,2.417,2.4392,2.4949,2.5437,2.5962,2.6508,2.6298,2.6138,2.6015,2.5382,2.4992,2.4736,2.5346,2.5567,2.5473,2.6185,2.6499,2.6499,2.6499,2.6499,2.6499,2.6499,2.6499,2.6499,2.6499,2.6499,2.6499,2.6499,2.6499,2.6499,0.0,0.0,0.0,0.0,0.0,0.0,0.0,0.0,0.0,0.0,0.0,0.0,0.0,0.0,0.0,0.0,0.0,0.0,0.0,0.0,0.0,0.0,0.0,0.0,0.0,0.0,0.0,0.0,0.0,0.0,0.0,0.0,0.0,0.0,0.0,0.0,0.0,0.0,3.3316,3.3068,3.27,0.0,3.1967,3.1582,3.1349,3.119,3.119,3.119,3.123,3.1389,3.1349,0.0,0.0,3.119,3.119,0.0,3.1035,3.0801,0.0,0.0,0.0,2.9506,0.0,0.0,0.0,2.8465,2.8345,0.0,0.0,0.0,0.0,0.0,0.0,0.0,0.0,0.0,0.0,0.0,0.0,0.0,0.0,0.0,2.4909,2.4379,2.3873,2.3436,2.3377,2.3378,2.3447,2.3963,2.4542,2.5194,2.5366,2.5575,2.5801,2.5484,2.5138,2.4853,2.5107,2.5347,2.5598,2.59,2.6223,2.6499,2.6499,2.6499,2.6499,2.6396,2.6339,2.6374,2.6465,2.643,2.6374,2.6465,2.6499,2.6499,0.0,0.0,0.0,0.0,0.0,0.0,0.0,0.0,0.0,0.0,0.0,0.0,0.0,0.0,0.0,0.0,0.0,0.0,0.0,0.0,0.0,0.0,0.0,3.3104,0.0,0.0,0.0,0.0,0.0,0.0,0.0,0.0,0.0,0.0,0.0,0.0,0.0,0.0,0.0,3.315,0.0,3.2144,3.1878,3.1504,3.1349,3.131,3.1249,3.123,3.1252,3.1524,0.0,3.119,3.119,3.1151,0.0,0.0,0.0,0.0,0.0,0.0,0.0,0.0,0.0,2.8097,0.0,0.0,0.0,0.0,0.0,0.0,0.0,0.0,0.0,0.0,0.0,0.0,0.0,0.0,0.0,0.0,0.0,0.0,0.0,2.3765,2.3324,2.2777,2.2657,2.2443,2.2011,2.2689,2.3342,2.3933,2.4621,2.5218,2.5709,2.5701,2.5365,2.4788,2.4758,2.4925,2.527,2.527,2.5581,2.6152,2.6255,2.6386,2.6499,2.627,2.6179,2.6166,2.6327,2.6292,2.6201,2.6327,2.6396,2.6396,0.0,0.0,0.0,0.0,0.0,0.0,0.0,0.0,0.0,0.0,0.0,0.0,0.0,0.0,0.0,0.0,0.0,0.0,3.2844,0.0,0.0,0.0,0.0,0.0,3.307,0.0,0.0,0.0,0.0,0.0,0.0,0.0,0.0,0.0,3.3003,0.0,0.0,0.0,3.2699,0.0,3.2334,3.2452,0.0,3.2092,3.1877,3.1766,3.1411,3.1276,3.1293,0.0,3.123,3.119,0.0,3.0918,0.0,0.0,0.0,0.0,0.0,0.0,0.0,0.0,2.842,0.0,0.0,0.0,0.0,0.0,0.0,0.0,0.0,0.0,0.0,0.0,0.0,0.0,0.0,0.0,0.0,0.0,0.0,0.0,0.0,2.3652,2.2352,2.1793,2.1224,2.087,2.0795,2.2213,2.3258,2.3809,2.4548,2.5162,2.5678,2.5639,2.5338,2.48,2.4688,2.4408,2.4008,2.4008,2.4299,2.4842,2.5452,2.6021,2.6499,2.627,2.6097,2.5945,2.598,2.605,2.6166,2.6015,2.6084,2.6213,0.0,0.0,0.0,0.0,0.0,0.0,0.0,0.0,0.0,0.0,0.0,0.0,0.0,0.0,0.0,0.0,0.0,0.0,0.0,0.0,0.0,0.0,0.0,0.0,0.0,0.0,0.0,0.0,3.3271,0.0,0.0,0.0,0.0,0.0,3.2876,0.0,3.2766,0.0,0.0,0.0,0.0,0.0,0.0,3.1932,3.1618,3.1653,3.1483,3.137,3.1295,0.0,3.1232,0.0,0.0,0.0,0.0,0.0,0.0,0.0,0.0,0.0,0.0,0.0,0.0,0.0,0.0,0.0,2.6416,0.0,0.0,0.0,0.0,0.0,0.0,0.0,0.0,0.0,0.0,0.0,0.0,0.0,0.0,0.0,0.0,0.0,0.0,0.0,2.1007,2.0602,2.0603,2.1459,2.2502,2.3709,2.4157,2.4956,2.6169,2.6156,2.5644,2.4664,2.4299,2.4041,2.3779,2.3465,2.4022,2.5185,2.5498,2.587,2.6305,2.6131,2.591,2.5723,2.5723,2.5828,2.6015,2.5945,2.6027,2.6131,0.0,0.0,0.0,0.0,0.0,0.0,0.0,0.0,0.0,0.0,0.0,0.0,3.3605,3.343,0.0,0.0,0.0,3.2587,0.0,0.0,3.2813,0.0,0.0,0.0,0.0,0.0,0.0,0.0,0.0,0.0,0.0,0.0,0.0,0.0,0.0,3.2666,3.2435,0.0,0.0,3.2501,3.27,3.2718,3.2537,3.1822,3.156,3.1593,3.1538,3.1464,3.1372,3.1315,3.1196,0.0,3.0601,0.0,0.0,0.0,0.0,0.0,2.9143,0.0,0.0,0.0,0.0,0.0,0.0,0.0,0.0,0.0,0.0,0.0,0.0,0.0,0.0,0.0,0.0,0.0,0.0,0.0,0.0,0.0,0.0,0.0,0.0,0.0,0.0,2.1368,2.0617,2.0295,2.0571,2.1113,2.216,2.3827,2.4229,2.5084,2.6474,2.628,2.5564,2.4357,2.3592,2.316,2.304,2.2659,2.326,2.4595,2.4855,2.525,2.5654,2.5287,2.5194,2.5241,2.4981,2.5016,2.5194,2.5641,2.5758,2.5688,0.0,3.3712,0.0,0.0,0.0,0.0,0.0,0.0,0.0,0.0,0.0,0.0,0.0,0.0,0.0,0.0,0.0,3.167,3.1912,0.0,3.2385,0.0,0.0,0.0,0.0,0.0,0.0,0.0,0.0,0.0,0.0,0.0,0.0,0.0,0.0,3.2795,3.2763,3.2452,3.2109,3.175,3.1877,3.1821,3.1691,0.0,3.2001,3.1764,3.1635,0.0,0.0,3.1372,3.1004,0.0,0.0,0.0,0.0,0.0,0.0,0.0,0.0,0.0,0.0,2.8411,0.0,0.0,0.0,0.0,2.5729,0.0,0.0,0.0,0.0,0.0,0.0,0.0,0.0,0.0,0.0,0.0,0.0,0.0,0.0,0.0,0.0,0.0,0.0,2.0488,1.9582,1.9498,2.0535,2.1398,2.2603,2.4214,2.512,2.5837,2.6487,2.5746,2.4817,2.3815,2.2366,2.1486,2.1181,2.1158,2.1486,2.208,2.2977,2.3744,2.4325,2.3578,2.3745,2.4337,2.3427,2.3169,2.3489,2.5052,2.5123,2.4528,0.0,0.0,0.0,0.0,0.0,0.0,0.0,3.378,0.0,0.0,0.0,0.0,0.0,0.0,3.2636,0.0,0.0,3.1966,3.1967,3.2318,0.0,0.0,0.0,3.3268,0.0,0.0,0.0,0.0,0.0,0.0,3.3003,0.0,0.0,0.0,0.0,3.2317,0.0,0.0,0.0,0.0,0.0,3.1893,3.1617,0.0,0.0,3.18,3.1746,3.1671,0.0,3.1523,3.1162,3.0666,3.0335,2.9973,2.9595,2.9136,2.8943,0.0,0.0,0.0,2.791,2.8299,0.0,0.0,0.0,0.0,0.0,0.0,0.0,0.0,0.0,0.0,0.0,0.0,0.0,0.0,0.0,0.0,0.0,0.0,0.0,0.0,0.0,0.0,0.0,2.1533,2.0929,2.0899,2.1638,2.2353,2.3342,2.46,2.466,2.4931,2.5511,2.4707,2.3568,2.215,2.1631,2.1001,2.0258,2.0387,2.0957,2.1924,2.243,2.2926,2.3373,2.3251,2.3305,2.3463,2.3231,2.2787,2.2451,2.4047,2.4528,2.4409,3.3807,0.0,0.0,0.0,0.0,0.0,0.0,0.0,0.0,0.0,3.3199,0.0,3.2811,0.0,3.2519,0.0,3.2144,3.2056,3.2074,3.2318,0.0,3.2266,3.2797,0.0,0.0,0.0,0.0,0.0,0.0,3.2988,3.2617,0.0,0.0,0.0,0.0,0.0,3.1768,0.0,3.1768,0.0,0.0,3.1857,0.0,0.0,3.18,3.18,0.0,3.1746,3.1654,3.1617,3.1162,3.0563,3.0208,2.9859,2.9448,2.8858,2.8818,2.8936,2.8612,2.822,0.0,2.8097,2.7163,0.0,2.639,0.0,0.0,0.0,0.0,0.0,0.0,0.0,0.0,0.0,0.0,0.0,0.0,0.0,0.0,0.0,0.0,0.0,0.0,0.0,2.1451,2.1829,2.1338,2.1449,0.0,0.0,2.3535,2.462,2.4214,2.4119,2.4445,2.3792,2.2675,2.118,2.1016,2.0509,1.9737,1.9868,2.0347,2.1083,2.1518,2.1855,2.2171,2.2221,2.2387,2.2537,2.2339,2.1897,2.1576,2.3195,2.3818,2.3866,0.0,0.0,0.0,0.0,3.382,0.0,0.0,0.0,3.3306,0.0,3.2968,3.2763,3.2747,3.247,3.2283,3.2283,3.1966,0.0,3.2162,3.2214,0.0,0.0,3.2266,3.2248,3.1912,0.0,0.0,0.0,0.0,0.0,3.2283,0.0,0.0,0.0,3.2368,0.0,3.1876,3.1949,3.1714,3.1334,3.1542,3.169,3.18,3.18,3.18,3.18,3.18,3.18,3.1781,3.1617,3.1024,3.0272,3.0123,2.9499,2.8794,2.8794,2.8794,2.8794,2.8794,2.866,2.8389,2.783,0.0,0.0,0.0,0.0,2.4835,0.0,0.0,0.0,0.0,0.0,0.0,0.0,0.0,0.0,0.0,0.0,0.0,0.0,0.0,0.0,0.0,0.0,2.0289,2.132,2.0787,2.1167,0.0,0.0,2.3271,2.4313,2.3745,2.3441,2.3441,2.2947,2.2103,2.0935,2.0451,1.9984,1.9529,1.9529,1.9551,1.9614,2.025,2.0623,2.0753,2.0661,2.1049,2.1652,2.0905,2.0605,2.0828,2.2526,2.3047,2.2957,3.3934,3.3959,3.3972,0.0,3.3947,3.3908,0.0,0.0,0.0,0.0,3.2635,3.2335,3.2073,3.1984,3.1929,3.1929,3.1838,0.0,0.0,0.0,0.0,3.1711,3.2283,3.2403,3.1912,3.2636,0.0,3.2368,0.0,0.0,3.2003,3.2352,0.0,0.0,0.0,0.0,3.1468,3.1578,3.1596,3.1542,3.169,3.1781,0.0,0.0,3.18,3.18,3.18,3.18,3.1727,3.1353,3.0885,3.0393,3.0011,2.9432,2.8873,2.8873,2.8834,2.8794,2.8794,2.8229,2.764,2.768,2.6747,2.5811,0.0,0.0,0.0,0.0,0.0,0.0,0.0,0.0,0.0,0.0,0.0,0.0,0.0,0.0,0.0,0.0,0.0,0.0,0.0,2.049,2.0728,2.1022,2.1629,2.2213,2.2679,0.0,0.0,2.3342,2.2782,2.2456,2.2456,2.1385,2.0563,1.9935,1.9465,1.9031,1.863,1.8731,1.8981,1.9304,1.9707,2.0068,2.0363,2.0534,2.0712,2.0905,2.0683,2.0605,2.0712,2.1756,2.2134,2.2096,3.3998,0.0,0.0,3.4049,0.0,0.0,3.3648,0.0,0.0,3.2905,3.2553,0.0,3.2073,3.1911,3.18,3.18,3.18,0.0,0.0,0.0,0.0,3.1912,3.2109,3.2074,3.1784,3.2335,0.0,3.202,0.0,0.0,3.1746,3.2002,0.0,0.0,0.0,3.1693,0.0,3.1502,3.1596,3.169,3.1781,0.0,0.0,3.18,3.18,3.1764,3.156,3.1504,3.1449,3.1181,3.0686,3.0161,2.9881,2.9432,2.899,2.899,2.8959,2.8897,2.8716,2.8238,2.7715,2.7414,2.6575,2.5757,2.5467,2.4836,2.4176,0.0,0.0,0.0,0.0,0.0,0.0,0.0,0.0,0.0,0.0,0.0,0.0,0.0,0.0,0.0,0.0,1.9726,2.0268,2.0419,2.1476,2.2115,0.0,0.0,0.0,2.2472,2.1814,2.1443,2.1443,2.0643,1.9979,1.9449,1.9099,1.8668,1.8178,1.8245,1.8517,1.8953,1.9292,1.9688,2.0112,2.0468,2.0605,2.0605,2.0605,2.0605,2.0634,2.1126,2.128,2.131,0.0,0.0,0.0,0.0,0.0,0.0,0.0,3.3372,0.0,3.2903,0.0,3.2351,3.2351,3.2055,3.1819,3.1801,0.0,3.1929,3.2214,3.1948,3.1929,3.2214,3.1839,3.1617,3.1598,3.1895,0.0,0.0,0.0,0.0,3.15,3.1536,0.0,0.0,0.0,0.0,0.0,3.1579,3.1635,3.1709,3.1781,3.18,3.18,3.18,3.1746,3.1653,3.1257,3.1103,3.1083,3.0968,3.0418,2.9788,2.9744,2.9425,2.9098,2.9098,2.9052,2.8959,2.8583,2.8383,2.8057,2.7133,2.6575,2.5987,2.4936,2.4452,2.3972,2.3078,2.2848,2.2665,0.0,0.0,0.0,0.0,0.0,0.0,0.0,0.0,0.0,0.0,0.0,0.0,0.0,0.0,1.9321,1.9639,2.0667,2.1311,0.0,0.0,0.0,2.1652,2.0982,2.0605,2.0605,0.0,1.9883,1.9314,1.901,1.8563,1.8008,1.8066,1.8286,1.8715,1.918,1.9609,2.0029,2.0449,2.0605,2.0605,2.0605,2.0605,2.0605,2.0605,2.0644,2.0752,0.0,0.0,0.0,0.0,0.0,3.3648,3.3288,3.2954,3.2718,3.267,3.2352,3.2144,3.2144,3.209,3.2001,3.1893,3.1876,0.0,0.0,0.0,0.0,3.1893,3.1801,3.1709,3.1598,3.2038,3.2038,0.0,3.2038,3.202,3.1579,3.1707,0.0,0.0,0.0,0.0,3.1201,3.1468,0.0,3.1276,3.1635,3.18,3.18,3.18,3.156,3.1201,3.1142,3.1103,3.1004,3.0272,2.9924,2.9744,2.9335,2.9167,2.9098,2.9098,2.8873,2.8598,2.8511,2.8057,2.7473,2.7004,2.6416,2.5743,2.4879,2.4179,2.356,2.3017,2.2574,2.229,2.2228,0.0,0.0,0.0,0.0,0.0,0.0,0.0,0.0,0.0,0.0,0.0,0.0,0.0,0.0,0.0,0.0,0.0,0.0,0.0,0.0,0.0,2.0673,0.0,0.0,0.0,1.9433,1.9277,1.8557,1.811,1.8018,1.8334,1.8724,1.9199,1.9619,2.0049,2.0498,2.0576,2.0605,2.0605,2.0605,2.0605,2.0605,2.0605,2.0801,2.1083,0.0,0.0,0.0,0.0,0.0,0.0,0.0,3.2653,0.0,3.2638,3.2521,3.2403,3.2403,3.2214,3.2073,3.2002,3.1948,3.1893,3.1839,3.1819,3.18,3.18,3.18,0.0,3.1709,0.0,3.193,3.1709,3.193,3.1929,0.0,0.0,0.0,3.169,0.0,3.1315,0.0,0.0,0.0,3.0804,3.1024,3.114,3.114,3.114,3.0985,3.0764,3.0502,3.0418,3.0356,2.9946,2.9633,2.9403,2.9167,2.9098,2.9052,2.885,2.8646,2.8415,2.8033,2.7675,2.731,2.6959,2.6244,2.5467,2.4753,2.3946,2.3185,2.2635,2.234,2.2197,2.2197,2.1588,0.0,0.0,0.0,0.0,0.0,0.0,0.0,0.0,0.0,0.0,0.0,0.0,0.0,0.0,0.0,0.0,0.0,0.0,0.0,0.0,0.0,0.0,0.0,0.0,0.0,1.8945,1.8311,1.8125,1.8305,1.851,1.8958,1.9619,1.9824,2.0166,2.0605,2.0605,2.0605,2.0605,2.0605,2.0605,2.0635,2.083,2.1045,2.122,0.0,3.4111,0.0,0.0,3.3361,0.0,3.2827,3.2488,3.2336,3.2605,3.2638,3.2638,3.2638,3.2353,3.2144,3.2126,3.202,3.1966,3.193,3.1874,3.1819,3.1819,3.1818,3.1746,3.1653,3.1653,3.1615,0.0,3.1615,3.1653,0.0,0.0,0.0,0.0,0.0,0.0,0.0,0.0,3.0456,3.0372,3.0456,3.0497,3.0497,3.0497,3.0435,3.0309,2.9924,2.9744,2.9655,2.9655,2.9403,2.9098,2.9098,2.9029,2.8897,2.8583,2.8391,2.814,2.7564,2.735,2.717,2.6727,2.6001,2.5217,2.4469,2.3695,2.2927,2.2309,2.2197,2.2154,2.1999,2.1368,0.0,0.0,0.0,0.0,0.0,0.0,0.0,0.0,0.0,0.0,0.0,0.0,0.0,0.0,0.0,1.9278,1.9167,1.9551,1.998,0.0,0.0,2.0352,1.9922,0.0,1.9072,1.8598,1.8266,1.8286,1.8607,1.8783,1.9241,1.9922,2.0019,2.0244,2.0605,2.0605,2.0605,2.0605,2.0605,2.0605,2.0664,2.1064,2.1249,2.1395,0.0,0.0,0.0,0.0,0.0,0.0,3.2795,3.2556,3.2388,3.2422,3.2422,3.2422,3.2422,3.2388,3.2319,3.2197,3.2179,3.2144,3.209,3.1966,3.1876,3.1876,3.1838,3.1598,3.1181,3.1162,3.0985,0.0,0.0,3.1162,0.0,0.0,0.0,0.0,0.0,0.0,0.0,3.033,3.0246,2.9903,3.033,3.0497,3.0497,3.0497,3.0246,2.9859,2.9832,2.9522,2.9167,2.9167,2.9144,2.9098,2.9098,2.885,2.8535,2.8511,2.8033,2.7488,2.7427,2.7144,2.6727,2.6111,2.5701,2.5119,2.3946,2.3382,2.2927,2.2309,2.2197,2.1999,2.1336,2.0645,1.9966,0.0,0.0,0.0,0.0,0.0,0.0,0.0,0.0,0.0,0.0,0.0,0.0,0.0,0.0,1.8321,1.8637,1.9111,1.9541,1.9961,0.0,2.0352,1.9922,1.9502,1.9072,1.8598,1.8559,1.8559,1.8627,1.9407,1.9834,1.9932,2.0332,2.0566,2.0605,2.0605,2.0605,2.0605,2.0605,2.0605,2.0664,2.1064,2.1484,2.1885,0.0,0.0,0.0,0.0,0.0,0.0,0.0,3.2755,3.2406,3.2406,3.2406,3.2406,3.2406,3.2406,3.2371,3.2319,3.2249,3.2179,3.2161,3.2073,3.1984,3.1894,3.1637,3.1372,3.1103,3.0848,3.0662,0.0,0.0,0.0,0.0,0.0,0.0,0.0,0.0,3.0123,2.9793,2.97,2.9544,2.9403,2.9589,2.9655,2.9655,2.9655,2.9544,2.938,2.938,2.9259,2.9098,2.9098,2.9098,2.9052,2.8826,2.8622,2.8415,2.7984,2.764,2.735,2.7119,2.6659,2.6206,2.5948,2.5258,2.4452,2.3859,2.3275,2.2757,2.2389,2.1913,2.1463,2.1167,2.0182,1.9342,0.0,0.0,0.0,0.0,0.0,0.0,0.0,0.0,0.0,0.0,0.0,0.0,0.0,0.0,0.0,1.8578,1.8763,0.0,1.9531,0.0,1.959,1.9114,1.8948,1.8773,1.8598,1.8598,1.887,1.9377,1.9756,2.0059,2.0312,2.0527,2.0605,2.0605,2.0605,2.0605,2.0605,2.0605,2.0732,2.1016,2.1465,2.1894,2.2324,3.5465,0.0,3.535,0.0,3.4534,3.4057,3.3582,3.3055,3.2651,3.2423,3.2406,3.2406,3.2406,3.2406,3.2406,3.2406,3.2301,3.2267,3.2267,3.2179,3.2055,3.1875,3.1506,0.0,3.0845,3.0477,3.0225,3.0097,3.0502,0.0,0.0,0.0,0.0,0.0,2.9946,2.9705,2.9566,2.9236,2.9098,2.9098,2.9098,2.9098,2.9098,2.9098,2.9098,2.9098,2.9098,2.9098,2.9075,2.8943,2.892,2.8873,2.8598,2.8343,2.8067,2.7564,2.7325,2.7119,2.6674,2.6233,2.5811,2.5467,2.4723,2.4002,2.3607,2.3108,2.2586,2.2099,2.1514,2.0965,2.057,1.9661,1.8944,1.8754,0.0,0.0,0.0,0.0,0.0,0.0,0.0,1.7837,1.7784,0.0,0.0,0.0,0.0,0.0,0.0,0.0,0.0,0.0,0.0,0.0,0.0,1.8734,1.8724,1.8607,1.8861,1.929,1.9922,2.0049,2.0273,2.0605,2.0605,2.0605,2.0605,2.0605,2.0605,2.0605,2.0605,2.084,2.1249,2.1728,2.2148,2.2578,3.5183,3.5115,3.5012,3.4744,3.4706,3.4407,3.3617,3.3494,3.3231,3.2493,3.2406,3.2406,3.2406,3.2406,3.2406,3.2406,3.2406,3.2406,3.2406,3.2267,3.2073,0.0,0.0,3.0962,3.0231,2.9941,2.9589,2.9121,0.0,0.0,2.9832,0.0,3.0267,2.981,2.9793,2.9544,2.9098,2.9098,2.9098,2.9098,2.9098,2.9098,2.9098,2.9098,2.9098,2.9098,2.9098,2.9098,2.9029,2.8646,2.8511,2.8511,2.8487,2.8008,2.7427,2.7401,2.7119,2.6674,2.6056,2.5921,2.5605,2.4408,2.4102,2.3897,2.3078,2.28,2.2389,2.1325,2.1092,2.0666,1.9266,1.9011,1.8777,1.811,0.0,0.0,0.0,0.0,0.0,0.0,1.771,1.7642,1.7974,0.0,0.0,0.0,0.0,0.0,0.0,0.0,0.0,1.8607,1.9062,0.0,1.8607,1.9062,1.9062,1.8617,1.9455,1.9902,1.9932,2.04,2.0595,2.0605,2.0605,2.0605,2.0605,2.0605,2.0605,2.0605,2.0605,2.084,2.1249,2.1728,2.2148,2.2578,3.6424,3.6406,3.6368,3.6289,3.5811,3.5197,3.4424,3.3863,3.3248,3.2493,3.2406,3.2406,3.2406,3.2406,3.2406,0.0,3.2406,3.2406,0.0,3.2144,3.1947,3.1818,3.1162,3.0621,3.021,2.9804,2.9425,2.9098,0.0,0.0,0.0,2.9946,2.9772,2.9312,2.9312,2.9236,2.9098,2.9098,2.9098,2.9098,2.9098,2.9098,2.9098,2.9098,2.9098,2.9052,2.8803,2.8693,2.8622,2.8231,2.7944,2.775,2.775,2.759,2.735,2.7067,2.6606,2.6138,2.5948,2.53,2.458,2.4218,2.375,2.3335,2.3078,2.2488,2.1827,2.1388,2.0441,1.9529,1.9067,1.862,1.8236,1.8042,1.8008,0.0,0.0,0.0,0.0,0.0,0.0,1.7872,0.0,1.794,0.0,0.0,0.0,0.0,0.0,0.0,0.0,0.0,1.835,0.0,1.8598,1.8734,1.9036,1.9475,1.9785,2.0068,2.0361,2.0537,2.0605,2.0605,2.0605,2.0605,2.0605,2.0605,2.0605,2.0635,2.0898,2.1289,2.1728,2.2158,2.2578,2.2916,3.7007,3.7007,3.7007,3.7007,3.6338,3.5565,3.4811,3.402,3.3248,3.2493,3.2406,3.2406,3.2406,3.2301,0.0,3.2388,3.2406,3.2336,3.2214,3.202,3.1784,3.1502,3.0925,3.0435,3.0065,0.0,0.0,2.9098,2.9403,2.9544,2.9544,2.9544,2.938,2.9098,2.9098,2.9098,2.9098,2.9098,2.9098,2.9098,2.9098,2.9098,2.9075,2.892,2.8873,2.8826,2.8415,2.828,2.8222,2.783,2.756,2.7376,2.7222,2.7026,2.6791,2.6527,2.6206,2.5811,2.5356,2.4666,2.4031,2.378,2.3395,2.3005,2.2732,2.2125,2.1396,2.0741,1.9759,1.8911,1.8654,1.8269,1.8008,1.8008,1.8008,1.8008,1.8008,0.0,0.0,0.0,0.0,0.0,0.0,1.8008,0.0,0.0,0.0,0.0,0.0,0.0,0.0,1.8208,1.8242,0.0,1.8841,1.8997,1.9348,1.9912,2.0078,2.0341,2.0605,2.0605,2.0605,2.0605,2.0605,2.0605,2.0605,2.0605,2.0605,2.0644,2.1025,2.1504,2.1934,2.2353,2.274,2.3091,3.7007,3.7007,3.7007,0.0,3.6338,0.0,3.4811,3.4003,3.3195,3.2459,3.2336,3.2336,3.2336,3.2055,3.2002,3.2319,0.0,0.0,0.0,3.1858,3.1581,3.1015,3.0744,3.0356,2.9853,2.9633,2.9418,2.9121,2.9121,2.9121,2.9098,2.9075,2.9075,2.9098,2.9075,2.9052,2.9052,2.9052,2.9029,2.9029,2.9029,2.9029,2.8982,2.8598,2.8463,2.8415,2.8012,2.7864,2.7815,2.7473,2.7325,2.7248,2.6858,2.634,2.5839,2.5893,2.5839,2.5522,2.4408,2.4073,2.3897,2.3258,2.3078,2.2884,2.2063,2.169,2.1101,1.9595,1.91,1.8754,1.811,1.8008,1.8008,1.8008,1.8008,1.8008,1.8008,0.0,0.0,0.0,0.0,0.0,0.0,1.8008,1.8008,0.0,0.0,0.0,0.0,0.0,1.8198,1.8588,1.8627,1.8851,1.9326,1.9717,1.9932,1.9961,2.041,2.0605,2.0605,2.0605,2.0605,2.0605,2.0605,2.0605,2.0605,2.0605,2.0625,2.0693,2.1103,2.1543,2.1982,2.2402,2.276,2.3091,0.0,0.0,3.7007,3.7007,3.6338,3.5565,3.4811,3.3838,3.2906,3.2124,3.1856,3.1709,3.1709,3.1635,3.1617,3.1709,3.1709,3.169,3.1598,3.1351,3.1154,3.0995,3.0695,3.0384,3.0124,3.006,2.9842,2.9418,2.9418,2.9305,2.9075,2.8803,2.8803,2.9091,2.8764,2.8646,2.8646,2.8646,2.8463,2.8183,2.8183,2.8183,2.8183,2.8085,2.8021,2.7987,2.7635,2.7524,2.7448,2.7052,2.6633,2.6245,2.6138,2.5715,2.53,2.577,2.5244,2.4465,2.4189,2.3721,2.3305,2.3125,2.3017,2.2775,2.2075,2.1227,2.0365,1.9497,1.8721,1.8202,1.8042,1.8008,1.8008,1.8008,1.8008,1.8008,1.8008,1.8008,0.0,0.0,1.8008,1.8008,1.8008,1.8008,1.8008,0.0,0.0,0.0,0.0,1.8451,1.85,1.8598,1.8965,1.9336,1.9756,1.9863,2.0078,2.0449,2.0556,2.0605,2.0605,2.0605,2.0605,2.0605,2.0605,2.0605,2.0605,2.0605,2.0762,2.1123,2.1562,2.1992,2.2412,2.2789,2.3013,2.3091,3.6809,3.6768,3.6626,3.6119,3.5367,3.4584,3.384,3.2962,3.2211,3.178,3.1579,3.1485,3.1485,3.1351,3.1254,3.1254,3.1408,3.1428,3.1274,3.1095,3.0935,3.0794,3.0609,3.0401,3.0189,3.0189,2.9973,2.9493,2.9312,2.9082,2.8826,2.8415,2.8328,2.8535,2.8319,2.8231,2.8231,2.8231,2.811,2.7898,2.7898,2.7898,2.7889,2.773,2.767,2.762,2.7258,2.7119,2.7067,2.6553,2.6179,2.5866,2.5578,2.5077,2.4652,2.4978,2.4609,2.4031,2.3721,2.3365,2.3035,2.272,2.2598,2.2249,2.1175,2.043,1.9748,1.9011,1.8395,1.8008,1.8008,1.8008,1.8008,1.8008,1.8008,1.8008,1.8008,1.8008,0.0,1.8008,1.8008,1.8008,1.8008,1.8184,1.8256,1.8256,0.0,0.0,1.8926,1.9075,1.9182,1.9182,1.9443,1.9775,2.0215,2.0215,2.037,2.0605,2.0605,2.0605,2.0605,2.0605,2.0605,2.0605,2.0605,2.0605,2.0615,2.0791,2.1016,2.1259,2.1924,2.2314,2.2568,2.2945,2.3091,2.3091,3.6564,3.6357,3.5959,3.5056,3.4134,3.3311,3.2698,3.1925,3.1408,3.1408,3.137,3.1351,3.1351,3.1114,3.0915,3.0915,3.1176,3.1235,3.0935,3.0915,3.0814,3.051,3.0506,3.0422,3.0253,3.0253,3.0017,2.956,2.9136,2.8795,2.8487,2.8036,2.7839,2.7898,2.7839,2.7815,2.7815,2.7815,2.779,2.774,2.774,2.774,2.769,2.7423,2.7299,2.7273,2.691,2.6727,2.6594,2.6056,2.5784,2.555,2.5021,2.4452,2.3956,2.3956,2.3956,2.3839,2.3245,2.3035,2.2781,2.2113,2.1928,2.1542,2.0117,1.9725,1.9414,1.8562,1.8232,1.8105,1.8105,1.8057,1.8008,1.8008,1.8008,1.8008,1.8008,0.0,1.8008,1.8008,1.8066,1.8105,1.8105,1.8451,1.8705,1.8705,1.9082,1.9316,1.9375,1.9717,1.9941,2.001,2.0019,2.0195,2.0595,2.0605,2.0605,2.0605,2.0605,2.0605,2.0605,2.0605,2.0605,2.0605,2.0605,2.0605,2.0635,2.1045,2.1239,2.1375,2.2207,2.2549,2.2646,2.2964,2.3091,2.3091,3.6523,3.578,3.5111,3.4928,3.371,3.2715,3.2633,3.1729,3.1075,3.1075,3.0818,3.0654,3.0654,3.0593,3.0589,3.0589,3.063,3.0634,3.0572,3.0589,3.0551,3.0506,3.0506,3.0506,3.0464,3.0464,3.0215,2.9766,2.9355,2.8919,2.8487,2.781,2.7635,2.7889,2.761,2.7488,2.7488,2.7488,2.7284,2.6974,2.6974,2.6974,2.6974,2.691,2.6884,2.6884,2.6806,2.6474,2.6029,2.5921,2.5203,2.435,2.4263,2.3796,2.3258,2.3258,2.3258,2.3215,2.3138,2.2689,2.2082,2.1428,2.1167,2.0848,2.0009,1.9881,1.9726,1.8944,1.864,1.851,1.851,1.8217,1.8008,1.8008,1.8008,1.8008,1.8008,0.0,1.8008,1.8008,1.8286,1.851,1.851,1.8936,1.9189,1.9189,1.9248,1.9443,1.9805,1.9883,2.0088,2.0488,2.0507,2.0537,2.0605,2.0605,2.0605,2.0605,2.0605,2.0605,2.0605,2.0605,2.0605,2.0605,2.0605,2.0605,2.0635,2.1045,2.1414,2.1836,2.2324,2.2734,2.3003,2.3071,2.3091,2.3091,3.5429,3.4921,3.4278,3.3292,3.2543,3.1916,3.1533,3.1056,3.0733,3.0733,3.0609,3.0506,3.0506,3.0506,3.0506,3.0506,3.0506,3.0506,3.0506,3.0506,3.0506,3.0506,3.0506,3.0384,3.0135,3.0113,2.9793,2.9081,2.8693,2.8304,2.7885,2.7335,2.7155,2.7306,2.7155,2.7067,2.7067,2.7067,2.6963,2.6806,2.6806,2.6806,2.6806,2.6806,2.6594,2.6313,2.6313,2.5934,2.537,2.5034,2.4551,2.4044,2.3691,2.3335,2.3108,2.3108,2.2841,2.2555,2.2555,2.1978,2.1247,2.057,2.0456,2.0312,1.9518,1.9581,1.9672,1.9199,1.9056,1.8984,1.8984,1.8828,1.8691,1.8691,1.8691,0.0,0.0,1.8691,1.8691,1.8691,1.8867,1.8984,1.8984,1.9375,1.9619,1.9619,1.9844,2.0096,2.0254,2.0264,2.04,2.0595,2.0605,2.0605,2.0605,2.0605,2.0605,2.0605,2.0605,2.0605,2.0605,2.0605,2.0605,2.0615,2.082,2.0849,2.0827,2.1609,2.1958,2.2097,2.2514,2.2838,2.3101,2.2969,2.3013,2.3091,3.4464,3.3962,3.3244,3.184,3.1466,3.1151,3.0588,3.0506,3.0506,3.0506,3.0506,3.0506,3.0506,3.0506,3.0447,3.0342,3.0342,3.03,3.0177,3.0177,3.022,3.0342,3.022,3.0006,2.9639,2.9639,2.9264,2.8559,2.811,2.773,2.7437,2.7015,2.6806,2.6806,2.6806,2.6806,2.6806,2.6806,2.6806,2.6806,2.6806,2.6727,2.6594,2.6594,2.6218,2.5688,2.5688,2.5314,2.4709,2.4263,2.4015,2.378,2.3245,2.3108,2.3108,2.3108,2.2494,2.1822,2.1667,2.1121,2.0441,1.9876,1.9841,1.9817,1.9244,1.9429,1.9683,1.9553,1.947,1.9434,1.9434,1.9355,1.9287,1.9287,0.0,0.0,0.0,1.9287,1.9287,1.9287,1.9375,1.9434,1.9434,1.9814,2.0068,2.0068,2.0419,2.0605,2.0605,2.0605,2.0605,2.0605,2.0605,2.0605,2.0605,2.0605,2.0566,2.0527,2.0527,2.0527,2.0527,2.0527,2.0625,2.0742,2.1004,2.1097,2.113,2.2039,2.2349,2.2226,2.264,2.2882,2.3013,2.2838,2.2882,2.3057,3.4314,3.2944,3.1774,3.1615,3.1035,3.0555,3.0506,3.0506,3.0506,3.0506,3.0506,3.0506,3.0506,3.0506,3.0321,2.9897,2.9853,2.9661,2.9234,2.9189,2.9393,2.9815,2.9438,2.9205,2.9143,2.9143,2.9005,2.8685,2.8143,2.7805,2.7575,2.7052,2.6806,2.6806,2.6806,2.6806,2.6806,2.6806,2.6806,2.6806,2.6806,2.6474,2.5975,2.5975,2.5591,2.5077,2.5077,2.4681,2.4147,2.4102,2.3691,2.3168,2.3108,2.3108,2.3108,2.3108,2.2187,2.1028,2.042,2.0063,1.9811,1.9569,1.9402,1.9349,1.9655,1.9949,2.0165,2.0127,1.9995,1.9873,1.9873,1.9551,1.9287,1.9287,0.0,0.0,1.9287,1.9287,1.9287,1.9287,1.9629,1.9873,1.9873,2.0264,2.0556,2.0556,2.0586,2.0605,2.0605,2.0605,2.0605,2.0605,2.0605,2.0605,2.0605,2.0605,2.0489,2.0303,2.0303,2.0303,2.0303,2.0303,2.0643,2.1151,2.0989,2.114,2.1492,2.1996,2.2221,2.2226,2.264,2.2794,2.2803,2.2803,2.2794,2.2847,3.2812,3.2066,3.1466,3.1002,3.0688,3.0405,3.0113,3.007,2.9962,2.9661,2.9639,2.9639,2.9639,2.9639,2.955,2.9371,2.9371,2.928,2.9097,2.9097,2.9166,2.9348,2.9189,2.8943,2.8614,2.8614,2.8328,2.777,2.7585,2.7331,2.7104,2.691,2.6806,2.6806,2.6806,2.6806,2.6779,2.6394,2.6233,2.6206,2.5838,2.5564,2.5342,2.5342,2.4964,2.4423,2.4423,2.4031,2.3484,2.3484,2.3305,2.3108,2.3108,2.3108,2.2944,2.2094,2.1704,2.1313,2.0221,1.9693,1.9476,1.9692,1.9683,1.9656,1.9824,2.0171,2.0447,2.0447,2.0399,2.0312,2.0312,2.0224,2.0116,2.0116,0.0,2.0116,2.0116,2.0116,2.0116,2.0116,2.0263,2.0312,2.0312,2.0507,2.0605,2.0605,2.0605,2.0605,2.0605,2.0605,2.0605,2.0605,2.0489,2.045,2.0605,2.0489,2.0381,2.0303,2.0303,2.0438,2.0689,2.0778,2.106,2.1395,2.1624,2.1583,2.149,2.226,2.2389,2.2189,2.2429,2.2662,2.2803,2.2618,2.2662,2.2794,3.1797,3.1292,3.0892,3.0361,3.0156,2.9962,2.9639,2.9572,2.9461,2.9143,2.9097,2.9097,2.9097,2.9097,2.9028,2.8865,2.8818,2.8724,2.8574,2.8535,2.8583,2.8772,2.863,2.8367,2.7963,2.7938,2.772,2.7207,2.7155,2.7041,2.6873,2.6806,2.6806,2.6806,2.6806,2.67,2.6474,2.6084,2.5784,2.5564,2.5161,2.4908,2.4709,2.4709,2.4337,2.378,2.378,2.3484,2.3108,2.3108,2.3108,2.3108,2.3108,2.3233,2.3127,2.1716,2.1655,2.1778,2.0551,1.9945,1.9778,2.0018,2.0041,2.0026,2.0088,2.0352,2.0605,2.0605,2.0605,2.0605,2.0605,2.0605,2.0605,2.0605,2.0605,2.0605,2.0605,2.0605,2.0605,2.0605,2.0605,2.0605,2.0605,2.0605,2.0605,2.0605,2.0605,2.0605,2.0605,2.0605,2.0605,2.0605,2.0586,2.0663,2.0781,2.0545,2.0387,2.0387,2.0512,2.0763,2.1082,2.1173,2.1373,2.1723,2.1883,2.1815,2.1652,2.2328,2.2407,2.2097,2.2264,2.2441,2.2618,2.2397,2.2441,2.2662,3.1576,3.062,2.9793,2.9793,2.9416,2.9097,2.9097,2.9097,2.9097,2.9097,2.909,2.909,2.909,2.909,2.8865,2.8336,2.8158,2.7894,2.7427,2.7258,2.7458,2.8076,2.765,2.735,2.7207,2.7207,2.7207,2.7207,2.7041,2.6977,2.6977,2.6846,2.6779,2.6779,2.6779,2.6447,2.5893,2.5893,2.5536,2.4979,2.4979,2.4624,2.4102,2.4102,2.3691,2.3108,2.3108,2.3108,2.3108,2.3108,2.3108,2.3108,2.3108,2.3509,2.371,2.2232,2.217,2.2377,2.137,2.0929,2.0754,2.0541,2.0334,2.0284,2.0536,2.0605,2.0605,2.0605,2.0605,2.0605,2.0605,2.0605,2.0605,2.0605,2.0605,2.0605,2.0605,2.0605,2.0605,2.0605,2.0605,2.0605,2.0605,2.0605,2.0605,2.0605,2.0605,2.0605,2.0605,2.0605,2.0605,2.0605,2.1006,2.12,2.12,2.0828,2.0616,2.0626,2.1024,2.1297,2.1505,2.1307,2.1555,2.2188,2.1663,2.1671,2.2097,2.2097,2.2097,2.2097,2.2097,2.223,2.2353,2.2185,2.223,2.2397,3.0013,2.956,2.9303,2.9303,2.9189,2.8982,2.8591,2.8543,2.8424,2.8091,2.8042,2.8042,2.8042,2.7959,2.7835,2.7685,2.7534,2.7423,2.7258,2.7233,2.7233,2.7335,2.7284,2.7233,2.7207,2.7207,2.7155,2.7041,2.6592,2.6312,2.6233,2.5756,2.555,2.555,2.555,2.5439,2.5245,2.4836,2.4523,2.4321,2.3855,2.356,2.3395,2.3395,2.3275,2.3108,2.3108,2.3108,2.3108,2.3108,2.3108,2.308,2.2946,2.3276,2.3439,2.2015,2.1798,2.1883,2.1109,2.0988,2.108,2.1004,2.0851,2.0689,2.0615,2.0605,2.0605,2.0605,2.0605,2.0605,2.0605,2.0605,2.0605,2.0605,2.0605,2.0605,2.0605,2.0605,2.0605,2.0605,2.0605,2.0605,2.0605,2.0605,2.0605,2.0605,2.0605,2.0605,2.0605,2.0869,2.1035,2.1035,2.1273,2.1404,2.1404,2.1281,2.1158,2.1043,2.1282,2.1501,2.1712,2.1849,2.2079,2.2305,2.1998,2.1852,2.183,2.2008,2.2008,2.183,2.2008,2.2141,2.2185,2.2097,2.2141,2.223,2.9238,2.8935,2.8779,2.8779,2.863,2.8391,2.8076,2.7978,2.7845,2.7549,2.7473,2.7448,2.7448,2.7361,2.731,2.731,2.7196,2.7093,2.7052,2.7026,2.7015,2.6925,2.6765,2.6803,2.7026,2.7026,2.6896,2.6568,2.6204,2.5865,2.5536,2.5161,2.5007,2.5007,2.5007,2.4879,2.4624,2.4263,2.3956,2.3662,2.3245,2.3108,2.3108,2.3108,2.3108,2.3108,2.3108,2.3108,2.3145,2.3371,2.3387,2.3285,2.3156,2.3271,2.3257,2.2068,2.1945,2.1993,2.1271,2.1146,2.1167,2.1099,2.0984,2.0867,2.0644,2.0605,2.0605,2.0605,2.0605,2.0605,2.0605,2.0605,2.0605,2.0605,2.0605,2.0605,2.0605,2.0605,2.0605,2.0605,2.0605,2.0605,2.0605,2.0605,2.0605,2.0605,2.0772,2.083,2.083,2.125,2.1494,2.1494,2.1761,2.189,2.189,2.2055,2.1928,2.1616,2.1768,2.1988,2.2202,2.2168,2.2214,2.2264,2.2052,2.183,2.1687,2.1874,2.183,2.1741,2.2008,2.2097,2.2097,2.2097,2.2097,2.2097,2.8958,2.8567,2.8231,2.8231,2.787,2.7575,2.7575,2.7463,2.7376,2.7376,2.7284,2.7207,2.7207,2.7181,2.7155,2.7115,2.6937,2.6779,2.6633,2.6633,2.6633,2.6633,2.6111,2.6084,2.6633,2.6633,2.6367,2.5839,2.5784,2.5453,2.4922,2.4879,2.4838,2.4838,2.4838,2.4509,2.4015,2.4015,2.3662,2.3108,2.3108,2.3108,2.3108,2.3108,2.3108,2.3108,2.3158,2.3183,2.3271,2.3785,2.3786,2.3561,2.3461,2.3339,2.3078,2.2241,2.2262,2.2371,2.1655,2.132,2.1089,2.0906,2.0867,2.0819,2.0644,2.0605,2.0605,2.0605,2.0605,2.0605,2.0605,2.0605,2.0605,2.0605,2.0605,2.0605,2.0605,2.0605,2.0605,2.0605,2.0605,2.0605,2.0605,2.0644,2.0674,2.0723,2.1064,2.1249,2.1249,2.1709,2.1943,2.1943,2.2344,2.2568,2.2568,2.2906,2.2776,2.2203,2.2349,2.253,2.2706,2.2274,2.2097,2.2097,2.183,2.1696,2.1696,2.1696,2.1696,2.1741,2.1963,2.2052,2.2052,2.2052,2.2052,2.2052,2.7993,2.782,2.7745,2.7745,2.7575,2.7437,2.7437,2.7335,2.7233,2.7233,2.7233,2.7207,2.7207,2.7119,2.6843,2.6377,2.5797,2.5412,2.5384,2.5384,2.5384,2.5384,2.5273,2.5245,2.5384,2.5384,2.5328,2.5189,2.4723,2.4408,2.4292,2.3767,2.3501,2.3501,2.3501,2.3454,2.3305,2.3305,2.3215,2.3108,2.3108,2.3108,2.3108,2.3108,2.3108,2.3158,2.3653,2.3803,2.3798,2.3721,2.3534,2.3236,2.244,2.2484,2.2657,2.168,2.1354,2.1233,2.1099,2.0886,2.0722,2.0693,2.0654,2.0644,2.0605,2.0605,2.0605,2.0605,2.0605,2.0605,2.0605,2.0605,2.0605,2.0605,2.0605,2.0605,2.0605,2.0605,2.0605,2.0605,2.0605,2.0605,2.0605,2.0889,2.123,2.1572,2.1689,2.1748,2.1748,2.2148,2.2373,2.2373,2.274,2.2955,2.2955,2.2877,2.2702,2.2353,2.2624,2.2539,2.223,2.2141,2.2097,2.2097,2.183,2.1696,2.1696,2.1696,2.1696,2.1696,2.1785,2.1785,2.1785,2.1785,2.1785,2.183,2.7549,2.7448,2.7397,2.7397,2.7361,2.7284,2.7284,2.7196,2.7093,2.7093,2.6817,2.6592,2.6592,2.6258,2.592,2.5591,2.5231,2.5007,2.5007,2.5007,2.5007,2.5007,2.4709,2.4567,2.4567,2.425,2.425,2.4567,2.4263,2.3956,2.3632,2.3245,2.3108,2.3108,2.3108,2.3108,2.3108,2.3108,2.3108,2.3108,2.3108,2.3108,2.3108,2.3108,2.3283,2.359,2.3891,2.4108,2.4144,2.3641,2.3316,2.307,2.244,2.2168,2.2014,2.1387,2.1061,2.0906,2.0906,2.0741,2.0605,2.0605,2.0605,2.0605,2.0605,2.0605,2.0605,2.0605,2.0605,2.0605,2.0605,2.0605,2.0605,2.0605,2.0605,2.0605,2.0605,2.0605,2.0605,2.0605,2.0605,2.0693,2.0869,2.1289,2.1641,2.1865,2.207,2.2187,2.2187,2.2578,2.2812,2.2812,2.2984,2.3047,2.2969,2.2838,2.2627,2.2264,2.2407,2.2362,2.2097,2.1963,2.1919,2.1919,2.1785,2.1696,2.1696,2.1696,2.1696,2.1687,2.183,2.183,2.1741,2.183,2.1954,2.2043,2.7376,2.7284,2.7207,2.7207,2.7181,2.7155,2.7155,2.7041,2.6925,2.6832,2.6286,2.5866,2.5757,2.5203,2.4851,2.4851,2.4724,2.4681,2.4681,2.4681,2.4681,2.4681,2.4205,2.3914,2.3914,2.3395,2.3365,2.3914,2.3914,2.3632,2.3108,2.3108,2.3108,2.3108,2.3108,2.3108,2.3108,2.3108,2.3108,2.3108,2.3108,2.3158,2.3246,2.3246,2.3535,2.3953,2.4053,2.4143,2.4119,2.3465,2.3042,2.2767,2.2558,2.2004,2.1397,2.1205,2.1022,2.0867,2.0867,2.0731,2.0605,2.0605,2.0605,2.0605,2.0605,2.0605,2.0605,2.0605,2.0605,2.0605,2.0605,2.0605,2.0605,2.0605,2.0605,2.0605,2.0605,2.0605,2.0635,2.0713,2.0781,2.0967,2.1366,2.1777,2.2021,2.21,2.2422,2.2617,2.2617,2.2906,2.3091,2.3091,2.3091,2.3013,2.2838,2.275,2.2539,2.2141,2.2052,2.2052,2.2008,2.1785,2.1696,2.1696,2.1696,2.1696,2.1696,2.1696,2.1696,2.1741,2.1919,2.1919,2.1731,2.2008,2.223,2.2309,2.7233,2.7207,2.7207,2.7207,2.7093,2.7029,2.7029,2.691,2.6647,2.6111,2.5948,2.5688,2.5189,2.4567,2.4205,2.4205,2.3679,2.3365,2.3365,2.3365,2.3365,2.3365,2.3275,2.3258,2.3258,2.3138,2.3125,2.3258,2.3258,2.3198,2.3108,2.3108,2.3108,2.3108,2.3108,2.3108,2.3108,2.3108,2.3108,2.3108,2.3108,2.3409,2.3879,2.3879,2.3781,2.3718,2.4234,2.3886,2.3198,2.3077,2.2574,2.1911,2.1731,2.1464,2.1205,2.0984,2.0819,2.0644,2.0644,2.0605,2.0605,2.0605,2.0605,2.0605,2.0605,2.0605,2.0605,2.0605,2.0605,2.0605,2.0605,2.0605,2.0605,2.0605,2.0605,2.0605,2.0605,2.0605,2.0752,2.1094,2.1475,2.1875,2.2295,2.2393,2.2578,2.2896,2.2974,2.3013,2.3013,2.3062,2.3091,2.3091,2.3091,2.3101,2.3057,2.2662,2.2441,2.2353,2.1954,2.1731,2.1731,2.1741,2.1696,2.1696,2.1696,2.1696,2.1696,2.1696,2.1696,2.1696,2.1741,2.1731,2.1731,2.2008,2.2097,2.2141,2.7093,2.7041,2.6989,2.6989,2.6659,2.6394,2.6394,2.6042,2.5701,2.5425,2.509,2.478,2.4523,2.3943,2.3543,2.3543,2.3275,2.3108,2.3108,2.3108,2.3108,2.3108,2.3108,2.3108,2.3108,2.3108,2.3108,2.3108,2.3108,2.3108,2.3108,2.3108,2.3108,2.3108,2.3108,2.3108,2.3108,2.3108,2.3108,2.3133,2.3459,2.3766,2.3998,2.3828,2.3899,2.4048,2.3779,2.3391,2.2927,2.2365,2.1921,2.1578,2.1244,2.1089,2.0974,2.078,2.0654,2.0605,2.0605,2.0605,2.0605,2.0605,2.0605,2.0605,2.0605,2.0605,2.0605,2.0605,2.0605,2.0605,2.0605,2.0605,2.0605,2.0605,2.0605,2.0605,2.0605,2.0781,2.1103,2.1543,2.1973,2.2305,2.249,2.2682,2.2896,2.3081,2.3091,2.3091,2.3091,2.3091,2.3091,2.3091,2.3091,2.3057,2.2925,2.2706,2.2485,2.222,2.2008,2.183,2.1696,2.1696,2.1696,2.1696,2.1696,2.1696,2.1696,2.1696,2.1696,2.1696,2.1696,2.1696,2.1731,2.2008,2.2097,2.2097]}]]